ftp/pub/palmer/observations_modified/2019/June/AR190617_BASE.txt

Download

Sample DateTime	Unit Id	WS Avg 2min	WD Avg 2min	WGS 10min	WGD 10min	Air Temp	Rel Humidity	Dew Point	Pyranometer	Quantum	Air Pressure	Snow Level	Rainfall	PW Current	Visibility	CBase 1	CBase 2	CBase 3	Vert Vis
2019/06/17  00:00:01  BASE  6.86784  307  9.01404  301  -1.3  100   -1.3  0     0     984.6    NA       0.0000   9999     3080  0     0    
2019/06/17  00:01:00  BASE  7.17948  305  9.01404  301  -1.3  100   -1.3  0     0     984.6    NA       0.0000   9999     3050  0     0    
2019/06/17  00:02:00  BASE  7.34412  303  9.01404  301  -1.3  100   -1.3  0     0     984.6    NA       0.0000   9999     2230  3050  0    
2019/06/17  00:03:00  BASE  7.07952  304  8.71416  307  -1.3  100   -1.3  0     0     984.7    NA       0.0000   9999     2990  0     0    
2019/06/17  00:04:00  BASE  6.85608  305  8.71416  307  -1.3  100   -1.3  0     0     984.7    NA       0.0000   9999     2070  0     0    
2019/06/17  00:05:00  BASE  6.82668  304  8.3202   311  -1.3  100   -1.3  0     0     984.7    NA       0.0000   9999     2030  0     0    
2019/06/17  00:06:00  BASE  6.56208  308  8.07912  303  -1.3  100   -1.3  0     0     984.7    NA       0.0000   9999     2170  0     0    
2019/06/17  00:07:00  BASE  6.88548  310  8.07912  303  -1.3  100   -1.3  0     0     984.6    NA       0.0000   9999     2130  0     0    
2019/06/17  00:08:00  BASE  7.13244  309  8.07912  303  -1.3  100   -1.3  0     0     984.6    NA       0.0000   9999     2170  0     0    
2019/06/17  00:09:00  BASE  6.86784  313  8.07912  303  -1.3  100   -1.3  0     0     984.6    NA       0.0000   9999     2130  0     0    
2019/06/17  00:10:01  BASE  7.03248  314  8.07912  303  -1.2  100   -1.2  0     0     984.6    NA       0.0000   9999     2170  0     0    
2019/06/17  00:11:00  BASE  7.47936  315  8.379    313  -1.2  100   -1.2  0     0     984.6    NA       0.0000   9999     2130  0     0    
2019/06/17  00:12:00  BASE  7.4088   317  8.379    313  -1.3  100   -1.3  0     0     984.6    NA       0.0000   9999     2230  2990  0    
2019/06/17  00:13:00  BASE  7.2618   317  8.379    313  -1.3  100   -1.3  0     0     984.5    NA       0.0000   9999     2100  2890  0    
2019/06/17  00:14:00  BASE  7.63224  315  8.379    313  -1.3  100   -1.3  0     0     984.5    NA       0.0000   9999     2030  0     0    
2019/06/17  00:15:00  BASE  7.8792   313  8.86116  312  -1.3  100   -1.3  0     0     984.5    NA       0.0000   9999     2030  0     0    
2019/06/17  00:16:00  BASE  7.83804  311  8.86116  312  -1.3  100   -1.3  0     0     984.5    NA       0.0000   9999     2000  0     0    
2019/06/17  00:17:00  BASE  7.59108  311  8.86116  312  -1.3  100   -1.3  0     0     984.5    NA       0.0000   9999     1970  0     0    
2019/06/17  00:18:00  BASE  7.69104  312  8.86116  312  -1.3  100   -1.3  0     0     984.5    NA       0.0000   9999     2030  0     0    
2019/06/17  00:19:00  BASE  7.8792   309  8.86116  312  -1.3  100   -1.3  0     0     984.5    NA       0.0000   9999     1940  0     0    
2019/06/17  00:20:00  BASE  7.791    307  8.86116  312  -1.3  100   -1.3  0     0     984.5    NA       0.0000   9999     2100  4270  0    
2019/06/17  00:21:00  BASE  7.50876  305  8.86116  312  -1.3  100   -1.3  0     0     984.6    NA       0.0000   9999     3310  4920  0    
2019/06/17  00:22:00  BASE  7.39116  306  8.86116  312  -1.3  100   -1.3  0     0     984.6    NA       0.0000   9999     3020  0     0    
2019/06/17  00:23:00  BASE  7.10892  308  8.86116  312  -1.3  100   -1.3  0     0     984.6    NA       0.0000   9999     2070  3310  0    
2019/06/17  00:24:00  BASE  6.86784  308  8.86116  312  -1.3  100   -1.3  0     0     984.6    NA       0.0000   9999     2260  3350  0    
2019/06/17  00:25:00  BASE  7.18536  308  8.4672   306  -1.3  100   -1.3  0     0     984.6    NA       0.0000   9999     3250  0     0    
2019/06/17  00:26:00  BASE  7.10892  307  8.4672   306  -1.3  100   -1.3  0     0     984.6    NA       0.0000   9999     3280  4890  0    
2019/06/17  00:27:00  BASE  7.15008  304  8.4672   306  -1.3  100   -1.3  0     0     984.5    NA       0.0000   9999     1970  0     0    
2019/06/17  00:28:00  BASE  7.57932  304  8.71416  310  -1.3  100   -1.3  0     0     984.5    NA       0.0000   9999     2330  4860  0    
2019/06/17  00:29:00  BASE  7.4676   305  8.71416  310  -1.3  100   -1.3  0     0     984.6    NA       0.0000   9999     3180  0     0    
2019/06/17  00:30:00  BASE  7.40292  304  8.71416  310  -1.3  100   -1.3  0     0     984.6    NA       0.0000   9999     3220  4990  0    
2019/06/17  00:31:00  BASE  7.3794   304  8.71416  310  -1.3  100   -1.3  0     0     984.6    NA       0.0000   9999     2130  3310  0    
2019/06/17  00:32:00  BASE  7.10304  303  8.71416  310  -1.3  100   -1.3  0     0     984.6    NA       0.0000   9999     2260  0     0    
2019/06/17  00:33:00  BASE  7.13832  303  8.71416  310  -1.3  100   -1.3  0     0     984.6    NA       0.0000   9999     2170  3080  0    
2019/06/17  00:34:00  BASE  7.02072  303  8.71416  310  -1.3  100   -1.3  0     0     984.6    NA       0.0000   9999     3120  0     0    
2019/06/17  00:35:00  BASE  7.42644  302  8.71416  310  -1.3  100   -1.3  0     0     984.6    NA       0.0000   9999     2720  4130  0    
2019/06/17  00:36:00  BASE  8.03208  303  8.71416  310  -1.3  100   -1.3  0     0     984.5    NA       0.0000   9999     2620  0     0    
2019/06/17  00:37:00  BASE  7.89684  304  8.71416  310  -1.3  100   -1.3  0     0     984.5    NA       0.0000   9999     2430  0     0    
2019/06/17  00:38:00  BASE  7.56756  303  8.53188  306  -1.3  100   -1.3  0     0     984.5    NA       0.0000   9999     2170  0     0    
2019/06/17  00:39:00  BASE  7.60284  304  8.59068  301  -1.3  100   -1.3  0     0     984.5    NA       0.0000   9999     2000  5180  0    
2019/06/17  00:40:00  BASE  7.80276  304  8.59068  301  -1.3  100   -1.3  0     0     984.6    NA       0.0000   9999     3770  5090  0    
2019/06/17  00:41:00  BASE  7.8204   303  8.59068  301  -1.2  100   -1.2  0     0     984.5    NA       0.0000   9999     2850  3510  0    
2019/06/17  00:42:00  BASE  7.92624  301  8.59068  301  -1.2  100   -1.2  0     0     984.6    NA       0.0000   9999     2690  5180  0    
2019/06/17  00:43:00  BASE  7.46172  300  8.59068  301  -1.2  100   -1.2  0     0     984.6    NA       0.0000   9999     2260  5280  0    
2019/06/17  00:44:00  BASE  7.27356  300  8.59068  301  -1.2  100   -1.2  0     0     984.6    NA       0.0000   9999     2300  4950  0    
2019/06/17  00:45:00  BASE  7.2618   299  8.59068  301  -1.2  100   -1.2  0     0     984.6    NA       0.0000   9999     2100  0     0    
2019/06/17  00:46:00  BASE  6.74436  296  8.59068  301  -1.2  100   -1.2  0     0     984.6    NA       0.0000   9999     2000  0     0    
2019/06/17  00:47:00  BASE  6.86196  298  8.59068  301  -1.2  100   -1.2  0     0     984.5    NA       0.0000   9999     1870  0     0    
2019/06/17  00:48:00  BASE  7.35     297  8.59068  301  -1.2  100   -1.2  0     0     984.5    NA       0.0000   9999     1610  2130  0    
2019/06/17  00:49:00  BASE  7.53816  295  8.53188  304  -1.2  100   -1.2  0     0     984.5    NA       0.0000   9999     1940  0     0    
2019/06/17  00:50:00  BASE  7.1442   301  8.53188  304  -1.2  100   -1.2  0     0     984.5    NA       0.0000   9999     1610  0     0    
2019/06/17  00:51:00  BASE  7.10892  309  8.53188  304  -1.2  100   -1.2  0     0     984.4    NA       0.0000   9999     1480  0     0    
2019/06/17  00:52:00  BASE  7.62048  312  8.50248  300  -1.2  100   -1.2  0     0     984.4    NA       0.0000   9999     2100  0     0    
2019/06/17  00:53:00  BASE  7.97328  315  8.98464  318  -1.1  100   -1.1  0     0     984.3    NA       0.0000   9999     1670  0     0    
2019/06/17  00:54:00  BASE  8.3202   316  8.98464  318  -1.1  100   -1.1  0     0     984.3    NA       0.0000   9999     2400  4760  0    
2019/06/17  00:55:00  BASE  7.63812  316  8.98464  318  -1.1  100   -1.1  0     0     984.3    NA       0.0000   9999     1640  0     0    
2019/06/17  00:56:00  BASE  6.69144  320  8.98464  318  -1.1  100   -1.1  0     0     984.3    NA       0.0000   9999     1310  0     0    
2019/06/17  00:57:00  BASE  7.40292  322  8.98464  318  -1.1  100   -1.1  0     0     984.2    NA       0.0000   9999     1210  0     0    
2019/06/17  00:58:00  BASE  8.02032  325  8.98464  318  -1.1  100   -1.1  0     0     984.3    NA       0.0000   9999     1150  0     0    
2019/06/17  00:59:00  BASE  7.938    327  8.98464  318  -1.2  100   -1.2  0     0     984.2    NA       0.0000   9999     1210  0     0    
2019/06/17  01:00:00  BASE  8.39076  323  9.70788  316  -1.2  100   -1.2  0     0     984.2    NA       0.0000   9999     1410  2170  0    
2019/06/17  01:01:00  BASE  8.63772  322  9.70788  316  -1.2  100   -1.2  0     0     984.2    NA       0.0000   9999     1440  4200  0    
2019/06/17  01:02:00  BASE  9.00816  326  9.80196  328  -1.2  100   -1.2  0     0     984.1    NA       0.0000   9999     4300  0     0    
2019/06/17  01:03:00  BASE  9.41976  328  10.043   322  -1.2  100   -1.2  0     0     984.1    NA       0.0000   9999     4490  0     0    
2019/06/17  01:04:00  BASE  9.33156  327  10.0724  319  -1.2  100   -1.2  0     0     984.2    NA       0.0000   9999     4660  0     0    
2019/06/17  01:05:00  BASE  9.09048  325  10.0724  319  -1.2  100   -1.2  0     0     984.2    NA       0.0000   9999     4820  0     0    
2019/06/17  01:06:00  BASE  8.40252  326  10.0724  319  -1.2  100   -1.2  0     0     984.2    NA       0.0000   9999     4890  0     0    
2019/06/17  01:07:00  BASE  7.83804  328  10.0724  319  -1.2  100   -1.2  0     0     984.2    NA       0.0000   9999     4760  0     0    
2019/06/17  01:08:00  BASE  7.68516  330  10.0724  319  -1.3  100   -1.3  0     0     984.2    NA       0.0000   9999     4760  0     0    
2019/06/17  01:09:00  BASE  7.39116  333  10.0724  319  -1.3  100   -1.3  0     0     984.2    NA       0.0000   9999     4920  0     0    
2019/06/17  01:10:00  BASE  7.33824  329  10.0724  319  -1.3  100   -1.3  0     0     984.2    NA       0.0000   9999     5540  0     0    
2019/06/17  01:11:00  BASE  7.56756  324  10.0724  319  -1.3  100   -1.3  0     0     984.3    NA       0.0000   9999     5580  0     0    
2019/06/17  01:12:00  BASE  7.76748  325  10.0724  319  -1.3  100   -1.3  0     0     984.3    NA       0.0000   9999     5380  0     0    
2019/06/17  01:13:00  BASE  8.13204  325  10.0724  319  -1.3  100   -1.3  0     0     984.3    NA       0.0000   9999     5410  0     0    
2019/06/17  01:14:00  BASE  8.24964  323  9.4374   326  -1.3  100   -1.3  0     0     984.3    NA       0.0000   9999     5450  0     0    
2019/06/17  01:15:00  BASE  8.42604  322  10.1665  319  -1.3  100   -1.3  0     0     984.3    NA       0.0000   9999     5680  0     0    
2019/06/17  01:16:00  BASE  8.50248  325  10.1665  319  -1.3  100   -1.3  0     0     984.3    NA       0.0000   9999     5380  0     0    
2019/06/17  01:17:00  BASE  8.3496   327  10.1665  319  -1.3  100   -1.3  0     0     984.3    NA       0.0000   9999     5250  0     0    
2019/06/17  01:18:00  BASE  8.50248  328  10.1665  319  -1.3  100   -1.3  0     0     984.3    NA       0.0000   9999     5480  0     0    
2019/06/17  01:19:00  BASE  8.03796  328  10.1665  319  -1.3  100   -1.3  0     0     984.3    NA       0.0000   9999     5410  0     0    
2019/06/17  01:20:00  BASE  7.73808  328  10.1665  319  -1.3  100   -1.3  0     0     984.3    NA       0.0000   9999     5410  0     0    
2019/06/17  01:21:00  BASE  8.15556  327  10.1665  319  -1.3  100   -1.3  0     0     984.3    NA       0.0000   9999     5410  0     0    
2019/06/17  01:22:00  BASE  8.23788  325  10.1665  319  -1.3  100   -1.3  0     0     984.3    NA       0.0000   9999     5540  0     0    
2019/06/17  01:23:00  BASE  8.4084   327  10.1665  319  -1.3  100   -1.3  0     0     984.3    NA       0.0000   9999     5610  0     0    
2019/06/17  01:24:00  BASE  8.70828  328  10.1665  319  -1.3  100   -1.3  0     0     984.3    NA       0.0000   9999     5580  0     0    
2019/06/17  01:25:00  BASE  8.82588  328  9.91956  325  -1.3  100   -1.3  0     0     984.3    NA       0.0000   9999     1210  5510  0    
2019/06/17  01:26:00  BASE  9.03168  327  9.91956  325  -1.3  100   -1.3  0     0     984.3    NA       0.0000   9999     1410  5450  0    
2019/06/17  01:27:00  BASE  8.77884  324  9.91956  325  -1.3  100   -1.3  0     0     984.4    NA       0.0000   9999     5380  0     0    
2019/06/17  01:28:00  BASE  8.52012  323  9.91956  325  -1.2  100   -1.2  0     0     984.4    NA       0.0000   9999     5680  0     0    
2019/06/17  01:29:00  BASE  8.56128  323  9.91956  325  -1.2  100   -1.2  0     0     984.4    NA       0.0000   9999     1410  5710  0    
2019/06/17  01:30:00  BASE  8.76708  322  10.043   322  -1.2  100   -1.2  0     0     984.4    NA       0.0000   9999     1670  5680  0    
2019/06/17  01:31:00  BASE  8.72004  322  10.043   322  -1.2  100   -1.2  0     0     984.4    NA       0.0000   9999     5710  0     0    
2019/06/17  01:32:00  BASE  8.42604  321  10.043   322  -1.2  100   -1.2  0     0     984.5    NA       0.0000   9999     5640  0     0    
2019/06/17  01:33:00  BASE  8.04972  321  10.043   322  -1.2  100   -1.2  0     0     984.5    NA       0.0000   9999     5610  0     0    
2019/06/17  01:34:00  BASE  7.79688  322  10.043   322  -1.2  100   -1.2  0     0     984.5    NA       0.0000   9999     5640  0     0    
2019/06/17  01:35:00  BASE  7.97916  322  10.043   322  -1.2  100   -1.2  0     0     984.5    NA       0.0000   9999     5680  0     0    
2019/06/17  01:36:00  BASE  8.28492  322  10.043   322  -1.2  100   -1.2  0     0     984.5    NA       0.0000   9999     5710  0     0    
2019/06/17  01:37:00  BASE  8.04972  323  10.043   322  -1.2  100   -1.2  0     0     984.6    NA       0.0000   9999     5510  0     0    
2019/06/17  01:38:00  BASE  7.94388  323  10.043   322  -1.2  100   -1.2  0     0     984.6    NA       0.0000   9999     5480  0     0    
2019/06/17  01:39:00  BASE  8.13792  324  10.043   322  -1.2  100   -1.2  0     0     984.6    NA       0.0000   9999     5380  0     0    
2019/06/17  01:40:00  BASE  7.91448  326  9.28452  318  -1.3  100   -1.3  0     0     984.6    NA       0.0000   9999     5580  0     0    
2019/06/17  01:41:00  BASE  7.65576  323  9.10224  321  -1.3  100   -1.3  0     0     984.5    NA       0.0000   9999     5410  0     0    
2019/06/17  01:42:00  BASE  7.16184  323  9.10224  321  -1.3  100   -1.3  0     0     984.6    NA       0.0000   9999     5770  0     0    
2019/06/17  01:43:00  BASE  6.7914   323  9.10224  321  -1.3  100   -1.3  0     0     984.6    NA       0.0000   9999     5770  0     0    
2019/06/17  01:44:00  BASE  6.9678   323  9.10224  321  -1.3  100   -1.3  0     0     984.6    NA       0.0000   9999     6140  0     0    
2019/06/17  01:45:00  BASE  6.87372  324  9.10224  321  -1.3  100   -1.3  0     0     984.6    NA       0.0000   9999     6100  0     0    
2019/06/17  01:46:00  BASE  6.92664  325  9.10224  321  -1.3  100   -1.3  0     0     984.7    NA       0.0000   9999     6100  0     0    
2019/06/17  01:47:00  BASE  7.42056  326  9.10224  321  -1.3  100   -1.3  0     0     984.6    NA       0.0000   9999     6070  0     0    
2019/06/17  01:48:00  BASE  7.51464  325  8.83176  325  -1.3  100   -1.3  0     0     984.7    NA       0.0000   9999     5970  0     0    
2019/06/17  01:49:00  BASE  7.60872  325  8.71416  322  -1.3  100   -1.3  0     0     984.7    NA       0.0000   9999     5770  0     0    
2019/06/17  01:50:00  BASE  7.79688  327  8.379    327  -1.3  100   -1.3  0     0     984.7    NA       0.0000   9999     5840  0     0    
2019/06/17  01:51:00  BASE  7.84392  328  8.379    327  -1.3  100   -1.3  0     0     984.7    NA       0.0000   9999     5840  0     0    
2019/06/17  01:52:00  BASE  8.03796  325  8.77296  322  -1.3  100   -1.3  0     0     984.7    NA       0.0000   9999     5710  0     0    
2019/06/17  01:53:00  BASE  8.21436  324  9.16692  331  -1.3  100   -1.3  0     0     984.8    NA       0.0000   9999     5680  6230  0    
2019/06/17  01:54:00  BASE  8.63772  324  10.1018  323  -1.3  100   -1.3  0     0     984.7    NA       0.0000   9999     5640  0     0    
2019/06/17  01:55:00  BASE  8.85528  323  10.1018  323  -1.3  100   -1.3  0     0     984.7    NA       0.0000   9999     5580  0     0    
2019/06/17  01:56:00  BASE  8.69652  324  10.1018  323  -1.3  100   -1.3  0     0     984.7    NA       0.0000   9999     1510  5480  0    
2019/06/17  01:57:00  BASE  8.73768  325  10.1018  323  -1.3  100   -1.3  0     0     984.8    NA       0.0000   9999     1840  0     0    
2019/06/17  01:58:00  BASE  8.5848   326  10.1018  323  -1.3  100   -1.3  0     0     984.7    NA       0.0000   9999     6000  0     0    
2019/06/17  01:59:00  BASE  8.4378   327  10.1018  323  -1.2  100   -1.2  0     0     984.8    NA       0.0000   9999     6230  0     0    
2019/06/17  02:00:00  BASE  8.85528  326  10.2841  321  -1.2  100   -1.2  0     0     984.7    NA       0.0000   9999     1480  0     0    
2019/06/17  02:01:00  BASE  9.57264  325  10.437   324  -1.2  100   -1.2  0     0     984.7    NA       0.0000   9999     1800  2300  0    
2019/06/17  02:02:00  BASE  9.94896  326  10.831   323  -1.2  100   -1.2  0     0     984.7    NA       0.0000   9999     1410  0     0    
2019/06/17  02:03:00  BASE  9.6138   329  10.831   323  -1.2  100   -1.2  0     0     984.7    NA       0.0000   9999     1480  5840  0    
2019/06/17  02:04:00  BASE  9.19044  329  10.831   323  -1.2  100   -1.2  0     0     984.7    NA       0.0000   9999     1380  0     0    
2019/06/17  02:05:00  BASE  9.1728   328  10.831   323  -1.2  100   -1.2  0     0     984.8    NA       0.0000   9999     1380  2070  0    
2019/06/17  02:06:00  BASE  8.9082   327  10.831   323  -1.2  100   -1.2  0     0     984.8    NA       0.0000   9999     1150  0     0    
2019/06/17  02:07:00  BASE  8.52012  328  10.831   323  -1.2  100   -1.2  0     0     984.9    NA       0.0000   9999     1150  0     0    
2019/06/17  02:08:00  BASE  8.80824  330  10.831   323  -1.2  100   -1.2  0     0     984.8    NA       0.0000   9999     1150  0     0    
2019/06/17  02:09:00  BASE  9.65496  331  10.831   323  -1.2  100   -1.2  0     0     984.8    NA       0.0000   9999     1180  0     0    
2019/06/17  02:10:00  BASE  9.996    330  10.831   323  -1.2  100   -1.2  0     0     984.8    NA       0.0000   9999     1180  0     0    
2019/06/17  02:11:00  BASE  10.3312  329  11.613   322  -1.2  100   -1.2  0     0     984.7    NA       0.0000   9999     1120  0     0    
2019/06/17  02:12:00  BASE  10.3782  327  11.613   322  -1.1  100   -1.1  0     0     984.8    NA       0.0000   9999     1210  2200  0    
2019/06/17  02:13:00  BASE  9.99012  326  11.613   322  -1.1  100   -1.1  0     0     984.8    NA       0.0000   9999     1050  0     0    
2019/06/17  02:14:00  BASE  10.3194  326  11.8894  323  -1.1  100   -1.1  0     0     984.8    NA       0.0000   9999     1080  0     0    
2019/06/17  02:15:00  BASE  10.8368  324  11.8894  323  -1.1  100   -1.1  0     0     984.8    NA       0.0000   9999     1080  0     0    
2019/06/17  02:16:00  BASE  9.9372   322  11.8894  323  -1.1  100   -1.1  0     0     985.0    NA       0.0000   9999     1280  2460  0    
2019/06/17  02:17:00  BASE  9.4668   322  11.8894  323  -1.1  100   -1.1  0     0     984.9    NA       0.0000   9999     1080  0     0    
2019/06/17  02:18:00  BASE  10.1665  320  11.8894  323  -1.1  100   -1.1  0     0     984.9    NA       0.0000   9999     1120  0     0    
2019/06/17  02:19:00  BASE  10.0136  320  11.8894  323  -1.1  100   -1.1  0     0     984.9    NA       0.0000   9999     1120  0     0    
2019/06/17  02:20:00  BASE  9.98424  321  11.8894  323  -1.1  100   -1.1  0     0     985.0    NA       0.0000   9999     1310  1840  0    
2019/06/17  02:21:00  BASE  9.60792  319  11.8894  323  -1.1  100   -1.1  0     0     985.1    NA       0.0000   9999     1350  0     0    
2019/06/17  02:22:00  BASE  9.33744  318  11.8894  323  -1.1  100   -1.1  0     0     985.0    NA       0.0000   9999     6530  0     0    
2019/06/17  02:23:00  BASE  9.60204  317  11.8894  323  -1.1  100   -1.1  0     0     985.1    NA       0.0000   9999     1380  0     0    
2019/06/17  02:24:00  BASE  9.41976  316  11.7953  325  -1.1  100   -1.1  0     0     985.1    NA       0.0000   9999     1020  0     0    
2019/06/17  02:25:00  BASE  9.31392  318  11.4366  319  -1.1  100   -1.1  0     0     985.1    NA       0.0000   9999     1280  0     0    
2019/06/17  02:26:00  BASE  9.43152  318  11.4366  319  -1.2  100   -1.2  0     0     985.1    NA       0.0000   9999     1640  0     0    
2019/06/17  02:27:00  BASE  9.40212  318  11.0426  316  -1.2  100   -1.2  0     0     985.2    NA       0.0000   9999     1670  0     0    
2019/06/17  02:28:00  BASE  9.03756  320  11.0132  320  -1.2  100   -1.2  0     0     985.2    NA       0.0000   9999     1480  2130  0    
2019/06/17  02:29:00  BASE  8.98464  320  11.0132  320  -1.2  100   -1.2  0     0     985.1    NA       0.0000   9999     1050  1900  0    
2019/06/17  02:30:00  BASE  8.97288  320  10.831   318  -1.2  100   -1.2  0     0     985.2    NA       0.0000   9999     6630  0     0    
2019/06/17  02:31:00  BASE  8.9082   319  10.831   318  -1.2  100   -1.2  0     0     985.2    NA       0.0000   9999     1280  6560  0    
2019/06/17  02:32:00  BASE  9.63732  318  11.072   323  -1.2  100   -1.2  0     0     985.1    NA       0.0000   9999     6500  0     0    
2019/06/17  02:33:00  BASE  10.0489  317  11.072   323  -1.2  100   -1.2  0     0     985.1    NA       0.0000   9999     6530  0     0    
2019/06/17  02:34:00  BASE  9.33156  317  11.072   323  -1.2  100   -1.2  0     0     985.2    NA       0.0000   9999     6560  0     0    
2019/06/17  02:35:00  BASE  8.64948  321  11.072   323  -1.2  100   -1.2  0     0     985.2    NA       0.0000   9999     6590  0     0    
2019/06/17  02:36:00  BASE  8.66712  323  11.072   323  -1.2  100   -1.2  0     0     985.1    NA       0.0000   9999     1280  6690  0    
2019/06/17  02:37:00  BASE  8.97876  323  11.072   323  -1.2  100   -1.2  0     0     985.1    NA       0.0000   9999     1210  6560  0    
2019/06/17  02:38:00  BASE  9.114    322  11.072   323  -1.2  100   -1.2  0     0     985.1    NA       0.0000   9999     6500  0     0    
2019/06/17  02:39:00  BASE  9.13752  323  11.072   323  -1.3  100   -1.3  0     0     985.1    NA       0.0000   9999     1180  6430  0    
2019/06/17  02:40:00  BASE  9.3198   323  11.072   323  -1.3  100   -1.3  0     0     985.1    NA       0.0000   9999     6530  0     0    
2019/06/17  02:41:00  BASE  9.29628  324  11.072   323  -1.3  100   -1.3  0     0     985.1    NA       0.0000   9999     6530  0     0    
2019/06/17  02:42:00  BASE  9.03168  325  10.5899  313  -1.3  100   -1.3  0     0     985.1    NA       0.0000   9999     6500  0     0    
2019/06/17  02:43:00  BASE  8.7612   324  9.98424  325  -1.3  100   -1.3  0     0     985.1    NA       0.0000   9999     6500  0     0    
2019/06/17  02:44:00  BASE  8.64948  323  9.98424  325  -1.3  100   -1.3  0     0     985.1    NA       0.0000   9999     6500  0     0    
2019/06/17  02:45:00  BASE  8.97876  325  9.98424  325  -1.4  100   -1.4  0     0     985.0    NA       0.0000   9999     6500  0     0    
2019/06/17  02:46:00  BASE  8.86116  325  9.98424  325  -1.4  100   -1.4  0     0     985.1    NA       0.0000   9999     6530  0     0    
2019/06/17  02:47:00  BASE  8.4378   325  9.98424  325  -1.4  100   -1.4  0     0     985.0    NA       0.0000   9999     6400  0     0    
2019/06/17  02:48:00  BASE  8.30844  326  9.98424  325  -1.4  100   -1.4  0     0     985.0    NA       0.0000   9999     6370  0     0    
2019/06/17  02:49:00  BASE  8.24964  325  9.98424  325  -1.4  100   -1.4  0     0     984.9    NA       0.0000   9999     6630  0     0    
2019/06/17  02:50:00  BASE  7.83804  326  9.70788  330  -1.4  100   -1.4  0     0     985.0    NA       0.0000   9999     6790  0     0    
2019/06/17  02:51:00  BASE  7.59108  328  9.67848  322  -1.4  100   -1.4  0     0     984.9    NA       0.0000   9999     6590  0     0    
2019/06/17  02:52:00  BASE  7.82628  328  9.67848  322  -1.4  100   -1.4  0     0     984.9    NA       0.0000   9999     7550  0     0    
2019/06/17  02:53:00  BASE  7.52052  328  9.67848  322  -1.4  100   -1.4  0     0     984.9    NA       0.0000   9999     7450  0     0    
2019/06/17  02:54:00  BASE  7.45584  327  9.67848  322  -1.4  100   -1.4  0     0     984.9    NA       0.0000   9999     7480  0     0    
2019/06/17  02:55:00  BASE  7.69692  326  9.31392  336  -1.4  100   -1.4  0     0     984.9    NA       0.0000   9999     7120  0     0    
2019/06/17  02:56:00  BASE  7.49112  329  9.13752  322  -1.4  100   -1.4  0     0     984.9    NA       0.0000   9999     6400  0     0    
2019/06/17  02:57:00  BASE  7.50876  332  8.77296  324  -1.4  100   -1.4  0     0     984.9    NA       0.0000   9999     6300  0     0    
2019/06/17  02:58:00  BASE  7.7028   333  8.77296  324  -1.4  100   -1.4  0     0     984.8    NA       0.0000   9999     7320  0     0    
2019/06/17  02:59:00  BASE  7.94976  333  8.89056  333  -1.4  100   -1.4  0     0     984.8    NA       0.0000   9999     7320  0     0    
2019/06/17  03:00:00  BASE  8.06148  333  8.89056  333  -1.4  100   -1.4  0     0     984.9    NA       0.0000   9999     7320  0     0    
2019/06/17  03:01:00  BASE  8.085    332  8.89056  333  -1.4  100   -1.4  0     0     984.9    NA       0.0000   9999     7280  0     0    
2019/06/17  03:02:00  BASE  8.12028  330  8.89056  333  -1.4  100   -1.4  0     0     984.9    NA       0.0000   9999     7190  0     0    
2019/06/17  03:03:00  BASE  8.06736  331  8.89056  333  -1.4  100   -1.4  0     0     984.9    NA       0.0000   9999     7190  0     0    
2019/06/17  03:04:00  BASE  8.22024  332  8.89056  333  -1.4  100   -1.4  0     0     984.9    NA       0.0000   9999     7380  0     0    
2019/06/17  03:05:00  BASE  8.0262   333  8.89056  333  -1.4  100   -1.4  0     0     985.0    NA       0.0000   9999     7020  0     0    
2019/06/17  03:06:00  BASE  7.97328  333  8.92584  334  -1.4  100   -1.4  0     0     984.9    NA       0.0000   9999     7320  0     0    
2019/06/17  03:07:00  BASE  8.29668  332  8.95524  333  -1.4  100   -1.4  0     0     984.9    NA       0.0000   9999     6200  7090  0    
2019/06/17  03:08:00  BASE  8.30844  332  8.98464  327  -1.4  100   -1.4  0     0     984.9    NA       0.0000   9999     6790  0     0    
2019/06/17  03:09:00  BASE  8.48484  333  9.13752  330  -1.4  100   -1.4  0     0     984.8    NA       0.0000   9999     7940  0     0    
2019/06/17  03:10:00  BASE  8.4672   333  9.13752  330  -1.4  100   -1.4  0     0     984.9    NA       0.0000   9999     5970  6560  0    
2019/06/17  03:11:00  BASE  8.44956  331  9.13752  330  -1.4  100   -1.4  0     0     984.8    NA       0.0000   9999     6230  0     0    
2019/06/17  03:12:00  BASE  8.44956  331  9.13752  330  -1.4  100   -1.4  0     0     984.8    NA       0.0000   9999     5610  0     0    
2019/06/17  03:13:00  BASE  8.0262   333  9.13752  330  -1.4  100   -1.4  0     0     984.8    NA       0.0000   9999     6270  0     0    
2019/06/17  03:14:00  BASE  8.1144   333  9.13752  330  -1.4  100   -1.4  0     0     984.8    NA       0.0000   9999     6790  0     0    
2019/06/17  03:15:00  BASE  8.57304  335  9.74316  333  -1.4  100   -1.4  0     0     984.8    NA       0.0000   9999     6590  0     0    
2019/06/17  03:16:00  BASE  8.95524  334  9.74316  333  -1.4  100   -1.4  0     0     984.8    NA       0.0000   9999     6000  0     0    
2019/06/17  03:17:00  BASE  9.18456  335  10.2547  334  -1.4  100   -1.4  0     0     984.7    NA       0.0000   9999     0     0     0    
2019/06/17  03:18:00  BASE  9.14928  335  10.2547  334  -1.4  100   -1.4  0     0     984.8    NA       0.0000   9999     0     0     0    
2019/06/17  03:19:00  BASE  8.87292  334  10.2547  334  -1.4  100   -1.4  0     0     984.8    NA       0.0000   9999     0     0     0    
2019/06/17  03:20:00  BASE  8.6142   333  10.2547  334  -1.4  100   -1.4  0     0     984.7    NA       0.0000   9999     5610  0     0    
2019/06/17  03:21:00  BASE  8.6436   331  10.2547  334  -1.4  100   -1.4  0     0     984.7    NA       0.0000   9999     0     0     0    
2019/06/17  03:22:00  BASE  8.87292  331  10.2547  334  -1.4  100   -1.4  0     0     984.7    NA       0.0000   9999     0     0     0    
2019/06/17  03:23:00  BASE  8.36136  334  10.2547  334  -1.4  100   -1.4  0     0     984.7    NA       0.0000   9999     0     0     0    
2019/06/17  03:24:00  BASE  8.13792  335  10.2547  334  -1.4  100   -1.4  0     0     984.7    NA       0.0000   9999     0     0     0    
2019/06/17  03:25:00  BASE  8.59656  335  10.2547  334  -1.4  100   -1.4  0     0     984.8    NA       0.0000   9999     0     0     0    
2019/06/17  03:26:00  BASE  8.94348  335  10.2547  334  -1.4  100   -1.4  0     0     984.7    NA       0.0000   9999     0     0     0    
2019/06/17  03:27:00  BASE  9.85488  332  11.8247  332  -1.4  100   -1.4  0     0     984.7    NA       0.0000   9999     0     0     0    
2019/06/17  03:28:00  BASE  10.4194  333  11.8247  332  -1.4  100   -1.4  0     0     984.7    NA       0.0000   9999     0     0     0    
2019/06/17  03:29:00  BASE  10.4546  331  11.86    335  -1.4  100   -1.4  0     0     984.7    NA       0.0000   9999     0     0     0    
2019/06/17  03:30:00  BASE  10.6134  330  11.86    335  -1.4  100   -1.4  0     0     984.7    NA       0.0000   9999     0     0     0    
2019/06/17  03:31:00  BASE  10.6134  331  11.86    335  -1.4  100   -1.4  0     0     984.8    NA       0.0000   9999     0     0     0    
2019/06/17  03:32:00  BASE  10.3076  333  11.86    335  -1.4  100   -1.4  0     0     984.8    NA       0.0000   9999     0     0     0    
2019/06/17  03:33:00  BASE  9.99012  334  11.86    335  -1.4  100   -1.4  0     0     984.8    NA       0.0000   9999     0     0     0    
2019/06/17  03:34:00  BASE  9.94308  333  11.86    335  -1.4  100   -1.4  0     0     984.8    NA       0.0000   9999     0     0     0    
2019/06/17  03:35:00  BASE  10.0019  332  11.86    335  -1.3  100   -1.3  0     0     984.8    NA       0.0000   9999     0     0     0    
2019/06/17  03:36:00  BASE  9.7608   333  11.86    335  -1.3  100   -1.3  0     0     984.9    NA       0.0000   9999     0     0     0    
2019/06/17  03:37:00  BASE  9.42564  333  11.86    335  -1.3  100   -1.3  0     0     984.9    NA       0.0000   9999     0     0     0    
2019/06/17  03:38:00  BASE  9.43152  332  11.86    335  -1.3  100   -1.3  0     0     984.9    NA       0.0000   9999     0     0     0    
2019/06/17  03:39:00  BASE  9.34332  333  11.3131  335  -1.3  100   -1.3  0     0     984.9    NA       0.0000   9999     0     0     0    
2019/06/17  03:40:00  BASE  9.14928  336  11.3131  335  -1.3  100   -1.3  0     0     984.9    NA       0.0000   9999     0     0     0    
2019/06/17  03:41:00  BASE  9.14928  338  10.7075  321  -1.3  100   -1.3  0     0     984.9    NA       0.0000   9999     0     0     0    
2019/06/17  03:42:00  BASE  9.45504  340  10.7075  321  -1.3  100   -1.3  0     0     984.9    NA       0.0000   9999     0     0     0    
2019/06/17  03:43:00  BASE  9.702    341  10.7075  321  -1.4  100   -1.4  0     0     984.8    NA       0.0000   9999     1570  0     0    
2019/06/17  03:44:00  BASE  9.73728  341  10.7075  321  -1.4  100   -1.4  0     0     984.8    NA       0.0000   9999     1380  0     0    
2019/06/17  03:45:00  BASE  9.69024  340  10.7075  321  -1.4  100   -1.4  0     0     984.8    NA       0.0000   9999     0     0     0    
2019/06/17  03:46:00  BASE  9.71376  340  10.7075  321  -1.4  100   -1.4  0     0     984.8    NA       0.0000   9999     0     0     0    
2019/06/17  03:47:00  BASE  9.89016  339  10.7075  338  -1.4  100   -1.4  0     0     984.8    NA       0.0000   9999     0     0     0    
2019/06/17  03:48:00  BASE  9.7902   339  10.7075  338  -1.4  100   -1.4  0     0     984.8    NA       0.0000   9999     0     0     0    
2019/06/17  03:49:00  BASE  9.76668  339  10.8898  341  -1.4  100   -1.4  0     0     984.8    NA       0.0000   9999     0     0     0    
2019/06/17  03:50:00  BASE  9.63732  337  10.8898  341  -1.4  100   -1.4  0     0     984.9    NA       0.0000   9999     0     0     0    
2019/06/17  03:51:00  BASE  9.16692  335  10.8898  341  -1.3  100   -1.3  0     0     985.0    NA       0.0000   9999     0     0     0    
2019/06/17  03:52:00  BASE  9.36684  332  10.8898  341  -1.3  100   -1.3  0     0     985.0    NA       0.0000   9999     0     0     0    
2019/06/17  03:53:00  BASE  9.71964  331  10.8898  341  -1.3  100   -1.3  0     0     985.1    NA       0.0000   9999     0     0     0    
2019/06/17  03:54:00  BASE  9.85488  332  10.8898  341  -1.4  100   -1.4  0     0     985.0    NA       0.0000   9999     0     0     0    
2019/06/17  03:55:00  BASE  9.31392  331  10.8898  341  -1.4  100   -1.4  0     0     985.1    NA       0.0000   9999     0     0     0    
2019/06/17  03:56:00  BASE  8.6142   330  10.8898  341  -1.4  100   -1.4  0     0     985.1    NA       0.0000   9999     6230  0     0    
2019/06/17  03:57:00  BASE  8.38488  331  10.8898  341  -1.4  100   -1.4  0     0     985.1    NA       0.0000   9999     2230  0     0    
2019/06/17  03:58:00  BASE  8.22612  332  10.8898  341  -1.4  100   -1.4  0     0     985.2    NA       0.0000   9999     390   0     0    
2019/06/17  03:59:00  BASE  8.526    331  10.831   328  -1.4  100   -1.4  0     0     985.1    NA       0.0000   9999     3150  0     0    
2019/06/17  04:00:00  BASE  8.4672   331  10.831   328  -1.4  100   -1.4  0     0     985.1    NA       0.0000   9999     5810  0     0    
2019/06/17  04:01:00  BASE  8.37312  330  10.831   328  -1.4  100   -1.4  0     0     985.0    NA       0.0000   9999     0     0     0    
2019/06/17  04:02:00  BASE  8.2614   330  10.437   333  -1.4  100   -1.4  0     0     985.1    NA       0.0000   9999     0     0     0    
2019/06/17  04:03:00  BASE  8.29668  333  10.437   333  -1.4  100   -1.4  0     0     985.0    NA       0.0000   9999     0     0     0    
2019/06/17  04:04:00  BASE  8.91996  333  9.67848  328  -1.4  100   -1.4  0     0     985.0    NA       0.0000   9999     4950  0     0    
2019/06/17  04:05:00  BASE  9.41388  330  10.2547  333  -1.4  100   -1.4  0     0     985.0    NA       0.0000   9999     4720  0     0    
2019/06/17  04:06:00  BASE  9.4374   331  10.2547  333  -1.4  100   -1.4  0     0     985.0    NA       0.0000   9999     4560  0     0    
2019/06/17  04:07:00  BASE  9.03756  333  10.2547  333  -1.4  100   -1.4  0     0     985.0    NA       0.0000   9999     5090  0     0    
2019/06/17  04:08:00  BASE  8.83764  334  10.2547  333  -1.4  100   -1.4  0     0     985.0    NA       0.0000   9999     4170  0     0    
2019/06/17  04:09:00  BASE  8.82     335  10.2547  333  -1.4  100   -1.4  0     0     984.9    NA       0.0000   9999     5450  0     0    
2019/06/17  04:10:00  BASE  8.83764  335  10.2547  333  -1.4  100   -1.4  0     0     984.9    NA       0.0000   9999     0     0     0    
2019/06/17  04:11:00  BASE  8.6142   334  10.2547  333  -1.5  100   -1.5  0     0     985.0    NA       0.0000   9999     5280  0     0    
2019/06/17  04:12:00  BASE  8.36724  334  10.2547  333  -1.5  100   -1.5  0     0     985.0    NA       0.0000   9999     5050  0     0    
2019/06/17  04:13:00  BASE  8.53776  334  10.2547  333  -1.5  100   -1.5  0     0     984.9    NA       0.0000   9999     5020  0     0    
2019/06/17  04:14:00  BASE  9.07872  337  10.4076  341  -1.5  100   -1.5  0     0     984.8    NA       0.0000   9999     0     0     0    
2019/06/17  04:15:00  BASE  9.4668   338  10.4076  341  -1.6  100   -1.6  0     0     984.8    NA       0.0000   9999     4890  0     0    
2019/06/17  04:16:00  BASE  9.56676  336  10.4076  341  -1.6  100   -1.6  0     0     984.8    NA       0.0000   9999     3380  0     0    
2019/06/17  04:17:00  BASE  9.24924  338  10.4076  341  -1.6  100   -1.6  0     0     985.0    NA       0.0000   9999     3310  0     0    
2019/06/17  04:18:00  BASE  8.83176  339  10.4076  341  -1.6  100   -1.6  0     0     985.0    NA       0.0000   9999     3250  5120  0    
2019/06/17  04:19:00  BASE  9.06108  338  10.4076  341  -1.6  100   -1.6  0     0     985.0    NA       0.0000   9999     3150  4040  5020 
2019/06/17  04:20:00  BASE  8.9376   337  10.4076  341  -1.6  100   -1.6  0     0     985.0    NA       0.0000   9999     3120  0     0    
2019/06/17  04:21:00  BASE  8.4966   337  10.4076  341  -1.6  100   -1.6  0     0     985.1    NA       0.0000   9999     3080  0     0    
2019/06/17  04:22:00  BASE  8.74944  340  10.4664  345  -1.6  100   -1.6  0     0     985.0    NA       0.0000   9999     3080  0     0    
2019/06/17  04:23:00  BASE  8.70828  339  10.4664  345  -1.6  100   -1.6  0     0     985.0    NA       0.0000   9999     2990  0     0    
2019/06/17  04:24:00  BASE  8.19672  338  10.4664  345  -1.6  100   -1.6  0     0     985.1    NA       0.0000   9999     2950  0     0    
2019/06/17  04:25:00  BASE  8.67888  339  10.4664  345  -1.6  100   -1.6  0     0     985.0    NA       0.0000   9999     2530  0     0    
2019/06/17  04:26:00  BASE  9.31392  338  10.4664  345  -1.7  100   -1.7  0     0     985.0    NA       0.0000   9999     2230  2760  0    
2019/06/17  04:27:00  BASE  9.4962   338  10.4664  345  -1.7  100   -1.7  0     0     985.0    NA       0.0000   9999     2100  0     0    
2019/06/17  04:28:00  BASE  9.39624  340  10.4664  345  -1.7  100   -1.7  0     0     985.0    NA       0.0000   9999     2030  0     0    
2019/06/17  04:29:00  BASE  8.97876  341  10.4664  345  -1.7  100   -1.7  0     0     985.0    NA       0.0000   9999     4760  0     0    
2019/06/17  04:30:00  BASE  9.06108  345  10.4664  345  -1.7  100   -1.7  0     0     985.0    NA       0.0000   9999     2170  0     0    
2019/06/17  04:31:00  BASE  9.06696  346  10.4664  345  -1.7  100   -1.7  0     0     985.0    NA       0.0000   9999     4720  0     0    
2019/06/17  04:32:00  BASE  9.0846   343  10.0136  339  -1.7  100   -1.7  0     0     984.9    NA       0.0000   9999     7350  0     0    
2019/06/17  04:33:00  BASE  9.12576  344  10.0136  339  -1.7  100   -1.7  0     0     984.9    NA       0.0000   9999     7450  0     0    
2019/06/17  04:34:00  BASE  8.93172  345  10.0136  339  -1.7  100   -1.7  0     0     984.9    NA       0.0000   9999     7280  0     0    
2019/06/17  04:35:00  BASE  8.59068  347  10.0136  339  -1.7  100   -1.7  0     0     984.9    NA       0.0000   9999     7190  0     0    
2019/06/17  04:36:00  BASE  8.085    350  10.0136  339  -1.8  100   -1.8  0     0     985.0    NA       0.0000   9999     7320  0     0    
2019/06/17  04:37:00  BASE  7.97328  351  9.91956  340  -1.8  100   -1.8  0     0     984.9    NA       0.0000   9999     7120  0     0    
2019/06/17  04:38:00  BASE  7.87332  348  9.91956  340  -1.8  100   -1.8  0     0     985.0    NA       0.0000   9999     7020  0     0    
2019/06/17  04:39:00  BASE  7.89096  349  9.91956  340  -1.8  100   -1.8  0     0     985.0    NA       0.0000   9999     6860  0     0    
2019/06/17  04:40:00  BASE  7.7322   348  9.91956  340  -1.8  100   -1.8  0     0     985.0    NA       0.0000   9999     6760  0     0    
2019/06/17  04:41:00  BASE  7.62048  347  9.91956  340  -1.8  100   -1.8  0     0     984.9    NA       0.0000   9999     6270  0     0    
2019/06/17  04:42:00  BASE  7.77924  356  9.83136  347  -1.8  100   -1.8  0     0     984.9    NA       0.0000   9999     6270  0     0    
2019/06/17  04:43:00  BASE  7.6734   355  9.80196  344  -1.8  100   -1.8  0     0     985.0    NA       0.0000   9999     6400  0     0    
2019/06/17  04:44:00  BASE  7.3794   352  8.80236  341  -1.8  100   -1.8  0     0     985.0    NA       0.0000   9999     6370  0     0    
2019/06/17  04:45:00  BASE  7.33236  355  8.80236  341  -1.8  100   -1.8  0     0     984.9    NA       0.0000   9999     6330  0     0    
2019/06/17  04:46:00  BASE  7.203    353  8.80236  341  -1.8  100   -1.8  0     0     984.9    NA       0.0000   9999     6100  0     0    
2019/06/17  04:47:00  BASE  6.9384   349  8.80236  341  -1.8  100   -1.8  0     0     984.9    NA       0.0000   9999     5810  0     0    
2019/06/17  04:48:00  BASE  6.73848  353  8.80236  341  -1.8  100   -1.8  0     0     984.9    NA       0.0000   9999     5770  0     0    
2019/06/17  04:49:00  BASE  7.2618   354  8.80236  352  -1.8  100   -1.8  0     0     984.8    NA       0.0000   9999     5940  6960  0    
2019/06/17  04:50:00  BASE  7.53228  351  8.80236  352  -1.8  100   -1.8  0     0     984.9    NA       0.0000   9999     5810  0     0    
2019/06/17  04:51:00  BASE  7.40292  354  8.80236  352  -1.8  100   -1.8  0     0     984.8    NA       0.0000   9999     6890  0     0    
2019/06/17  04:52:00  BASE  7.7322   357  8.80236  352  -1.8  100   -1.8  0     0     984.8    NA       0.0000   9999     6890  0     0    
2019/06/17  04:53:00  BASE  7.54404  357  8.80236  352  -1.8  100   -1.8  0     0     984.8    NA       0.0000   9999     6730  0     0    
2019/06/17  04:54:00  BASE  7.34412  356  8.80236  352  -1.8  100   -1.8  0     0     984.8    NA       0.0000   9999     5450  0     0    
2019/06/17  04:55:00  BASE  7.33824  351  8.80236  352  -1.8  100   -1.8  0     0     984.8    NA       0.0000   9999     5320  6100  0    
2019/06/17  04:56:00  BASE  7.36176  350  8.80236  352  -1.8  100   -1.8  0     0     984.8    NA       0.0000   9999     6920  0     0    
2019/06/17  04:57:00  BASE  7.45584  355  8.80236  352  -1.8  100   -1.8  0     0     984.8    NA       0.0000   9999     5970  0     0    
2019/06/17  04:58:00  BASE  7.42644  357  8.80236  352  -1.8  100   -1.8  0     0     984.7    NA       0.0000   9999     6990  0     0    
2019/06/17  04:59:00  BASE  7.93212  353  8.92584  355  -1.8  100   -1.8  0     0     984.7    NA       0.0000   9999     5840  7050  0    
2019/06/17  05:00:00  BASE  7.97328  354  8.92584  355  -1.8  100   -1.8  0     0     984.7    NA       0.0000   9999     5350  0     0    
2019/06/17  05:01:00  BASE  7.8792   357  8.92584  355  -1.7  100   -1.7  0     0     984.6    NA       0.0000   9999     5320  0     0    
2019/06/17  05:02:00  BASE  8.72004  354  9.86076  4    -1.7  100   -1.7  0     0     984.6    NA       0.0000   9999     7680  0     0    
2019/06/17  05:03:00  BASE  9.11988  357  9.86076  4    -1.7  100   -1.7  0     0     984.6    NA       0.0000   9999     7910  0     0    
2019/06/17  05:04:00  BASE  9.03168  2    9.86076  4    -1.7  100   -1.7  0     0     984.6    NA       0.0000   9999     7150  0     0    
2019/06/17  05:05:00  BASE  8.80824  357  9.86076  4    -1.7  100   -1.7  0     0     984.6    NA       0.0000   9999     7740  0     0    
2019/06/17  05:06:00  BASE  8.74356  349  9.86076  4    -1.7  100   -1.7  0     0     984.7    NA       0.0000   9999     5150  0     0    
2019/06/17  05:07:00  BASE  8.67888  349  9.95484  325  -1.7  100   -1.7  0     0     984.7    NA       0.0000   9999     4990  0     0    
2019/06/17  05:08:00  BASE  8.42016  349  9.95484  325  -1.7  100   -1.7  0     0     984.7    NA       0.0000   9999     4660  0     0    
2019/06/17  05:09:00  BASE  8.27904  350  9.95484  325  -1.7  100   -1.7  0     0     984.8    NA       0.0000   9999     4690  0     0    
2019/06/17  05:10:00  BASE  8.09088  346  9.95484  325  -1.7  100   -1.7  0     0     984.8    NA       0.0000   9999     4400  5220  0    
2019/06/17  05:11:00  BASE  8.57304  345  10.4664  351  -1.7  100   -1.7  0     0     984.7    NA       0.0000   9999     4360  5150  9480 
2019/06/17  05:12:00  BASE  9.0552   351  10.4664  351  -1.7  100   -1.7  0     0     984.7    NA       0.0000   9999     3310  6230  0    
2019/06/17  05:13:00  BASE  8.54364  353  10.4664  351  -1.7  100   -1.7  0     0     984.8    NA       0.0000   9999     3220  0     0    
2019/06/17  05:14:00  BASE  8.29668  356  10.4664  351  -1.6  100   -1.6  0     0     984.7    NA       0.0000   9999     3080  0     0    
2019/06/17  05:15:00  BASE  8.42016  356  10.4664  351  -1.6  100   -1.6  0     0     984.8    NA       0.0000   9999     3050  0     0    
2019/06/17  05:16:00  BASE  8.45544  357  10.4664  351  -1.6  100   -1.6  0     0     984.7    NA       0.0000   9999     3150  0     0    
2019/06/17  05:17:00  BASE  8.60244  354  10.4664  351  -1.6  100   -1.6  0     0     984.7    NA       0.0000   9999     3080  5480  0    
2019/06/17  05:18:00  BASE  8.52012  350  10.4664  351  -1.6  100   -1.6  0     0     984.7    NA       0.0000   9999     5090  0     0    
2019/06/17  05:19:00  BASE  9.27864  353  10.978   48   -1.6  100   -1.6  0     0     984.5    NA       0.0000   9999     3080  0     0    
2019/06/17  05:20:00  BASE  9.44328  358  10.978   48   -1.6  100   -1.6  0     0     984.6    NA       0.0000   9999     3810  5150  0    
2019/06/17  05:21:00  BASE  9.12576  350  10.978   48   -1.6  100   -1.6  0     0     984.5    NA       0.0000   9999     4950  0     0    
2019/06/17  05:22:00  BASE  9.3786   354  10.978   48   -1.6  100   -1.6  0     0     984.6    NA       0.0000   9999     5180  0     0    
2019/06/17  05:23:00  BASE  8.91408  2    10.978   48   -1.6  100   -1.6  0     0     984.7    NA       0.0000   9999     5250  0     0    
2019/06/17  05:24:00  BASE  8.50248  359  10.978   48   -1.6  100   -1.6  0     0     984.7    NA       0.0000   9999     2300  2950  0    
2019/06/17  05:25:00  BASE  8.46132  358  10.978   48   -1.6  100   -1.6  0     0     984.7    NA       0.0000   9999     5380  0     0    
2019/06/17  05:26:00  BASE  8.2614   357  10.978   48   -1.6  100   -1.6  0     0     984.7    NA       0.0000   9999     4920  5480  0    
2019/06/17  05:27:00  BASE  8.30844  355  10.978   48   -1.6  100   -1.6  0     0     984.7    NA       0.0000   9999     3220  4430  0    
2019/06/17  05:28:00  BASE  8.78472  356  10.978   48   -1.6  100   -1.6  0     0     984.7    NA       0.0000   9999     2260  3580  0    
2019/06/17  05:29:00  BASE  9.06108  352  10.6193  1    -1.6  100   -1.6  0     0     984.7    NA       0.0000   9999     1280  0     0    
2019/06/17  05:30:00  BASE  9.1434   352  10.6193  1    -1.5  100   -1.5  0     0     984.7    NA       0.0000   9999     1510  0     0    
2019/06/17  05:31:00  BASE  8.82588  351  10.6193  1    -1.5  100   -1.5  0     0     984.7    NA       0.0000   9999     430   2000  0    
2019/06/17  05:32:00  BASE  9.06696  347  10.6193  1    -1.5  100   -1.5  0     0     984.7    NA       0.0000   UP       9999  0     0    
2019/06/17  05:33:00  BASE  9.80196  349  10.6193  1    -1.5  100   -1.5  0     0     984.6    NA       0.0000   UP       9999  0     0    
2019/06/17  05:34:00  BASE  9.67848  349  10.6193  1    -1.5  100   -1.5  0     0     984.7    NA       0.0000   UP       9999  0     0    
2019/06/17  05:35:00  BASE  9.28452  349  10.6193  1    -1.5  100   -1.5  0     0     984.7    NA       0.0000   UP       9999  0     0    
2019/06/17  05:36:00  BASE  8.82     350  10.6193  1    -1.5  100   -1.5  0     0     984.8    NA       0.0000   UP       9999  0     0    
2019/06/17  05:37:00  BASE  8.82588  351  10.6193  1    -1.5  100   -1.5  0     0     984.7    NA       0.0000   UP       9999  360   0    
2019/06/17  05:38:01  BASE  8.8788   347  10.5899  346  -1.5  100   -1.5  0     0     984.8    NA       0.0000   UP       9999  0     0    
2019/06/17  05:39:01  BASE  8.7024   347  10.5899  346  -1.5  100   -1.5  0     0     984.7    NA       0.0000   UP       9999  0     0    
2019/06/17  05:40:01  BASE  8.62008  352  10.5899  346  -1.5  100   -1.5  0     0     984.8    NA       0.0000   UP       9999  0     0    
2019/06/17  05:41:01  BASE  8.2614   355  10.5899  346  -1.6  100   -1.6  0     0     984.8    NA       0.0000   UP       9999  0     0    
2019/06/17  05:42:01  BASE  8.71416  357  10.5899  346  -1.6  100   -1.6  0     0     984.8    NA       0.0000   UP       9999  0     0    
2019/06/17  05:43:01  BASE  9.07284  348  10.5899  346  -1.6  100   -1.6  0     0     984.8    NA       0.0000   UP       9999  0     0    
2019/06/17  05:44:01  BASE  8.4084   345  10.1665  346  -1.6  100   -1.6  0     0     984.8    NA       0.0000   UP       9999  0     0    
2019/06/17  05:45:01  BASE  8.33196  348  10.043   355  -1.6  100   -1.6  0     0     984.8    NA       0.0000   UP       9999  0     0    
2019/06/17  05:46:01  BASE  9.03168  349  10.043   355  -1.7  100   -1.7  0     0     984.7    NA       0.0000   UP       9999  0     0    
2019/06/17  05:47:01  BASE  8.74356  348  10.043   355  -1.7  100   -1.7  0     0     984.8    NA       0.0000   UP       9999  0     0    
2019/06/17  05:48:01  BASE  8.232    350  10.043   355  -1.7  100   -1.7  0     0     984.8    NA       0.0000   UP       9999  0     0    
2019/06/17  05:49:01  BASE  8.17908  351  10.043   355  -1.7  100   -1.7  0     0     984.7    NA       0.0000   UP       9999  0     0    
2019/06/17  05:50:01  BASE  7.88508  349  10.043   355  -1.8  100   -1.8  0     0     984.8    NA       0.0000   UP       9999  0     0    
2019/06/17  05:51:01  BASE  7.69692  348  10.043   355  -1.8  100   -1.8  0     0     984.8    NA       0.0000   UP       9999  0     0    
2019/06/17  05:52:01  BASE  8.07324  348  9.77256  345  -1.8  100   -1.8  0     0     984.7    NA       0.0000   UP       9999  330   3670 
2019/06/17  05:53:01  BASE  8.01444  346  9.74316  342  -1.8  100   -1.8  0     0     984.8    NA       0.0000   UP       9999  3640  7510 
2019/06/17  05:54:01  BASE  7.7322   344  9.74316  342  -1.8  100   -1.8  0     0     984.8    NA       0.0000   UP       9999  1310  3640 
2019/06/17  05:55:01  BASE  8.00268  348  9.74316  342  -1.8  100   -1.8  0     0     984.7    NA       0.0000   UP       9999  360   7380 
2019/06/17  05:56:01  BASE  8.1144   349  9.74316  342  -1.8  100   -1.8  0     0     984.7    NA       0.0000   UP       9999  7680  0    
2019/06/17  05:57:01  BASE  8.19672  345  9.61968  348  -1.8  100   -1.8  0     0     984.7    NA       0.0000   UP       9999  4130  8070 
2019/06/17  05:58:01  BASE  8.3202   341  9.70788  331  -1.8  100   -1.8  0     0     984.7    NA       0.0000   9999     950   4070  0    
2019/06/17  05:59:01  BASE  8.8788   329  10.4076  320  -1.7  100   -1.7  0     0     984.7    NA       0.0000   9999     4000  0     0    
2019/06/17  06:00:01  BASE  9.10812  324  10.4076  320  -1.7  100   -1.7  0     0     984.7    NA       0.0000   9999     3900  0     0    
2019/06/17  06:01:01  BASE  8.93172  327  10.4076  320  -1.7  100   -1.7  0     0     984.7    NA       0.0000   9999     3710  0     0    
2019/06/17  06:02:01  BASE  8.95524  328  10.4076  320  -1.6  100   -1.6  0     0     984.6    NA       0.0000   9999     3640  0     0    
2019/06/17  06:03:01  BASE  8.96112  328  10.4076  320  -1.6  100   -1.6  0     0     984.6    NA       0.0000   9999     3640  0     0    
2019/06/17  06:04:01  BASE  8.76708  327  10.4076  320  -1.6  100   -1.6  0     0     984.6    NA       0.0000   9999     3540  0     0    
2019/06/17  06:05:01  BASE  8.53188  328  10.4076  320  -1.6  100   -1.6  0     0     984.6    NA       0.0000   9999     3250  0     0    
2019/06/17  06:06:01  BASE  8.88468  331  10.4076  320  -1.6  100   -1.6  0     0     984.6    NA       0.0000   9999     3380  0     0    
2019/06/17  06:07:01  BASE  8.85528  331  10.4076  320  -1.7  100   -1.7  0     0     984.6    NA       0.0000   9999     3350  7840  0    
2019/06/17  06:08:01  BASE  8.59068  332  10.4076  320  -1.7  100   -1.7  0     0     984.6    NA       0.0000   9999     3250  0     0    
2019/06/17  06:09:01  BASE  8.50836  335  9.77256  331  -1.7  100   -1.7  0     0     984.6    NA       0.0000   9999     3120  0     0    
2019/06/17  06:10:01  BASE  8.50836  338  9.77256  331  -1.7  100   -1.7  0     0     984.5    NA       0.0000   9999     2890  7450  0    
2019/06/17  06:11:10  BASE  9.07872  340  9.77256  331  -1.7  100   -1.7  0     0     984.5    NA       0.0000   9999     7510  0     0    
2019/06/17  06:12:01  BASE  9.2316   341  9.70788  340  -1.8  100   -1.8  0     0     984.5    NA       0.0000   9999     7380  7840  0    
2019/06/17  06:13:01  BASE  8.89644  343  9.70788  342  -1.8  100   -1.8  0     0     984.5    NA       0.0000   9999     7420  7970  0    
2019/06/17  06:14:01  BASE  9.06696  346  9.70788  342  -1.8  100   -1.8  0     0     984.5    NA       0.0000   9999     6990  7480  0    
2019/06/17  06:15:01  BASE  9.2022   348  9.70788  345  -1.8  100   -1.8  0     0     984.5    NA       0.0000   9999     6890  7320  0    
2019/06/17  06:16:01  BASE  8.63772  348  9.70788  345  -1.8  100   -1.8  0     0     984.5    NA       0.0000   9999     6960  0     0    
2019/06/17  06:17:01  BASE  8.1438   348  9.70788  345  -1.9  100   -1.9  0     0     984.5    NA       0.0000   9999     8140  0     0    
2019/06/17  06:18:01  BASE  7.48524  345  9.70788  345  -1.9  100   -1.9  0     0     984.6    NA       0.0000   9999     8400  0     0    
2019/06/17  06:19:01  BASE  7.17948  348  9.70788  345  -1.9  100   -1.9  0     0     984.6    NA       0.0000   9999     8400  0     0    
2019/06/17  06:20:01  BASE  7.82628  351  9.70788  345  -1.9  100   -1.9  0     0     984.5    NA       0.0000   9999     8330  0     0    
2019/06/17  06:21:01  BASE  8.13204  347  9.70788  345  -1.9  100   -1.9  0     0     984.5    NA       0.0000   9999     8200  0     0    
2019/06/17  06:22:01  BASE  8.35548  347  9.70788  345  -1.9  100   -1.9  0     0     984.5    NA       0.0000   9999     8300  0     0    
2019/06/17  06:23:01  BASE  8.97876  349  10.1018  352  -1.9  100   -1.9  0     0     984.5    NA       0.0000   9999     8400  0     0    
2019/06/17  06:24:01  BASE  8.99052  348  10.1018  352  -1.9  100   -1.9  0     0     984.5    NA       0.0000   9999     8400  0     0    
2019/06/17  06:25:01  BASE  8.15556  351  10.1018  352  -1.8  100   -1.8  0     0     984.6    NA       0.0000   9999     8430  0     0    
2019/06/17  06:26:00  BASE  7.60284  353  10.1018  352  -1.8  100   -1.8  0     0     984.6    NA       0.0000   9999     8460  0     0    
2019/06/17  06:27:00  BASE  7.48524  352  10.1018  352  -1.8  100   -1.8  0     0     984.6    NA       0.0000   9999     8460  0     0    
2019/06/17  06:28:01  BASE  8.03796  350  10.1018  352  -1.8  100   -1.8  0     0     984.5    NA       0.0000   9999     8400  0     0    
2019/06/17  06:29:00  BASE  8.3202   351  10.1018  352  -1.8  100   -1.8  0     0     984.6    NA       0.0000   9999     8560  0     0    
2019/06/17  06:30:00  BASE  8.02032  352  10.1018  352  -1.8  100   -1.8  0     0     984.6    NA       0.0000   9999     8600  0     0    
2019/06/17  06:31:00  BASE  8.4378   350  10.1018  352  -1.8  100   -1.8  0     0     984.5    NA       0.0000   9999     8500  0     0    
2019/06/17  06:32:00  BASE  8.88468  349  10.1018  352  -1.8  100   -1.8  0     0     984.5    NA       0.0000   9999     8530  0     0    
2019/06/17  06:33:00  BASE  8.37312  347  9.95484  342  -1.7  100   -1.7  0     0     984.6    NA       0.0000   9999     8530  0     0    
2019/06/17  06:34:01  BASE  7.82628  347  9.95484  342  -1.7  100   -1.7  0     0     984.6    NA       0.0000   9999     8530  0     0    
2019/06/17  06:35:00  BASE  7.89684  345  9.95484  342  -1.7  100   -1.7  0     0     984.7    NA       0.0000   9999     8660  0     0    
2019/06/17  06:36:00  BASE  7.89096  338  9.95484  342  -1.7  100   -1.7  0     0     984.7    NA       0.0000   9999     8660  0     0    
2019/06/17  06:37:00  BASE  7.71456  337  9.95484  342  -1.7  100   -1.7  0     0     984.7    NA       0.0000   9999     8630  0     0    
2019/06/17  06:38:01  BASE  8.1438   336  9.95484  342  -1.7  100   -1.7  0     0     984.7    NA       0.0000   9999     8690  0     0    
2019/06/17  06:39:00  BASE  8.89644  332  9.95484  342  -1.7  100   -1.7  0     0     984.6    NA       0.0000   9999     8860  0     0    
2019/06/17  06:40:00  BASE  9.261    330  10.1959  334  -1.7  100   -1.7  0     0     984.7    NA       0.0000   9999     8830  0     0    
2019/06/17  06:41:00  BASE  9.37272  332  10.1959  334  -1.7  100   -1.7  0     0     984.7    NA       0.0000   9999     4890  8760  0    
2019/06/17  06:42:00  BASE  9.31392  332  10.1959  334  -1.7  100   -1.7  0     0     984.6    NA       0.0000   9999     4560  0     0    
2019/06/17  06:43:00  BASE  9.01992  330  10.1959  334  -1.6  100   -1.6  0     0     984.7    NA       0.0000   9999     4560  0     0    
2019/06/17  06:44:00  BASE  8.8494   331  10.1959  334  -1.6  100   -1.6  0     0     984.6    NA       0.0000   9999     4720  0     0    
2019/06/17  06:45:01  BASE  8.86704  334  10.1959  334  -1.6  100   -1.6  0     0     984.6    NA       0.0000   9999     4760  9320  0    
2019/06/17  06:46:00  BASE  8.5554   335  10.1959  334  -1.6  100   -1.6  0     0     984.6    NA       0.0000   9999     4860  0     0    
2019/06/17  06:47:00  BASE  8.526    334  10.1959  334  -1.6  100   -1.6  0     0     984.6    NA       0.0000   9999     4720  0     0    
2019/06/17  06:48:00  BASE  8.97876  333  10.1959  334  -1.6  100   -1.6  0     0     984.5    NA       0.0000   9999     4070  0     0    
2019/06/17  06:49:00  BASE  8.62008  335  10.1959  334  -1.6  100   -1.6  0     0     984.6    NA       0.0000   9999     4230  0     0    
2019/06/17  06:50:00  BASE  8.20848  335  10.1665  330  -1.6  100   -1.6  0     0     984.6    NA       0.0000   9999     4490  5840  0    
2019/06/17  06:51:00  BASE  8.59068  334  10.1018  330  -1.6  100   -1.6  0     0     984.5    NA       0.0000   9999     4920  0     0    
2019/06/17  06:52:00  BASE  8.04972  335  10.1018  330  -1.6  100   -1.6  0     0     984.6    NA       0.0000   9999     4950  0     0    
2019/06/17  06:53:00  BASE  7.47348  337  10.1018  330  -1.6  100   -1.6  0     0     984.6    NA       0.0000   9999     5280  0     0    
2019/06/17  06:54:00  BASE  7.56168  339  9.80196  331  -1.5  100   -1.5  0     0     984.6    NA       0.0000   9999     5120  0     0    
2019/06/17  06:55:00  BASE  7.8204   339  9.80196  331  -1.5  100   -1.5  0     0     984.5    NA       0.0000   9999     5050  0     0    
2019/06/17  06:56:00  BASE  8.30844  340  9.80196  331  -1.5  100   -1.5  0     0     984.5    NA       0.0000   9999     5090  0     0    
2019/06/17  06:57:00  BASE  8.49072  339  9.80196  331  -1.5  100   -1.5  0     0     984.5    NA       0.0000   9999     4920  0     0    
2019/06/17  06:58:00  BASE  8.48484  338  9.4962   343  -1.5  100   -1.5  0     0     984.5    NA       0.0000   9999     5580  0     0    
2019/06/17  06:59:00  BASE  8.52012  339  9.4962   343  -1.5  100   -1.5  0     0     984.5    NA       0.0000   9999     5680  10890 0    
2019/06/17  07:00:00  BASE  8.4378   340  9.4962   343  -1.5  100   -1.5  0     0     984.5    NA       0.0000   9999     10630 0     0    
2019/06/17  07:01:00  BASE  8.21436  341  9.4962   343  -1.5  100   -1.5  0     0     984.5    NA       0.0000   9999     10660 0     0    
2019/06/17  07:02:00  BASE  7.8792   342  9.4962   343  -1.5  100   -1.5  0     0     984.6    NA       0.0000   9999     6140  0     0    
2019/06/17  07:03:00  BASE  7.72632  343  9.4962   343  -1.5  100   -1.5  0     0     984.6    NA       0.0000   9999     5970  0     0    
2019/06/17  07:04:00  BASE  7.75572  342  9.4962   343  -1.5  100   -1.5  0     0     984.6    NA       0.0000   9999     5680  6230  0    
2019/06/17  07:05:00  BASE  7.6734   339  9.4962   343  -1.5  100   -1.5  0     0     984.6    NA       0.0000   9999     5540  0     0    
2019/06/17  07:06:00  BASE  7.70868  338  9.4962   343  -1.5  100   -1.5  0     0     984.7    NA       0.0000   9999     5350  0     0    
2019/06/17  07:07:00  BASE  8.00856  338  9.4962   343  -1.5  100   -1.5  0     0     984.6    NA       0.0000   9999     5180  0     0    
2019/06/17  07:08:00  BASE  8.57304  338  9.5256   336  -1.5  100   -1.5  0     0     984.6    NA       0.0000   9999     5220  5680  0    
2019/06/17  07:09:00  BASE  8.83176  340  9.5256   336  -1.5  100   -1.5  0     0     984.6    NA       0.0000   9999     4300  4950  0    
2019/06/17  07:10:00  BASE  8.80824  340  9.67848  343  -1.5  100   -1.5  0     0     984.6    NA       0.0000   9999     4130  0     0    
2019/06/17  07:11:00  BASE  8.37312  337  9.67848  343  -1.4  100   -1.4  0     0     984.7    NA       0.0000   9999     4040  0     0    
2019/06/17  07:12:00  BASE  8.1438   335  9.67848  343  -1.4  100   -1.4  0     0     984.6    NA       0.0000   9999     4070  0     0    
2019/06/17  07:13:00  BASE  8.97876  334  10.3135  330  -1.4  100   -1.4  0     0     984.6    NA       0.0000   9999     4040  0     0    
2019/06/17  07:14:00  BASE  9.86076  331  11.0426  326  -1.4  100   -1.4  0     0     984.6    NA       0.0000   9999     3810  0     0    
2019/06/17  07:15:00  BASE  9.65496  327  11.0426  326  -1.4  100   -1.4  0     0     984.7    NA       0.0000   9999     4040  0     0    
2019/06/17  07:16:00  BASE  9.51384  326  11.0426  326  -1.3  100   -1.3  0     0     984.7    NA       0.0000   9999     4040  0     0    
2019/06/17  07:17:00  BASE  9.63144  328  11.0426  326  -1.3  100   -1.3  0     0     984.7    NA       0.0000   9999     4070  0     0    
2019/06/17  07:18:00  BASE  9.4668   325  11.0426  326  -1.3  100   -1.3  0     0     984.7    NA       0.0000   9999     4040  0     0    
2019/06/17  07:19:00  BASE  9.408    320  11.0426  326  -1.2  100   -1.2  0     0     984.8    NA       0.0000   9999     4000  0     0    
2019/06/17  07:20:00  BASE  9.04932  322  11.0426  326  -1.2  100   -1.2  0     0     984.8    NA       0.0000   9999     3970  0     0    
2019/06/17  07:21:00  BASE  8.93172  324  11.0426  326  -1.2  100   -1.2  0     0     984.8    NA       0.0000   9999     3940  0     0    
2019/06/17  07:22:00  BASE  8.8788   321  11.0426  326  -1.2  100   -1.2  0     0     984.8    NA       0.0000   9999     590   0     0    
2019/06/17  07:23:00  BASE  9.39036  320  12.1304  323  -1.2  100   -1.2  0     0     984.7    NA       0.0000   9999     1670  3940  0    
2019/06/17  07:24:00  BASE  9.85488  321  12.1304  323  -1.2  100   -1.2  0     0     984.8    NA       0.0000   9999     3940  0     0    
2019/06/17  07:25:00  BASE  9.47856  319  12.1304  323  -1.2  100   -1.2  0     0     984.8    NA       0.0000   9999     3900  0     0    
2019/06/17  07:26:00  BASE  9.48444  319  12.1304  323  -1.2  100   -1.2  0     0     984.8    NA       0.0000   9999     4000  0     0    
2019/06/17  07:27:00  BASE  9.77844  321  12.1304  323  -1.3  100   -1.3  0     0     984.8    NA       0.0000   9999     1800  0     0    
2019/06/17  07:28:00  BASE  10.0901  320  12.1304  323  -1.3  100   -1.3  0     0     984.8    NA       0.0000   9999     1350  0     0    
2019/06/17  07:29:00  BASE  10.3194  316  12.1304  323  -1.3  100   -1.3  0     0     984.8    NA       0.0000   9999     1480  4230  0    
2019/06/17  07:30:00  BASE  10.2606  314  12.1304  323  -1.2  100   -1.2  0     0     984.8    NA       0.0000   9999     1380  3150  0    
2019/06/17  07:31:00  BASE  10.1606  314  12.1304  323  -1.2  100   -1.2  0     0     984.9    NA       0.0000   9999     1380  0     0    
2019/06/17  07:32:00  BASE  9.849    315  12.1304  323  -1.2  100   -1.2  0     0     984.9    NA       0.0000   9999     1120  0     0    
2019/06/17  07:33:00  BASE  9.95484  312  11.613   314  -1.2  100   -1.2  0     0     984.9    NA       0.0000   9999     390   0     0    
2019/06/17  07:34:00  BASE  10.437   312  11.613   313  -1.3  100   -1.3  0     0     984.9    NA       0.0000   9000     0     0     0    
2019/06/17  07:35:00  BASE  10.2841  315  11.613   313  -1.3  100   -1.3  0     0     984.9    NA       0.0000   9000     360   0     0    
2019/06/17  07:36:00  BASE  9.97836  317  11.613   313  -1.4  100   -1.4  0     0     984.9    NA       0.0000   9999     390   0     0    
2019/06/17  07:37:00  BASE  9.78432  318  11.613   313  -1.5  100   -1.5  0     0     984.9    NA       0.0000   9999     4070  0     0    
2019/06/17  07:38:00  BASE  9.408    319  11.613   313  -1.6  100   -1.6  0     0     984.9    NA       0.0000   9999     3870  0     0    
2019/06/17  07:39:00  BASE  8.86704  320  11.613   313  -1.7  100   -1.7  0     0     985.0    NA       0.0000   9999     0     0     0    
2019/06/17  07:40:00  BASE  8.67888  321  11.613   313  -1.7  100   -1.7  0     0     984.9    NA       0.0000   9999     0     0     0    
2019/06/17  07:41:00  BASE  8.96112  321  11.613   313  -1.8  100   -1.8  0     0     984.9    NA       0.0000   9999     0     0     0    
2019/06/17  07:42:00  BASE  9.06108  320  11.613   313  -1.8  100   -1.8  0     0     985.0    NA       0.0000   9999     0     0     0    
2019/06/17  07:43:00  BASE  8.60244  321  11.613   313  -1.8  100   -1.8  0     0     985.0    NA       0.0000   9999     4950  0     0    
2019/06/17  07:44:00  BASE  7.69104  321  10.6193  318  -1.8  100   -1.8  0     0     985.1    NA       0.0000   9999     5020  0     0    
2019/06/17  07:45:00  BASE  7.62636  318  10.5899  318  -1.7  100   -1.7  0     0     985.1    NA       0.0000   9999     5050  5940  0    
2019/06/17  07:46:00  BASE  8.30256  316  10.3429  317  -1.7  100   -1.7  0     0     985.1    NA       0.0000   9999     5120  6040  0    
2019/06/17  07:47:00  BASE  8.51424  315  10.1665  317  -1.8  100   -1.8  0     0     985.2    NA       0.0000   9999     1640  5320  0    
2019/06/17  07:48:00  BASE  8.43192  313  10.1665  317  -1.8  100   -1.8  0     0     985.2    NA       0.0000   9999     1710  0     0    
2019/06/17  07:49:00  BASE  7.96152  313  10.1665  317  -1.8  100   -1.8  0     0     985.2    NA       0.0000   9999     0     0     0    
2019/06/17  07:50:00  BASE  7.95564  316  10.1665  317  -1.8  100   -1.8  0     0     985.1    NA       0.0000   9999     0     0     0    
2019/06/17  07:51:00  BASE  8.7906   318  9.86076  320  -1.8  100   -1.8  0     0     985.0    NA       0.0000   9999     0     0     0    
2019/06/17  07:52:00  BASE  9.13752  317  10.3782  314  -1.9  100   -1.9  0     0     985.1    NA       0.0000   9999     2920  0     0    
2019/06/17  07:53:00  BASE  9.38448  317  10.3782  314  -1.9  100   -1.9  0     0     985.0    NA       0.0000   9999     2590  0     0    
2019/06/17  07:54:00  BASE  9.03756  319  10.3782  314  -2.0  100   -2.0  0     0     985.1    NA       0.0000   9999     2490  0     0    
2019/06/17  07:55:00  BASE  8.06148  326  10.3782  314  -2.0  100   -2.0  0     0     985.1    NA       0.0000   9999     950   2720  0    
2019/06/17  07:56:00  BASE  8.2614   331  10.3782  314  -2.0  100   -2.0  0     0     985.0    NA       0.0000   9999     2690  7910  0    
2019/06/17  07:57:00  BASE  8.83764  332  10.3782  314  -2.0  100   -2.0  0     0     984.9    NA       0.0000   9999     6430  0     0    
2019/06/17  07:58:00  BASE  8.74356  333  10.3782  314  -2.0  100   -2.0  0     0     984.9    NA       0.0000   9999     6230  0     0    
2019/06/17  07:59:00  BASE  8.59068  333  10.3782  314  -2.0  100   -2.0  0     0     984.9    NA       0.0000   9999     6330  0     0    
2019/06/17  08:00:00  BASE  8.63184  334  10.3782  314  -2.0  100   -2.0  0     0     984.9    NA       0.0000   9999     6000  0     0    
2019/06/17  08:01:00  BASE  8.41428  334  10.3782  314  -2.0  100   -2.0  0     0     984.9    NA       0.0000   9999     5970  0     0    
2019/06/17  08:02:00  BASE  8.38488  337  9.98424  315  -2.0  100   -2.0  0     0     984.9    NA       0.0000   9999     6590  0     0    
2019/06/17  08:03:00  BASE  8.77884  339  10.1959  340  -2.0  100   -2.0  0     0     984.8    NA       0.0000   9999     5870  0     0    
2019/06/17  08:04:00  BASE  8.91408  338  10.1959  340  -2.1  100   -2.1  0     0     984.8    NA       0.0000   9999     5940  0     0    
2019/06/17  08:05:00  BASE  8.76708  339  10.1959  340  -2.1  100   -2.1  0     0     984.9    NA       0.0000   9999     5910  0     0    
2019/06/17  08:06:00  BASE  8.63184  340  10.1959  340  -2.1  100   -2.1  0     0     984.9    NA       0.0000   9999     5710  0     0    
2019/06/17  08:07:00  BASE  8.4966   338  10.1959  340  -2.1  100   -2.1  0     0     984.9    NA       0.0000   9999     5680  0     0    
2019/06/17  08:08:00  BASE  8.37312  338  10.1959  340  -2.1  100   -2.1  0     0     984.9    NA       0.0000   9999     4990  0     0    
2019/06/17  08:09:00  BASE  8.38488  339  10.1959  340  -2.1  100   -2.1  0     0     984.9    NA       0.0000   9999     5640  0     0    
2019/06/17  08:10:00  BASE  8.27904  339  10.1959  340  -2.1  100   -2.1  0     0     984.9    NA       0.0000   9999     5610  0     0    
2019/06/17  08:11:00  BASE  8.00856  341  10.1959  340  -2.1  100   -2.1  0     0     984.9    NA       0.0000   9999     5680  0     0    
2019/06/17  08:12:00  BASE  8.14968  343  10.1959  340  -2.1  100   -2.1  0     0     984.9    NA       0.0000   9999     3810  5540  0    
2019/06/17  08:13:00  BASE  8.232    343  9.22572  336  -2.1  100   -2.1  0     0     984.9    NA       0.0000   9999     5380  0     0    
2019/06/17  08:14:00  BASE  7.71456  342  9.13752  335  -2.1  100   -2.1  0     0     985.0    NA       0.0000   9999     5280  0     0    
2019/06/17  08:15:00  BASE  7.46172  341  8.92584  337  -2.1  100   -2.1  0     0     985.0    NA       0.0000   9999     5220  0     0    
2019/06/17  08:16:00  BASE  7.50288  342  8.92584  337  -2.1  100   -2.1  0     0     985.0    NA       0.0000   9999     3710  5220  0    
2019/06/17  08:17:00  BASE  7.57932  341  8.86116  338  -2.1  100   -2.1  0     0     985.0    NA       0.0000   9999     3580  0     0    
2019/06/17  08:18:00  BASE  7.86156  342  8.86116  338  -2.1  100   -2.1  0     0     984.9    NA       0.0000   9999     5150  0     0    
2019/06/17  08:19:00  BASE  7.791    343  8.83176  339  -2.1  100   -2.1  0     0     984.9    NA       0.0000   9999     5120  0     0    
2019/06/17  08:20:00  BASE  8.0556   344  8.86116  350  -2.2  100   -2.2  0     0     984.8    NA       0.0000   9999     3510  5020  0    
2019/06/17  08:21:00  BASE  8.54952  344  9.25512  348  -2.2  100   -2.2  0     0     984.9    NA       0.0000   9999     3410  0     0    
2019/06/17  08:22:00  BASE  8.76708  343  9.80196  337  -2.1  100   -2.1  0     0     984.8    NA       0.0000   9999     5090  0     0    
2019/06/17  08:23:00  BASE  8.68476  342  9.80196  337  -2.1  100   -2.1  0     0     984.9    NA       0.0000   9999     5050  0     0    
2019/06/17  08:24:00  BASE  8.35548  340  9.80196  337  -2.1  100   -2.1  0     0     984.9    NA       0.0000   9999     3350  4990  0    
2019/06/17  08:25:00  BASE  8.63772  339  9.80196  337  -2.1  100   -2.1  0     0     984.9    NA       0.0000   9999     3280  4790  0    
2019/06/17  08:26:00  BASE  8.86704  339  9.80196  337  -2.1  100   -2.1  0     0     984.9    NA       0.0000   9999     3250  0     0    
2019/06/17  08:27:00  BASE  8.66712  339  9.80196  337  -2.1  100   -2.1  0     0     984.9    NA       0.0000   9999     3310  4590  0    
2019/06/17  08:28:00  BASE  8.85528  341  9.89016  342  -2.1  100   -2.1  0     0     984.9    NA       0.0000   9999     3250  0     0    
2019/06/17  08:29:00  BASE  9.49032  341  10.3429  333  -2.1  100   -2.1  0     0     984.8    NA       0.0000   9999     3310  4660  0    
2019/06/17  08:30:00  BASE  9.44328  337  10.3429  333  -2.1  100   -2.1  0     0     984.8    NA       0.0000   9999     3220  0     0    
2019/06/17  08:31:00  BASE  8.79648  337  10.3429  333  -2.1  100   -2.1  0     0     984.9    NA       0.0000   9999     3180  4460  0    
2019/06/17  08:32:00  BASE  8.8788   339  10.3429  333  -2.0  100   -2.0  0     0     984.8    NA       0.0000   9999     3120  4460  0    
2019/06/17  08:33:00  BASE  8.98464  337  10.3429  333  -2.0  100   -2.0  0     0     984.9    NA       0.0000   9999     3150  4490  0    
2019/06/17  08:34:00  BASE  8.42604  336  10.3429  333  -2.0  100   -2.0  0     0     985.0    NA       0.0000   9999     4660  0     0    
2019/06/17  08:35:00  BASE  8.43192  337  10.3429  333  -2.0  100   -2.0  0     0     984.9    NA       0.0000   9999     4560  0     0    
2019/06/17  08:36:00  BASE  8.70828  340  10.3429  333  -2.0  100   -2.0  0     0     984.9    NA       0.0000   9999     4300  0     0    
2019/06/17  08:37:00  BASE  8.90232  340  10.3429  333  -2.0  100   -2.0  0     0     984.8    NA       0.0000   9999     4590  0     0    
2019/06/17  08:38:00  BASE  9.72552  340  11.7365  348  -2.0  100   -2.0  0     0     984.7    NA       0.0000   9999     4490  0     0    
2019/06/17  08:39:00  BASE  9.89604  338  11.7365  348  -2.0  100   -2.0  0     0     984.8    NA       0.0000   9999     4530  0     0    
2019/06/17  08:40:00  BASE  9.2316   337  11.7365  348  -2.0  100   -2.0  0     0     984.8    NA       0.0000   9999     4560  0     0    
2019/06/17  08:41:00  BASE  9.35508  338  11.7365  348  -2.0  100   -2.0  0     0     984.8    NA       0.0000   9999     4660  0     0    
2019/06/17  08:42:00  BASE  9.76668  338  11.7365  348  -2.0  100   -2.0  0     0     984.8    NA       0.0000   9999     4720  0     0    
2019/06/17  08:43:00  BASE  10.0489  339  11.7365  348  -2.0  100   -2.0  0     0     984.7    NA       0.0000   9999     4720  0     0    
2019/06/17  08:44:00  BASE  10.0136  341  11.7365  348  -2.0  100   -2.0  0     0     984.6    NA       0.0000   9999     4720  0     0    
2019/06/17  08:45:00  BASE  9.408    341  11.7365  348  -2.0  100   -2.0  0     0     984.7    NA       0.0000   9999     6000  0     0    
2019/06/17  08:46:00  BASE  9.39624  340  11.7365  348  -2.0  100   -2.0  0     0     984.6    NA       0.0000   9999     5870  0     0    
2019/06/17  08:47:00  BASE  9.39036  341  11.7365  348  -2.0  100   -2.0  0     0     984.6    NA       0.0000   9999     4990  0     0    
2019/06/17  08:48:00  BASE  9.4962   340  11.1602  341  -2.0  100   -2.0  0     0     984.6    NA       0.0000   9999     4920  0     0    
2019/06/17  08:49:00  BASE  10.1606  340  11.1602  341  -2.0  100   -2.0  0     0     984.5    NA       0.0000   9999     5050  0     0    
2019/06/17  08:50:00  BASE  9.91368  340  11.1602  341  -2.0  100   -2.0  0     0     984.6    NA       0.0000   9999     5120  0     0    
2019/06/17  08:51:00  BASE  9.408    342  11.1602  341  -2.0  100   -2.0  0     0     984.6    NA       0.0000   9999     5250  0     0    
2019/06/17  08:52:00  BASE  8.9376   343  11.1602  341  -1.9  100   -1.9  0     0     984.7    NA       0.0000   9999     5380  0     0    
2019/06/17  08:53:00  BASE  8.91408  345  11.1308  339  -1.9  100   -1.9  0     0     984.6    NA       0.0000   9999     5380  0     0    
2019/06/17  08:54:00  BASE  9.44916  346  11.1308  339  -1.9  100   -1.9  0     0     984.6    NA       0.0000   9999     5450  0     0    
2019/06/17  08:55:00  BASE  9.48444  341  11.1308  339  -1.9  100   -1.9  0     0     984.6    NA       0.0000   9999     5480  0     0    
2019/06/17  08:56:00  BASE  8.967    338  11.1308  339  -1.9  100   -1.9  0     0     984.7    NA       0.0000   9999     5610  0     0    
2019/06/17  08:57:00  BASE  9.12576  342  11.1308  339  -1.9  100   -1.9  0     0     984.5    NA       0.0000   9999     5680  0     0    
2019/06/17  08:58:00  BASE  9.37272  344  11.1308  339  -1.9  100   -1.9  0     0     984.6    NA       0.0000   9999     7150  0     0    
2019/06/17  08:59:00  BASE  8.88468  344  10.2841  344  -1.9  100   -1.9  0     0     984.6    NA       0.0000   9999     6530  0     0    
2019/06/17  09:00:00  BASE  9.22572  345  10.2841  344  -1.9  100   -1.9  0     0     984.6    NA       0.0000   9999     4820  0     0    
2019/06/17  09:01:00  BASE  9.36684  344  10.2841  344  -1.9  100   -1.9  0     0     984.7    NA       0.0000   9999     4720  0     0    
2019/06/17  09:02:00  BASE  8.72004  342  10.2841  344  -1.9  100   -1.9  0     0     984.7    NA       0.0000   9999     4530  0     0    
2019/06/17  09:03:00  BASE  8.50836  340  10.2841  344  -1.9  100   -1.9  0     0     984.6    NA       0.0000   9999     4000  4660  0    
2019/06/17  09:04:00  BASE  8.98464  339  10.2841  344  -1.9  100   -1.9  0     0     984.6    NA       0.0000   9999     3640  0     0    
2019/06/17  09:05:00  BASE  9.35508  338  10.2841  344  -1.9  100   -1.9  0     0     984.6    NA       0.0000   9999     3640  4560  0    
2019/06/17  09:06:00  BASE  9.41976  338  10.5899  341  -1.9  100   -1.9  0     0     984.6    NA       0.0000   9999     3540  0     0    
2019/06/17  09:07:00  BASE  9.7314   339  10.6487  342  -1.9  100   -1.9  0     0     984.6    NA       0.0000   9999     3450  0     0    
2019/06/17  09:08:00  BASE  9.97248  340  10.6487  342  -1.9  100   -1.9  0     0     984.6    NA       0.0000   9999     3540  0     0    
2019/06/17  09:09:00  BASE  10.1077  340  10.8898  339  -1.9  100   -1.9  0     0     984.6    NA       0.0000   9999     1900  3450  0    
2019/06/17  09:10:00  BASE  9.56088  342  10.8898  339  -1.9  100   -1.9  0     0     984.7    NA       0.0000   9999     3280  0     0    
2019/06/17  09:11:00  BASE  9.38448  341  10.8898  339  -1.9  100   -1.9  0     0     984.6    NA       0.0000   9999     3220  0     0    
2019/06/17  09:12:00  BASE  10.3606  335  13.4299  331  -1.8  100   -1.8  0     0     984.5    NA       0.0000   9999     2990  0     0    
2019/06/17  09:13:00  BASE  11.7247  332  13.4299  331  -1.8  100   -1.8  0     0     984.3    NA       0.0000   9999     3050  0     0    
2019/06/17  09:14:00  BASE  11.86    336  13.4299  331  -1.8  100   -1.8  0     0     984.4    NA       0.0000   9999     2890  0     0    
2019/06/17  09:15:00  BASE  10.8662  339  13.4299  331  -1.8  100   -1.8  0     0     984.5    NA       0.0000   9999     2560  0     0    
2019/06/17  09:16:00  BASE  10.5958  340  13.4299  331  -1.8  100   -1.8  0     0     984.5    NA       0.0000   9999     2430  0     0    
2019/06/17  09:17:00  BASE  9.96072  343  13.4299  331  -1.7  100   -1.7  0     0     984.6    NA       0.0000   9999     1840  2620  0    
2019/06/17  09:18:00  BASE  10.2077  343  13.4299  331  -1.7  100   -1.7  0     0     984.4    NA       0.0000   9999     2530  0     0    
2019/06/17  09:19:00  BASE  11.125   343  13.4299  331  -1.7  100   -1.7  0     0     984.4    NA       0.0000   9999     2530  0     0    
2019/06/17  09:20:00  BASE  10.831   341  13.4299  331  -1.7  100   -1.7  0     0     984.5    NA       0.0000   9999     2790  0     0    
2019/06/17  09:21:00  BASE  9.82548  339  13.4299  331  -1.7  100   -1.7  0     0     984.5    NA       0.0000   9999     3020  3810  0    
2019/06/17  09:22:00  BASE  9.408    339  13.3711  332  -1.7  100   -1.7  0     0     984.5    NA       0.0000   9999     2260  3540  0    
2019/06/17  09:23:00  BASE  9.74316  341  12.1304  340  -1.7  100   -1.7  0     0     984.4    NA       0.0000   9999     3540  0     0    
2019/06/17  09:24:00  BASE  9.849    342  12.101   343  -1.7  100   -1.7  0     0     984.5    NA       0.0000   9999     2790  3280  0    
2019/06/17  09:25:00  BASE  10.0783  342  12.101   343  -1.7  100   -1.7  0     0     984.4    NA       0.0000   9999     2430  0     0    
2019/06/17  09:26:00  BASE  10.0783  343  12.101   343  -1.7  100   -1.7  0     0     984.4    NA       0.0000   9999     2070  3450  0    
2019/06/17  09:27:00  BASE  9.75492  344  12.101   343  -1.7  100   -1.7  0     0     984.5    NA       0.0000   9999     460   0     0    
2019/06/17  09:28:00  BASE  9.71376  343  12.101   343  -1.7  100   -1.7  0     0     984.5    NA       0.0000   9999     850   0     0    
2019/06/17  09:29:00  BASE  9.60792  343  11.5542  334  -1.7  100   -1.7  0     0     984.5    NA       0.0000   9999     2130  0     0    
2019/06/17  09:30:00  BASE  9.75492  341  11.4954  343  -1.7  100   -1.7  0     0     984.5    NA       0.0000   9999     2030  2660  0    
2019/06/17  09:31:00  BASE  10.1371  339  11.4954  343  -1.7  100   -1.7  0     0     984.5    NA       0.0000   9999     2000  0     0    
2019/06/17  09:32:00  BASE  10.5017  338  11.6777  335  -1.7  100   -1.7  0     0     984.4    NA       0.0000   9999     1870  2690  0    
2019/06/17  09:33:00  BASE  10.8545  338  11.6777  335  -1.7  100   -1.7  0     0     984.4    NA       0.0000   9999     1800  0     0    
2019/06/17  09:34:00  BASE  10.5605  336  11.6777  335  -1.7  100   -1.7  0     0     984.5    NA       0.0000   9999     2030  0     0    
2019/06/17  09:35:00  BASE  10.7663  332  12.1892  332  -1.7  100   -1.7  0     0     984.4    NA       0.0000   9999     2000  0     0    
2019/06/17  09:36:00  BASE  11.8952  331  13.524   333  -1.7  100   -1.7  0     0     984.2    NA       0.0000   9999     1770  2400  0    
2019/06/17  09:37:00  BASE  11.6836  336  13.524   333  -1.7  100   -1.7  0     0     984.4    NA       0.0000   9999     1740  2820  0    
2019/06/17  09:38:00  BASE  11.1132  339  13.524   333  -1.6  100   -1.6  0     0     984.4    NA       0.0000   9999     1510  0     0    
2019/06/17  09:39:00  BASE  10.7369  335  13.524   333  -1.6  100   -1.6  0     0     984.5    NA       0.0000   9999     1540  2690  0    
2019/06/17  09:40:00  BASE  9.996    335  13.524   333  -1.6  100   -1.6  0     0     984.6    NA       0.0000   9999     1740  2170  0    
2019/06/17  09:41:00  BASE  9.99012  337  13.524   333  -1.6  100   -1.6  0     0     984.5    NA       0.0000   9999     1410  0     0    
2019/06/17  09:42:00  BASE  10.1489  336  13.524   333  -1.6  100   -1.6  0     0     984.5    NA       0.0000   9999     1310  0     0    
2019/06/17  09:43:00  BASE  9.87252  336  13.524   333  -1.6  100   -1.6  0     0     984.6    NA       0.0000   9999     1410  0     0    
2019/06/17  09:44:00  BASE  9.8784   335  13.524   333  -1.6  100   -1.6  0     0     984.5    NA       0.0000   9999     1640  0     0    
2019/06/17  09:45:00  BASE  10.8721  328  14.306   324  -1.6  100   -1.6  0     0     984.4    NA       0.0000   9999     1410  0     0    
2019/06/17  09:46:00  BASE  12.1834  324  14.306   324  -1.6  100   -1.6  0     0     984.4    NA       0.0000   9999     1350  0     0    
2019/06/17  09:47:00  BASE  12.9007  323  14.306   324  -1.5  100   -1.5  0     0     984.3    NA       0.0000   9999     1410  2100  0    
2019/06/17  09:48:00  BASE  12.6361  320  14.306   324  -1.5  100   -1.5  0     0     984.5    NA       0.0000   9999     1410  2660  0    
2019/06/17  09:49:00  BASE  11.6365  315  14.306   324  -1.5  100   -1.5  0     0     984.6    NA       0.0000   9999     2000  2560  0    
2019/06/17  09:50:01  BASE  11.5424  312  14.306   324  -1.5  100   -1.5  0     0     984.6    NA       0.0000   9999     1840  0     0    
2019/06/17  09:51:00  BASE  11.7306  311  14.306   324  -1.5  100   -1.5  0     0     984.6    NA       0.0000   9999     1740  0     0    
2019/06/17  09:52:00  BASE  11.2837  311  14.306   324  -1.5  100   -1.5  0     0     984.7    NA       0.0000   9999     1740  2430  0    
2019/06/17  09:53:00  BASE  11.3308  312  14.306   324  -1.5  100   -1.5  0     0     984.7    NA       0.0000   9999     1900  0     0    
2019/06/17  09:54:00  BASE  11.3778  313  14.306   324  -1.5  100   -1.5  0     0     984.7    NA       0.0000   9999     1710  0     0    
2019/06/17  09:55:00  BASE  11.613   311  14.1884  326  -1.5  100   -1.5  0     0     984.7    NA       0.0000   9999     1710  0     0    
2019/06/17  09:56:00  BASE  11.4778  308  14.1238  319  -1.5  100   -1.5  0     0     984.8    NA       0.0000   9999     1900  2790  0    
2019/06/17  09:57:00  BASE  11.2484  306  13.5534  322  -1.5  100   -1.5  0     0     984.8    NA       0.0000   9999     1640  2890  0    
2019/06/17  09:58:00  BASE  11.5424  305  13.2476  303  -1.5  100   -1.5  0     0     984.8    NA       0.0000   9999     2400  3410  0    
2019/06/17  09:59:00  BASE  11.8658  302  13.2476  303  -1.5  100   -1.5  0     0     984.9    NA       0.0000   9999     1280  0     0    
2019/06/17  10:00:00  BASE  11.4366  292  13.2476  303  -1.6  100   -1.6  0     0     985.1    NA       0.0000   9000     2100  0     0    
2019/06/17  10:01:00  BASE  9.85488  282  13.2476  303  -1.6  100   -1.6  0     0     985.2    NA       0.0000   6000     2030  0     0    
2019/06/17  10:02:00  BASE  9.23748  278  13.2476  303  -1.7  100   -1.7  0     0     985.2    NA       0.0000   UP       7000  1280  0    
2019/06/17  10:03:00  BASE  9.32568  276  13.2476  303  -1.8  100   -1.8  0     0     985.2    NA       0.0000   UP       9999  820   1380 
2019/06/17  10:04:00  BASE  9.20808  278  13.2476  303  -1.9  100   -1.9  0     0     985.2    NA       0.0000   UP       7000  1380  0    
2019/06/17  10:05:00  BASE  9.80196  277  13.2476  303  -2.0  100   -2.0  0     0     985.1    NA       0.0000   UP       BR    4800  300  
2019/06/17  10:06:00  BASE  10.9838  280  13.2476  303  -2.0  100   -2.0  0     0     985.1    NA       0.0000   UP       BR    2400  0    
2019/06/17  10:07:00  BASE  10.9662  285  12.9184  295  -2.1  100   -2.1  0     0     985.1    NA       0.0000   -SN      BR    1700  0    
2019/06/17  10:08:00  BASE  10.7545  285  12.9184  295  -2.2  100   -2.2  0     0     985.1    NA       0.0000   -SN      BR    2000  0    
2019/06/17  10:09:00  BASE  11.3954  287  13.8827  290  -2.2  100   -2.2  0     0     985.0    NA       0.0000   -SN      BR    2400  0    
2019/06/17  10:10:00  BASE  12.4715  290  14.7588  288  -2.3  100   -2.3  0     0     985.0    NA       0.0000   -SN      BR    2200  0    
2019/06/17  10:11:00  BASE  12.7537  291  14.7588  288  -2.3  100   -2.3  0     0     985.0    NA       0.0000   -SN      BR    1700  0    
2019/06/17  10:12:00  BASE  12.1422  295  14.7588  288  -2.3  100   -2.3  0     0     985.0    NA       0.0000   -SN      BR    1600  0    
2019/06/17  10:13:00  BASE  11.9011  297  14.7588  288  -2.3  100   -2.3  0     0     985.0    NA       0.0000   -SN      BR    2200  0    
2019/06/17  10:14:00  BASE  11.7776  303  14.7588  288  -2.3  100   -2.3  0     0     984.9    NA       0.0000   -SN      BR    2900  0    
2019/06/17  10:15:00  BASE  11.7835  304  14.7588  288  -2.3  100   -2.3  0     0     985.0    NA       0.0000   -SN      BR    4400  0    
2019/06/17  10:16:00  BASE  11.6365  298  14.7588  288  -2.3  100   -2.3  0     0     985.0    NA       0.0000   -SN      BR    9999  0    
2019/06/17  10:17:00  BASE  11.6718  296  14.7588  288  -2.3  100   -2.3  0     0     985.1    NA       0.0000   -SN      BR    9000  0    
2019/06/17  10:18:00  BASE  11.513   296  14.7588  288  -2.4  100   -2.4  0     0     985.1    NA       0.0000   -SN      BR    8000  0    
2019/06/17  10:19:00  BASE  10.5487  297  14.7588  288  -2.5  100   -2.5  0     0     985.2    NA       0.0000   -SN      BR    9999  360  
2019/06/17  10:20:00  BASE  9.91956  300  13.8239  306  -2.6  100   -2.6  0     0     985.1    NA       0.0000   -SN      BR    9999  0    
2019/06/17  10:21:00  BASE  9.6432   304  13.8239  306  -2.7  100   -2.7  0     0     985.1    NA       0.0000   -SN      BR    9999  3810 
2019/06/17  10:22:00  BASE  9.27864  304  13.8239  306  -2.7  100   -2.7  0     0     985.1    NA       0.0000   -SN      BR    9999  3740 
2019/06/17  10:23:00  BASE  8.8788   305  13.8239  306  -2.7  100   -2.7  0     0     985.2    NA       0.0000   -SN      BR    9999  3940 
2019/06/17  10:24:00  BASE  8.40252  303  13.8239  306  -2.7  100   -2.7  0     0     985.2    NA       0.0000   -SN      9999  3940  5940 
2019/06/17  10:25:00  BASE  8.30256  301  13.8239  306  -2.6  100   -2.6  0     0     985.2    NA       0.0000   -SN      9999  3870  5640 
2019/06/17  10:26:00  BASE  7.92624  302  13.4005  291  -2.6  100   -2.6  0     0     985.2    NA       0.0000   -SN      9999  3610  5610 
2019/06/17  10:27:00  BASE  7.56756  301  12.3127  294  -2.5  100   -2.5  0     0     985.3    NA       0.0000   -SN      9999  3580  0    
2019/06/17  10:28:00  BASE  8.00268  304  11.1896  292  -2.5  100   -2.5  0     0     985.2    NA       0.0000   -SN      9999  3610  0    
2019/06/17  10:29:00  BASE  8.39076  302  10.6487  303  -2.4  100   -2.4  0     0     985.2    NA       0.0000   9999     3770  4660  0    
2019/06/17  10:30:00  BASE  8.53188  300  10.831   305  -2.4  100   -2.4  0     0     985.2    NA       0.0000   9999     3840  4920  0    
2019/06/17  10:31:00  BASE  8.39664  299  10.831   305  -2.3  100   -2.3  0     0     985.3    NA       0.0000   9999     3810  5020  0    
2019/06/17  10:32:00  BASE  7.90272  295  10.831   305  -2.3  100   -2.3  0     0     985.3    NA       0.0000   9999     3900  5150  0    
2019/06/17  10:33:00  BASE  7.60284  291  10.831   305  -2.2  100   -2.2  0     0     985.3    NA       0.0000   9999     4040  0     0    
2019/06/17  10:34:00  BASE  8.42604  289  10.831   305  -2.2  100   -2.2  0     0     985.2    NA       0.0000   9999     3510  0     0    
2019/06/17  10:35:00  BASE  8.86116  291  10.831   305  -2.1  100   -2.1  0     0     985.2    NA       0.0000   9999     4130  0     0    
2019/06/17  10:36:00  BASE  8.81412  292  10.831   305  -2.1  100   -2.1  0     0     985.2    NA       0.0000   9999     2620  4560  0    
2019/06/17  10:37:00  BASE  8.88468  292  10.831   305  -2.1  100   -2.1  0     0     985.2    NA       0.0000   9999     2950  4430  5180 
2019/06/17  10:38:00  BASE  8.70828  292  10.831   305  -2.0  100   -2.0  0     0     985.3    NA       0.0000   9999     4230  0     0    
2019/06/17  10:39:00  BASE  8.63772  290  10.831   305  -2.0  100   -2.0  0     0     985.3    NA       0.0000   9999     4100  0     0    
2019/06/17  10:40:00  BASE  8.9964   291  10.7663  290  -2.0  100   -2.0  0     0     985.2    NA       0.0000   9999     4040  0     0    
2019/06/17  10:41:00  BASE  9.09636  291  10.7663  290  -2.0  100   -2.0  0     0     985.3    NA       0.0000   9999     3940  0     0    
2019/06/17  10:42:00  BASE  8.74944  288  10.7663  290  -1.9  100   -1.9  0     0     985.3    NA       0.0000   9999     4200  0     0    
2019/06/17  10:43:00  BASE  8.59656  286  10.7663  290  -1.9  100   -1.9  0     0     985.3    NA       0.0000   9999     4040  0     0    
2019/06/17  10:44:00  BASE  8.22612  290  10.3782  290  -1.9  100   -1.9  0     0     985.3    NA       0.0000   9999     4170  0     0    
2019/06/17  10:45:00  BASE  8.0262   293  10.3782  290  -1.9  100   -1.9  0     0     985.3    NA       0.0000   9999     2330  4130  0    
2019/06/17  10:46:00  BASE  7.91448  293  10.3782  290  -1.9  100   -1.9  0     0     985.3    NA       0.0000   9999     2170  0     0    
2019/06/17  10:47:00  BASE  7.41468  293  10.3782  290  -1.9  100   -1.9  0     0     985.4    NA       0.0000   9999     4560  0     0    
2019/06/17  10:48:00  BASE  7.10304  296  10.3429  286  -1.9  100   -1.9  0     0     985.4    NA       0.0000   9999     2070  4660  0    
2019/06/17  10:49:00  BASE  8.1732   300  10.4958  307  -1.9  100   -1.9  0     0     985.3    NA       0.0000   9999     4790  0     0    
2019/06/17  10:50:00  BASE  8.83764  299  10.4958  307  -1.9  100   -1.9  0     0     985.2    NA       0.0000   9999     4890  0     0    
2019/06/17  10:51:00  BASE  8.63184  296  10.4958  307  -1.9  100   -1.9  0     0     985.3    NA       0.0000   9999     4860  0     0    
2019/06/17  10:52:00  BASE  8.63772  297  10.4958  307  -2.0  100   -2.0  0     0     985.3    NA       0.0000   9999     3120  5090  0    
2019/06/17  10:53:00  BASE  8.52012  299  10.4958  307  -2.0  100   -2.0  0     0     985.3    NA       0.0000   9999     3220  5350  0    
2019/06/17  10:54:00  BASE  8.63772  297  10.4958  307  -2.0  100   -2.0  0     0     985.3    NA       0.0000   9999     3310  4040  4590 
2019/06/17  10:55:00  BASE  8.85528  296  10.4958  307  -2.0  99    -2.1  0     0     985.3    NA       0.0000   9999     3180  4170  5640 
2019/06/17  10:56:00  BASE  9.0258   301  10.8016  305  -2.0  99    -2.1  0     0     985.3    NA       0.0000   9999     2990  4040  0    
2019/06/17  10:57:00  BASE  9.39036  302  10.8016  305  -2.0  98    -2.2  0     0     985.2    NA       0.0000   9999     2760  0     0    
2019/06/17  10:58:00  BASE  9.32568  299  10.8016  305  -1.9  98    -2.2  0     0     985.3    NA       0.0000   9999     2660  3710  0    
2019/06/17  10:59:00  BASE  9.15516  298  10.9192  291  -1.9  97    -2.3  0     0     985.3    NA       0.0000   9999     2690  0     0    
2019/06/17  11:00:00  BASE  8.77884  299  10.9192  291  -1.9  97    -2.3  0     0     985.3    NA       0.0000   9999     2950  0     0    
2019/06/17  11:01:01  BASE  8.83176  300  10.9192  291  -1.9  96    -2.4  0     0     985.3    NA       0.0000   9999     4820  0     0    
2019/06/17  11:02:01  BASE  9.35508  297  10.9192  291  -1.9  96    -2.4  0     0     985.3    NA       0.0000   9999     4330  0     0    
2019/06/17  11:03:01  BASE  8.89644  296  10.9192  291  -1.8  96    -2.4  0     0     985.3    NA       0.0000   9999     4400  0     0    
2019/06/17  11:04:01  BASE  9.07284  300  10.9192  291  -1.8  95    -2.5  0     0     985.3    NA       0.0000   9999     4330  0     0    
2019/06/17  11:05:01  BASE  9.80196  300  10.9192  291  -1.8  95    -2.5  0     0     985.3    NA       0.0000   9999     3900  5150  0    
2019/06/17  11:06:01  BASE  9.89604  301  10.9192  291  -1.8  95    -2.5  0     0     985.3    NA       0.0000   9999     2130  5250  0    
2019/06/17  11:07:01  BASE  9.3492   301  10.9192  291  -1.8  95    -2.5  0     0     985.3    NA       0.0000   9999     2130  5580  0    
2019/06/17  11:08:01  BASE  8.84352  298  10.9192  291  -1.8  95    -2.5  0     0     985.3    NA       0.0000   9999     5150  0     0    
2019/06/17  11:09:01  BASE  9.10224  297  10.831   296  -1.8  95    -2.5  0     0     985.2    NA       0.0000   9999     0     0     0    
2019/06/17  11:10:01  BASE  8.83176  297  10.831   296  -1.8  95    -2.5  0     0     985.4    NA       0.0000   9999     5020  0     0    
2019/06/17  11:11:01  BASE  8.6142   298  10.831   296  -1.8  95    -2.5  0     0     985.4    NA       0.0000   9999     4360  5250  0    
2019/06/17  11:12:01  BASE  8.97288  298  10.831   296  -1.8  95    -2.5  0     0     985.3    NA       0.0000   9999     5220  0     0    
2019/06/17  11:13:01  BASE  8.91408  296  10.831   296  -1.8  95    -2.5  0     0     985.4    NA       0.0000   9999     4790  0     0    
2019/06/17  11:14:01  BASE  8.50248  297  10.5899  295  -1.8  95    -2.6  0     0     985.4    NA       0.0000   9999     4820  0     0    
2019/06/17  11:15:01  BASE  8.31432  301  10.5899  295  -1.8  94    -2.6  0     0     985.4    NA       0.0000   9999     4860  0     0    
2019/06/17  11:16:01  BASE  8.0556   302  10.5899  295  -1.9  94    -2.7  0     0     985.4    NA       0.0000   9999     5050  0     0    
2019/06/17  11:17:01  BASE  8.23788  301  10.5899  295  -1.9  94    -2.7  0     0     985.3    NA       0.0000   9999     1900  0     0    
2019/06/17  11:18:01  BASE  8.73768  301  10.5899  295  -1.8  94    -2.7  0     0     985.3    NA       0.0000   9999     2000  0     0    
2019/06/17  11:19:01  BASE  9.03168  303  10.0724  304  -1.8  94    -2.6  0     0     985.3    NA       0.0000   9999     1970  0     0    
2019/06/17  11:20:01  BASE  9.1728   304  10.0724  304  -1.8  94    -2.6  0     0     985.3    NA       0.0000   9999     1900  0     0    
2019/06/17  11:21:01  BASE  8.82     304  10.0724  304  -1.8  95    -2.6  0     0     985.3    NA       0.0000   9999     1800  0     0    
2019/06/17  11:22:01  BASE  8.6142   304  10.0724  304  -1.8  95    -2.5  0     0     985.3    NA       0.0000   9999     1870  0     0    
2019/06/17  11:23:01  BASE  8.10852  302  10.0724  304  -1.8  95    -2.5  0     0     985.4    NA       0.0000   9999     1740  0     0    
2019/06/17  11:24:01  BASE  7.97328  300  10.0724  304  -1.8  95    -2.4  0     0     985.3    NA       0.0000   9999     1840  0     0    
2019/06/17  11:25:01  BASE  7.56756  298  10.0724  304  -1.8  96    -2.4  0     0     985.4    NA       0.0000   9999     1800  2460  0    
2019/06/17  11:26:01  BASE  6.89724  297  10.0724  304  -1.7  96    -2.3  0     0     985.4    NA       0.0000   9999     1640  0     0    
2019/06/17  11:27:01  BASE  7.47936  300  10.0724  304  -1.7  96    -2.2  0     0     985.4    NA       0.0000   9999     1610  0     0    
2019/06/17  11:28:01  BASE  8.2026   299  10.0724  304  -1.7  97    -2.2  0     0     985.4    NA       0.0000   9999     2100  0     0    
2019/06/17  11:29:01  BASE  8.6436   294  10.0136  293  -1.7  97    -2.1  0     0     985.4    NA       0.0000   9999     1770  2400  0    
2019/06/17  11:30:01  BASE  8.41428  292  10.0136  293  -1.7  97    -2.0  0     0     985.4    NA       0.0000   9999     1740  2560  0    
2019/06/17  11:31:01  BASE  7.80276  291  10.0136  293  -1.7  98    -2.0  0     0     985.4    NA       0.0000   9999     1800  0     0    
2019/06/17  11:32:01  BASE  8.1732   290  10.0136  293  -1.7  98    -2.0  0     0     985.4    NA       0.0000   9999     1740  0     0    
2019/06/17  11:33:01  BASE  8.77296  291  10.1018  296  -1.7  98    -2.0  0     0     985.4    NA       0.0000   9999     1710  0     0    
2019/06/17  11:34:01  BASE  9.04344  291  10.1018  296  -1.7  98    -2.0  0     0     985.3    NA       0.0000   9999     2000  0     0    
2019/06/17  11:35:01  BASE  9.06108  290  10.1959  289  -1.7  98    -2.0  0     0     985.3    NA       0.0000   9999     1840  0     0    
2019/06/17  11:36:01  BASE  8.47896  289  10.1959  289  -1.8  99    -2.0  0     0     985.4    NA       0.0000   9999     2460  5480  0    
2019/06/17  11:37:01  BASE  7.89684  287  10.1959  289  -1.8  99    -2.0  0     0     985.4    NA       0.0000   9999     1800  2430  0    
2019/06/17  11:38:01  BASE  7.44996  285  10.1959  289  -1.8  99    -1.9  0     0     985.4    NA       0.0000   9999     1900  2660  0    
2019/06/17  11:39:01  BASE  7.12656  290  10.1959  289  -1.8  99    -1.9  0     0     985.4    NA       0.0000   9999     2760  0     0    
2019/06/17  11:40:01  BASE  7.95564  297  10.1959  301  -1.8  99    -1.9  0     0     985.4    NA       0.0000   9999     3020  0     0    
2019/06/17  11:41:01  BASE  8.75532  294  10.1959  301  -1.8  99    -1.9  0     0     985.4    NA       0.0000   9999     3940  0     0    
2019/06/17  11:42:01  BASE  9.30216  289  11.3131  285  -1.8  99    -1.9  0     0     985.3    NA       0.0000   9999     6400  0     0    
2019/06/17  11:43:01  BASE  9.97836  289  11.3131  285  -1.8  100   -1.9  0     0     984.9    NA       0.0000   9999     2950  5810  0    
2019/06/17  11:44:01  BASE  10.1665  291  11.3131  285  -1.8  100   -1.8  0     0     985.2    NA       0.0000   9999     1800  3050  0    
2019/06/17  11:45:01  BASE  10.4782  292  11.6483  293  -1.8  100   -1.8  0     0     985.4    NA       0.0000   7000     0     0     0    
2019/06/17  11:46:01  BASE  10.3076  295  11.6483  293  -1.9  100   -1.9  0     0     985.4    NA       0.0000   UP       4700  0     0    
2019/06/17  11:47:01  BASE  9.54912  297  11.6483  293  -1.9  100   -1.9  0     0     985.4    NA       0.0000   UP       5000  1440  0    
2019/06/17  11:48:01  BASE  8.96112  298  11.6483  293  -1.9  100   -1.9  0     0     985.5    NA       0.0000   UP       9999  1410  3280 
2019/06/17  11:49:01  BASE  8.95524  298  11.6483  293  -1.9  100   -1.9  0     0     985.5    NA       0.0000   UP       9999  1870  2590 
2019/06/17  11:50:01  BASE  9.18456  294  11.6483  293  -1.9  100   -1.9  0     0     985.5    NA       0.0000   UP       9999  1150  0    
2019/06/17  11:51:01  BASE  9.74904  287  12.248   278  -1.8  100   -1.8  0     0     985.5    NA       0.0000   UP       9999  1410  2170 
2019/06/17  11:52:01  BASE  10.5193  282  12.248   278  -1.8  100   -1.8  0     0     985.5    NA       0.0000   UP       BR    9999  0    
2019/06/17  11:53:01  BASE  10.7251  283  12.248   278  -1.8  100   -1.8  0     0     985.6    NA       0.0000   UP       BR    6000  0    
2019/06/17  11:54:01  BASE  10.4311  284  12.248   278  -1.9  100   -1.9  0     0     985.5    NA       0.0000   UP       BR    3400  0    
2019/06/17  11:55:01  BASE  10.1724  283  12.248   278  -2.0  100   -2.0  0     0     985.6    NA       0.0000   UP       BR    2900  0    
2019/06/17  11:56:01  BASE  9.97248  285  12.248   278  -2.1  100   -2.1  0     0     985.6    NA       0.0000   UP       BR    5000  0    
2019/06/17  11:57:01  BASE  9.15516  287  12.248   278  -2.1  100   -2.1  0     0     985.7    NA       0.0000   UP       BR    9999  0    
2019/06/17  11:58:01  BASE  9.3786   286  12.248   278  -2.2  100   -2.2  0     0     985.7    NA       0.0000   UP       BR    9999  0    
2019/06/17  11:59:01  BASE  9.44916  290  12.248   278  -2.2  100   -2.2  0     0     985.7    NA       0.0000   UP       BR    9999  0    
2019/06/17  12:00:01  BASE  8.59656  291  12.248   278  -2.2  100   -2.2  0     0     985.7    NA       0.0000   UP       BR    9000  0    
2019/06/17  12:01:01  BASE  8.19672  290  11.8247  284  -2.2  100   -2.2  0     0     985.7    NA       0.0000   UP       BR    9000  0    
2019/06/17  12:02:01  BASE  8.64948  294  11.7659  277  -2.1  100   -2.1  0     0     985.7    NA       0.0000   UP       BR    9999  0    
2019/06/17  12:03:01  BASE  9.3786   296  11.4366  282  -2.1  100   -2.1  0     0     985.7    NA       0.0000   UP       BR    9999  0    
2019/06/17  12:04:01  BASE  9.0846   296  11.4366  282  -2.1  100   -2.1  0     0     985.7    NA       0.0000   UP       BR    9999  4430 
2019/06/17  12:05:01  BASE  8.79648  299  11.2837  286  -2.1  100   -2.1  0     0     985.7    NA       0.0000   UP       9999  4360  0    
2019/06/17  12:06:01  BASE  9.09636  300  11.2837  286  -2.1  100   -2.1  0     0     985.7    NA       0.0000   UP       9999  5710  0    
2019/06/17  12:07:01  BASE  9.23748  299  11.2837  286  -2.1  100   -2.1  0     0     985.7    NA       0.0000   UP       9999  3280  0    
2019/06/17  12:08:01  BASE  8.94348  301  11.1602  291  -2.1  100   -2.1  0     0     985.7    NA       0.0000   9999     4200  5250  0    
2019/06/17  12:09:01  BASE  9.13164  302  11.1602  291  -2.1  100   -2.1  0     0     985.7    NA       0.0000   9999     1480  4720  5410 
2019/06/17  12:10:01  BASE  9.12576  302  11.1602  291  -2.1  100   -2.1  0     0     985.7    NA       0.0000   9999     5020  5680  0    
2019/06/17  12:11:01  BASE  8.9376   303  11.1602  291  -2.1  100   -2.1  0     0     985.8    NA       0.0000   9999     3740  4920  0    
2019/06/17  12:12:01  BASE  9.11988  300  10.7075  302  -2.1  100   -2.1  0     0     985.8    NA       0.0000   9999     1570  3450  4070 
2019/06/17  12:13:01  BASE  9.47268  296  10.7075  302  -2.0  100   -2.0  0     0     985.8    NA       0.0000   9999     1480  3870  5450 
2019/06/17  12:14:01  BASE  9.71964  296  10.7075  302  -2.0  100   -2.0  0     0     985.8    NA       0.0000   9999     5410  0     0    
2019/06/17  12:15:01  BASE  9.87252  295  11.2249  295  -2.0  100   -2.0  0     0     985.8    NA       0.0000   9999     2490  5220  0    
2019/06/17  12:16:01  BASE  9.87252  295  11.2249  295  -2.1  100   -2.1  0     0     985.8    NA       0.0000   9999     2590  4230  0    
2019/06/17  12:17:01  BASE  9.68436  296  11.2249  295  -2.1  100   -2.1  0     0     985.8    NA       0.0000   9999     4230  5050  0    
2019/06/17  12:18:01  BASE  9.81372  298  11.2249  295  -2.1  100   -2.1  0     0     985.8    NA       0.0000   9999     1410  0     0    
2019/06/17  12:19:01  BASE  9.88428  301  11.2249  295  -2.0  100   -2.0  0     0     985.7    NA       0.0000   9999     1180  0     0    
2019/06/17  12:20:01  BASE  10.3782  302  12.0716  303  -2.0  100   -2.0  0     0     985.6    NA       0.0000   9999     1410  0     0    
2019/06/17  12:21:01  BASE  10.7604  302  12.0716  303  -2.0  100   -2.0  0     0     985.7    NA       0.0000   UP       6000  260   1440 
2019/06/17  12:22:01  BASE  9.89604  305  12.0716  303  -2.0  100   -2.0  0     0     985.7    NA       0.0000   UP       6000  1900  0    
2019/06/17  12:23:01  BASE  9.83136  308  12.0716  303  -2.0  100   -2.0  0     0     985.6    NA       0.0000   UP       6000  1770  0    
2019/06/17  12:24:01  BASE  10.3606  307  12.0716  303  -2.0  100   -2.0  0     0     985.6    NA       0.0000   UP       BR    6000  1440 
2019/06/17  12:25:01  BASE  10.2547  308  12.0716  303  -2.0  100   -2.0  0     0     985.6    NA       0.0000   UP       BR    8000  1150 
2019/06/17  12:26:01  BASE  10.0019  308  12.0716  303  -2.0  100   -2.0  0     0     985.7    NA       0.0000   UP       BR    8000  0    
2019/06/17  12:27:01  BASE  9.74904  303  12.0716  303  -2.0  100   -2.0  0     0     985.8    NA       0.0000   UP       BR    2500  0    
2019/06/17  12:28:01  BASE  10.0019  302  12.0716  303  -2.1  100   -2.1  0     0     985.7    NA       0.0000   UP       BR    1500  0    
2019/06/17  12:29:01  BASE  10.8956  304  12.1892  302  -2.1  100   -2.1  0     0     985.7    NA       0.0000   UP       BR    1600  0    
2019/06/17  12:30:01  BASE  11.2484  302  12.1892  302  -2.2  100   -2.2  0     0     985.6    NA       0.0000   UP       BR    2100  0    
2019/06/17  12:31:01  BASE  10.3488  301  12.1892  302  -2.2  100   -2.2  0     0     985.8    NA       0.0000   UP       BR    3300  0    
2019/06/17  12:32:01  BASE  9.71964  301  12.1892  302  -2.3  100   -2.3  0     0     985.8    NA       0.0000   UP       BR    6000  0    
2019/06/17  12:33:01  BASE  10.0724  303  12.1892  302  -2.3  100   -2.3  0     0     985.7    NA       0.0000   UP       BR    9999  1540 
2019/06/17  12:34:01  BASE  10.6016  305  12.1892  302  -2.3  100   -2.3  0     0     985.7    NA       0.0000   UP       BR    9999  1510 
2019/06/17  12:35:01  BASE  10.5311  303  12.1892  302  -2.3  100   -2.3  0     0     985.7    NA       0.0000   UP       BR    9999  1310 
2019/06/17  12:36:01  BASE  9.80196  301  12.1892  302  -2.3  100   -2.3  0     0     985.8    NA       0.0000   UP       BR    9999  330  
2019/06/17  12:37:01  BASE  9.2022   300  12.1892  302  -2.3  100   -2.3  0     0     985.8    NA       0.0000   UP       BR    9999  1480 
2019/06/17  12:38:01  BASE  8.967    303  12.1892  302  -2.3  100   -2.3  0     0     985.8    NA       0.0000   UP       BR    9999  1280 
2019/06/17  12:39:01  BASE  9.0258   304  12.1304  306  -2.3  100   -2.3  0     0     985.9    NA       0.0000   UP       BR    9999  1350 
2019/06/17  12:40:01  BASE  9.25512  299  12.1304  306  -2.3  100   -2.3  0     0     985.9    NA       0.0000   UP       BR    9999  1350 
2019/06/17  12:41:01  BASE  9.30804  299  12.1304  306  -2.3  100   -2.3  0     0     985.9    NA       0.0000   UP       9999  1440  0    
2019/06/17  12:42:01  BASE  9.42564  301  12.1304  306  -2.3  100   -2.3  0     0     985.8    NA       0.0000   9999     1350  0     0    
2019/06/17  12:43:01  BASE  9.95484  296  12.1304  306  -2.3  100   -2.3  0     0     985.8    NA       0.0000   UP       9999  1510  0    
2019/06/17  12:44:01  BASE  9.4962   295  11.5248  291  -2.3  100   -2.3  0     0     985.9    NA       0.0000   UP       9999  1510  0    
2019/06/17  12:45:01  BASE  8.52012  295  11.5248  291  -2.3  100   -2.3  0     0     986.0    NA       0.0000   UP       9999  1440  0    
2019/06/17  12:46:01  BASE  8.4378   297  11.5248  291  -2.3  100   -2.3  0     0     986.0    NA       0.0000   9999     1480  0     0    
2019/06/17  12:47:01  BASE  8.085    294  11.5248  291  -2.2  100   -2.2  0     0     986.0    NA       0.0000   9999     1380  0     0    
2019/06/17  12:48:01  BASE  8.3496   290  11.5248  291  -2.2  100   -2.2  0     0     986.0    NA       0.0000   9999     1540  0     0    
2019/06/17  12:49:01  BASE  10.4311  290  13.1888  288  -2.2  100   -2.2  0     0     985.8    NA       0.0000   UP       9999  1310  0    
2019/06/17  12:50:01  BASE  11.76    291  13.4299  288  -2.2  100   -2.2  0     0     985.9    NA       0.0000   UP       9999  330   0    
2019/06/17  12:51:01  BASE  10.9309  292  13.4299  288  -2.2  100   -2.2  0     0     986.0    NA       0.0000   UP       9000  1250  0    
2019/06/17  12:52:01  BASE  10.0489  290  13.4299  288  -2.2  100   -2.2  0     0     986.1    NA       0.0000   UP       9999  1180  0    
2019/06/17  12:53:01  BASE  9.26688  282  13.4299  288  -2.2  100   -2.2  0     0     986.1    NA       0.0000   UP       9999  3510  0    
2019/06/17  12:54:01  BASE  8.94936  277  13.4299  288  -2.1  100   -2.1  0     0     986.1    NA       0.0000   UP       9999  3610  0    
2019/06/17  12:55:01  BASE  9.62556  280  13.4299  288  -2.1  100   -2.1  0     0     986.0    NA       0.0000   UP       9999  1670  3710 
2019/06/17  12:56:01  BASE  9.51384  279  13.4299  288  -2.2  100   -2.2  0     0     986.2    NA       0.0000   UP       9999  980   3080 
2019/06/17  12:57:01  BASE  9.33156  283  13.4299  288  -2.2  100   -2.2  0     0     986.1    NA       0.0000   UP       9999  0     0    
2019/06/17  12:58:01  BASE  9.85488  289  13.4299  288  -2.2  100   -2.2  0     0     986.2    NA       0.0000   UP       9999  0     0    
2019/06/17  12:59:01  BASE  9.8196   289  13.4299  288  -2.3  100   -2.3  0     0     986.2    NA       0.0000   UP       9999  0     0    
2019/06/17  13:00:01  BASE  9.19044  291  11.1896  290  -2.3  100   -2.3  0     0     986.2    NA       0.0000   UP       9999  0     0    
2019/06/17  13:01:01  BASE  8.54952  292  11.1896  290  -2.3  100   -2.3  0     0     986.3    NA       0.0000   UP       8000  0     0    
2019/06/17  13:02:01  BASE  8.28492  294  11.1896  290  -2.3  100   -2.3  0     0     986.3    NA       0.0000   UP       6000  3310  4990 
2019/06/17  13:03:01  BASE  8.5848   294  11.1896  290  -2.3  100   -2.3  0     0     986.2    NA       0.0000   UP       9999  2890  4920 
2019/06/17  13:04:01  BASE  8.12028  295  11.1896  290  -2.4  100   -2.4  0     0     986.3    NA       0.0000   UP       9999  2400  0    
2019/06/17  13:05:01  BASE  7.38528  296  11.1896  290  -2.4  100   -2.4  0     0     986.3    NA       0.0000   UP       9999  2690  0    
2019/06/17  13:06:01  BASE  7.27944  297  11.1896  290  -2.4  100   -2.4  0     0     986.3    NA       0.0000   UP       9999  2460  4200 
2019/06/17  13:07:01  BASE  7.3206   299  11.1896  290  -2.4  100   -2.4  0     0     986.4    NA       0.0000   UP       9999  2490  4200 
2019/06/17  13:08:01  BASE  7.80276  301  10.7075  293  -2.4  100   -2.4  0     0     986.3    NA       0.0000   UP       9999  3510  4760 
2019/06/17  13:09:01  BASE  7.95564  300  10.3782  290  -2.4  100   -2.4  0     0     986.3    NA       0.0000   UP       9999  2260  0    
2019/06/17  13:10:01  BASE  7.60284  303  10.3782  290  -2.4  100   -2.4  0     0     986.4    NA       0.0000   UP       9999  2070  0    
2019/06/17  13:11:01  BASE  7.5852   303  10.3782  290  -2.4  100   -2.4  0     0     986.3    NA       0.0000   9999     2070  0     0    
2019/06/17  13:12:01  BASE  7.44996  301  10.3782  290  -2.4  100   -2.4  0     0     986.4    NA       0.0000   9999     360   0     0    
2019/06/17  13:13:01  BASE  7.10304  302  9.19632  302  -2.4  100   -2.4  0     0     986.4    NA       0.0000   UP       9999  0     0    
2019/06/17  13:14:01  BASE  7.05012  304  9.19632  302  -2.3  100   -2.3  0     0     986.4    NA       0.0000   UP       9999  1800  0    
2019/06/17  13:15:01  BASE  7.15596  305  9.19632  302  -2.3  100   -2.3  0     0     986.3    NA       0.0000   UP       9999  1800  0    
2019/06/17  13:16:01  BASE  7.00896  301  9.19632  302  -2.3  100   -2.3  0     0     986.4    NA       0.0000   UP       9999  560   0    
2019/06/17  13:17:01  BASE  7.54404  298  9.4374   294  -2.3  100   -2.3  0     0     986.3    NA       0.0000   UP       8000  360   0    
2019/06/17  13:18:01  BASE  7.9968   295  9.4374   294  -2.3  100   -2.3  0     0     986.3    NA       0.0000   UP       8000  390   0    
2019/06/17  13:19:01  BASE  7.5558   295  9.4374   294  -2.2  100   -2.2  0     0     986.3    NA       0.0000   UP       9000  2170  0    
2019/06/17  13:20:01  BASE  7.59696  298  9.4374   294  -2.2  100   -2.2  0     0     986.3    NA       0.0000   UP       9000  1740  0    
2019/06/17  13:21:01  BASE  7.5558   299  9.4374   294  -2.3  100   -2.3  0     0     986.3    NA       0.0000   UP       9999  1640  0    
2019/06/17  13:22:01  BASE  8.43192  299  11.9482  296  -2.3  100   -2.3  0     0     986.2    NA       0.0000   UP       9999  1640  0    
2019/06/17  13:23:01  BASE  10.7957  294  13.4299  290  -2.2  100   -2.2  0     0     986.1    NA       0.0000   UP       9999  1510  0    
2019/06/17  13:24:01  BASE  11.2661  287  13.4299  290  -2.2  100   -2.2  0     0     986.3    NA       0.0000   UP       9999  1380  2490 
2019/06/17  13:25:01  BASE  10.6957  281  13.4299  290  -2.2  100   -2.2  0     0     986.3    NA       0.0000   UP       9999  2360  0    
2019/06/17  13:26:01  BASE  10.0666  279  13.4299  290  -2.2  100   -2.2  0     0     986.4    NA       0.0000   UP       9999  2460  0    
2019/06/17  13:27:01  BASE  9.09048  281  13.4299  290  -2.2  100   -2.2  0     0     986.4    NA       0.0000   9999     2530  0     0    
2019/06/17  13:28:01  BASE  9.80196  281  13.4299  290  -2.2  100   -2.2  0     0     986.4    NA       0.0000   9999     2230  4230  0    
2019/06/17  13:29:01  BASE  9.38448  285  13.4299  290  -2.3  100   -2.3  0     0     986.4    NA       0.0000   9999     3180  0     0    
2019/06/17  13:30:01  BASE  7.98504  285  13.4299  290  -2.3  100   -2.3  0     0     986.5    NA       0.0000   9999     2660  0     0    
2019/06/17  13:31:01  BASE  8.03796  281  13.4299  290  -2.4  100   -2.4  0     0     986.5    NA       0.0000   9999     2100  0     0    
2019/06/17  13:32:01  BASE  8.2908   279  13.4299  290  -2.4  100   -2.4  0     0     986.6    NA       0.0000   9999     2330  3710  0    
2019/06/17  13:33:01  BASE  8.12616  274  12.2186  276  -2.4  100   -2.4  0     0     986.6    NA       0.0000   9999     430   0     0    
2019/06/17  13:34:01  BASE  8.28492  277  12.2186  276  -2.4  100   -2.4  0     0     986.6    NA       0.0000   UP       8000  0     0    
2019/06/17  13:35:01  BASE  8.09088  280  11.1896  276  -2.4  100   -2.4  0     0     986.6    NA       0.0000   UP       6000  0     0    
2019/06/17  13:36:01  BASE  7.44996  280  11.1896  276  -2.3  100   -2.3  0     0     986.6    NA       0.0000   UP       7000  750   0    
2019/06/17  13:37:01  BASE  7.56756  284  11.1896  276  -2.3  100   -2.3  0     0     986.5    NA       0.0000   UP       9999  1740  0    
2019/06/17  13:38:01  BASE  7.94976  284  9.89016  287  -2.2  100   -2.2  0     0     986.5    NA       0.0000   UP       9999  1670  0    
2019/06/17  13:39:01  BASE  8.38488  284  10.2253  286  -2.2  100   -2.2  0     0     986.5    NA       0.0000   UP       9999  1610  0    
2019/06/17  13:40:01  BASE  8.7318   285  10.2253  286  -2.1  100   -2.1  0     0     986.5    NA       0.0000   UP       9999  1740  0    
2019/06/17  13:41:01  BASE  9.43152  285  11.3131  288  -2.1  100   -2.1  0     0     986.5    NA       0.0000   UP       9999  1740  3350 
2019/06/17  13:42:01  BASE  10.5252  286  11.7953  285  -2.1  100   -2.1  1     0     986.4    NA       0.0000   UP       9999  3310  6230 
2019/06/17  13:43:01  BASE  9.64908  286  11.7953  285  -2.1  100   -2.1  1     0     986.6    NA       0.0000   UP       9999  4660  6370 
2019/06/17  13:44:01  BASE  8.44956  288  11.7953  285  -2.1  100   -2.1  1     0     986.6    NA       0.0000   UP       9999  6430  0    
2019/06/17  13:45:01  BASE  9.71964  292  11.7953  285  -2.2  100   -2.2  1     0     986.4    NA       0.0000   9999     6460  0     0    
2019/06/17  13:46:01  BASE  10.4017  292  11.7953  285  -2.2  100   -2.2  1     0     986.5    NA       0.0000   9999     6500  0     0    
2019/06/17  13:47:01  BASE  9.41976  296  11.7953  285  -2.2  100   -2.2  1     0     986.5    NA       0.0000   9999     6960  0     0    
2019/06/17  13:48:01  BASE  8.99052  297  11.7953  285  -2.2  100   -2.2  1     0     986.5    NA       0.0000   9999     1610  0     0    
2019/06/17  13:49:01  BASE  9.80784  294  11.7953  285  -2.2  100   -2.2  1     0     986.4    NA       0.0000   9999     6960  0     0    
2019/06/17  13:50:01  BASE  10.0607  291  11.7953  285  -2.2  100   -2.2  1     0     986.5    NA       0.0000   9999     6730  0     0    
2019/06/17  13:51:01  BASE  8.91408  288  11.7953  285  -2.2  100   -2.2  1     0     986.6    NA       0.0000   9999     6690  0     0    
2019/06/17  13:52:01  BASE  9.14928  289  11.86    299  -2.2  100   -2.2  1     0     986.5    NA       0.0000   9999     6760  0     0    
2019/06/17  13:53:01  BASE  10.0842  289  11.86    299  -2.2  100   -2.2  1     0     986.5    NA       0.0000   9999     6660  0     0    
2019/06/17  13:54:01  BASE  10.8074  290  12.6126  291  -2.2  100   -2.2  1     0     986.5    NA       0.0000   9000     6690  0     0    
2019/06/17  13:55:01  BASE  10.8251  290  12.6126  291  -2.2  100   -2.2  1     0     986.6    NA       0.0000   9000     6500  0     0    
2019/06/17  13:56:01  BASE  10.1312  290  12.6126  291  -2.2  100   -2.2  1     0     986.6    NA       0.0000   9999     6500  0     0    
2019/06/17  13:57:01  BASE  9.80784  290  12.6126  291  -2.1  100   -2.1  1     0     986.6    NA       0.0000   9999     6330  0     0    
2019/06/17  13:58:01  BASE  9.77844  291  12.6126  291  -2.1  100   -2.1  1     0     986.6    NA       0.0000   9999     6460  0     0    
2019/06/17  13:59:01  BASE  9.97836  292  12.6126  291  -2.1  100   -2.1  1     0     986.6    NA       0.0000   9999     6270  0     0    
2019/06/17  14:00:01  BASE  10.0372  292  12.6126  291  -2.1  100   -2.1  1     0     986.6    NA       0.0000   9999     6500  0     0    
2019/06/17  14:01:01  BASE  9.36096  295  12.6126  291  -2.1  100   -2.1  1     0     986.7    NA       0.0000   9999     1150  6560  0    
2019/06/17  14:02:01  BASE  8.82     298  12.6126  291  -2.2  100   -2.2  1     0     986.7    NA       0.0000   9999     1250  0     0    
2019/06/17  14:03:01  BASE  9.45504  296  12.6126  291  -2.2  100   -2.2  1     0     986.7    NA       0.0000   9999     1150  6460  0    
2019/06/17  14:04:01  BASE  9.67848  294  12.4009  294  -2.2  100   -2.2  1     0     986.7    NA       0.0000   9999     1180  0     0    
2019/06/17  14:05:00  BASE  9.2316   294  11.86    295  -2.3  100   -2.3  1     0     986.7    NA       0.0000   9999     6170  0     0    
2019/06/17  14:06:01  BASE  8.4672   294  10.8604  293  -2.3  100   -2.3  2     0     986.8    NA       0.0000   9999     1280  5810  0    
2019/06/17  14:07:01  BASE  8.49072  295  10.8604  293  -2.3  100   -2.3  2     0     986.8    NA       0.0000   9999     5770  0     0    
2019/06/17  14:08:01  BASE  8.88468  293  10.8604  293  -2.3  100   -2.3  2     0     986.9    NA       0.0000   9999     6140  0     0    
2019/06/17  14:09:01  BASE  8.7906   291  10.8604  293  -2.3  100   -2.3  2     0     986.9    NA       0.0000   9999     6140  0     0    
2019/06/17  14:10:01  BASE  8.48484  292  10.8604  293  -2.3  100   -2.3  2     0     987.0    NA       0.0000   9999     1380  6170  0    
2019/06/17  14:11:01  BASE  8.20848  291  10.8604  293  -2.3  100   -2.3  2     0     987.0    NA       0.0000   9999     6330  0     0    
2019/06/17  14:12:01  BASE  7.75572  291  10.8604  293  -2.3  100   -2.3  2     0     987.1    NA       0.0000   9999     1510  6430  0    
2019/06/17  14:13:01  BASE  7.67928  293  10.4076  293  -2.2  100   -2.2  2     0     987.1    NA       0.0000   9999     6630  0     0    
2019/06/17  14:14:01  BASE  7.9086   293  10.1959  296  -2.2  100   -2.2  2     0     987.0    NA       0.0000   9999     1380  0     0    
2019/06/17  14:15:01  BASE  7.30296  291  10.1018  283  -2.2  100   -2.2  2     0     987.1    NA       0.0000   9999     1380  0     0    
2019/06/17  14:16:01  BASE  7.22064  292  10.1018  283  -2.2  100   -2.2  2     0     987.1    NA       0.0000   9999     1210  2620  0    
2019/06/17  14:17:01  BASE  8.14968  294  10.1018  283  -2.2  100   -2.2  2     0     987.1    NA       0.0000   9999     1380  6400  0    
2019/06/17  14:18:01  BASE  9.03168  292  10.4958  293  -2.2  100   -2.2  2     0     987.1    NA       0.0000   9999     1150  6430  0    
2019/06/17  14:19:01  BASE  8.73768  292  10.4958  293  -2.2  100   -2.2  2     0     987.1    NA       0.0000   9999     1120  2660  0    
2019/06/17  14:20:01  BASE  8.03208  291  10.4958  293  -2.2  100   -2.2  2     0     987.1    NA       0.0000   9999     1410  6760  0    
2019/06/17  14:21:01  BASE  7.97916  290  10.4958  293  -2.2  100   -2.2  2     0     987.2    NA       0.0000   9999     1280  0     0    
2019/06/17  14:22:01  BASE  7.62048  292  10.4958  293  -2.2  100   -2.2  2     0     987.2    NA       0.0000   9999     920   0     0    
2019/06/17  14:23:01  BASE  6.99132  294  10.4958  293  -2.2  100   -2.2  2     0     987.3    NA       0.0000   9999     980   0     0    
2019/06/17  14:24:01  BASE  6.99132  296  10.4958  293  -2.2  100   -2.2  2     0     987.2    NA       0.0000   9999     950   0     0    
2019/06/17  14:25:01  BASE  7.67928  297  10.4958  293  -2.2  100   -2.2  2     0     987.2    NA       0.0000   9999     980   0     0    
2019/06/17  14:26:01  BASE  8.39664  295  10.4958  293  -2.2  100   -2.2  2     0     987.2    NA       0.0000   9999     920   0     0    
2019/06/17  14:27:00  BASE  8.60832  294  10.4958  293  -2.2  100   -2.2  2     0     987.2    NA       0.0000   9999     980   0     0    
2019/06/17  14:28:01  BASE  8.42016  295  9.5256   293  -2.2  100   -2.2  2     0     987.2    NA       0.0000   9999     1250  0     0    
2019/06/17  14:29:00  BASE  8.50836  295  9.89016  294  -2.2  100   -2.2  2     0     987.2    NA       0.0000   9999     1020  0     0    
2019/06/17  14:30:00  BASE  8.06736  295  9.89016  294  -2.2  100   -2.2  2     0     987.3    NA       0.0000   9999     1210  0     0    
2019/06/17  14:31:00  BASE  7.97328  297  9.89016  294  -2.2  100   -2.2  2     0     987.2    NA       0.0000   9999     1150  0     0    
2019/06/17  14:32:01  BASE  8.06736  297  9.89016  294  -2.2  100   -2.2  2     0     987.3    NA       0.0000   9999     1180  0     0    
2019/06/17  14:33:00  BASE  7.42644  297  9.89016  294  -2.2  100   -2.2  2     0     987.3    NA       0.0000   9999     1280  1970  0    
2019/06/17  14:34:01  BASE  7.40292  299  9.89016  294  -2.2  100   -2.2  3     0     987.3    NA       0.0000   9999     1410  0     0    
2019/06/17  14:35:01  BASE  8.13204  300  9.89016  294  -2.2  100   -2.2  3     0     987.2    NA       0.0000   9999     1120  2560  0    
2019/06/17  14:36:00  BASE  8.53776  299  9.89016  294  -2.2  100   -2.2  3     0     987.3    NA       0.0000   9999     2490  0     0    
2019/06/17  14:37:00  BASE  8.02032  298  9.89016  294  -2.2  100   -2.2  3     0     987.3    NA       0.0000   9999     2790  0     0    
2019/06/17  14:38:00  BASE  7.2324   300  9.89016  294  -2.2  100   -2.2  3     0     987.3    NA       0.0000   9999     1350  2850  0    
2019/06/17  14:39:00  BASE  7.20888  301  9.5256   299  -2.1  100   -2.1  4     0     987.3    NA       0.0000   9999     2950  0     0    
2019/06/17  14:40:00  BASE  8.04972  301  9.89016  304  -2.1  100   -2.1  4     0     987.3    NA       0.0000   9999     1440  3020  0    
2019/06/17  14:41:00  BASE  8.64948  300  9.89016  304  -2.1  100   -2.1  4     0     987.3    NA       0.0000   9999     1540  3120  0    
2019/06/17  14:42:00  BASE  8.7318   294  9.89016  304  -2.1  100   -2.1  4     0     987.3    NA       0.0000   9999     3220  0     0    
2019/06/17  14:43:00  BASE  8.86116  291  9.91956  293  -2.1  100   -2.1  4     0     987.3    NA       0.0000   9999     3020  0     0    
2019/06/17  14:44:00  BASE  9.21984  290  10.3429  291  -2.2  100   -2.2  4     0     987.3    NA       0.0000   9999     1540  3480  0    
2019/06/17  14:45:01  BASE  9.114    291  10.3782  297  -2.2  100   -2.2  4     0     987.4    NA       0.0000   9999     2530  0     0    
2019/06/17  14:46:01  BASE  9.04932  292  10.3782  297  -2.2  100   -2.2  4     0     987.4    NA       0.0000   9999     1800  2760  0    
2019/06/17  14:47:00  BASE  8.673    285  10.3782  297  -2.2  100   -2.2  4     0     987.4    NA       0.0000   9999     1770  2820  0    
2019/06/17  14:48:00  BASE  7.53816  282  10.3782  297  -2.2  100   -2.2  4     0     987.5    NA       0.0000   9999     1510  0     0    
2019/06/17  14:49:00  BASE  7.47936  287  10.3782  297  -2.1  100   -2.1  4     0     987.5    NA       0.0000   9999     1840  0     0    
2019/06/17  14:50:00  BASE  8.38488  290  10.3782  297  -2.1  100   -2.1  4     0     987.4    NA       0.0000   9999     1380  0     0    
2019/06/17  14:51:00  BASE  8.8788   291  10.3782  297  -2.1  100   -2.1  4     0     987.4    NA       0.0000   9999     1210  0     0    
2019/06/17  14:52:00  BASE  8.74944  292  10.3782  297  -2.0  100   -2.0  4     0     987.4    NA       0.0000   9999     1210  0     0    
2019/06/17  14:53:00  BASE  7.57344  294  10.3782  297  -2.0  100   -2.0  4     0     987.5    NA       0.0000   9999     1210  0     0    
2019/06/17  14:54:00  BASE  7.03836  298  10.3782  297  -2.0  100   -2.0  4     0     987.5    NA       0.0000   9999     1250  0     0    
2019/06/17  14:55:00  BASE  7.89684  297  9.89016  295  -2.0  100   -2.0  4     0     987.4    NA       0.0000   9000     1480  0     0    
2019/06/17  14:56:01  BASE  8.87292  293  10.6781  292  -2.0  100   -2.0  4     0     987.4    NA       0.0000   9000     1250  0     0    
2019/06/17  14:57:00  BASE  8.74944  291  10.6781  292  -2.0  100   -2.0  4     0     987.4    NA       0.0000   9999     1280  0     0    
2019/06/17  14:58:01  BASE  8.5554   291  10.6781  292  -2.0  100   -2.0  4     0     987.4    NA       0.0000   9999     1610  0     0    
2019/06/17  14:59:00  BASE  8.69064  287  10.6781  292  -2.0  100   -2.0  4     0     987.5    NA       0.0000   9999     2000  2560  3310 
2019/06/17  15:00:00  BASE  9.07284  285  11.1014  297  -2.0  100   -2.0  5     0     987.4    NA       0.0000   9999     2660  3380  0    
2019/06/17  15:01:00  BASE  9.3492   287  11.1014  297  -2.0  100   -2.0  5     0     987.4    NA       0.0000   9999     2950  0     0    
2019/06/17  15:02:00  BASE  9.41976  289  11.1014  297  -2.0  100   -2.0  6     0     987.4    NA       0.0000   9999     3050  0     0    
2019/06/17  15:03:00  BASE  9.67848  288  11.1896  286  -2.0  100   -2.0  6     0     987.4    NA       0.0000   9999     3180  0     0    
2019/06/17  15:04:00  BASE  9.20808  289  11.1896  286  -2.0  100   -2.0  6     0     987.5    NA       0.0000   9999     1410  3380  0    
2019/06/17  15:05:00  BASE  8.59068  290  11.1896  286  -2.0  100   -2.0  7     0     987.5    NA       0.0000   9999     3450  0     0    
2019/06/17  15:06:00  BASE  8.17908  291  11.1896  286  -2.0  100   -2.0  7     0     987.5    NA       0.0000   9999     3640  0     0    
2019/06/17  15:07:00  BASE  9.24924  292  11.4013  292  -2.0  100   -2.0  7     0     987.4    NA       0.0000   9999     3740  0     0    
2019/06/17  15:08:00  BASE  9.2316   292  11.4013  292  -2.0  100   -2.0  7     0     987.5    NA       0.0000   9999     3810  0     0    
2019/06/17  15:09:00  BASE  7.97916  294  11.4013  292  -2.0  100   -2.0  7     0     987.5    NA       0.0000   9999     3840  0     0    
2019/06/17  15:10:00  BASE  8.2614   293  11.4013  292  -2.0  100   -2.0  8     0     987.5    NA       0.0000   9999     1150  3940  0    
2019/06/17  15:11:00  BASE  8.64948  293  11.4013  292  -2.1  100   -2.1  8     0     987.6    NA       0.0000   9999     3940  8370  0    
2019/06/17  15:12:00  BASE  8.38488  295  11.4013  292  -2.1  100   -2.1  8     0     987.6    NA       0.0000   9999     4040  8300  0    
2019/06/17  15:13:00  BASE  7.96152  296  11.4013  292  -2.1  100   -2.1  8     0     987.6    NA       0.0000   9999     8270  0     0    
2019/06/17  15:14:00  BASE  8.00268  297  11.4013  292  -2.1  100   -2.1  8     0     987.6    NA       0.0000   9999     6270  0     0    
2019/06/17  15:15:01  BASE  8.01444  297  11.4013  292  -2.2  100   -2.2  8     0     987.6    NA       0.0000   9999     5970  0     0    
2019/06/17  15:16:00  BASE  8.12028  299  11.4013  292  -2.2  100   -2.2  7     0     987.6    NA       0.0000   9999     5970  0     0    
2019/06/17  15:17:00  BASE  8.29668  299  9.70788  300  -2.2  100   -2.2  7     0     987.6    NA       0.0000   9999     2100  6100  6690 
2019/06/17  15:18:00  BASE  7.77924  297  9.70788  300  -2.2  100   -2.2  8     0     987.7    NA       0.0000   9999     2360  0     0    
2019/06/17  15:19:00  BASE  7.27944  299  9.70788  300  -2.2  100   -2.2  8     0     987.7    NA       0.0000   9999     6200  0     0    
2019/06/17  15:20:01  BASE  6.99132  301  9.70788  300  -2.2  100   -2.2  8     0     987.7    NA       0.0000   9999     8560  0     0    
2019/06/17  15:21:00  BASE  7.10304  303  9.70788  300  -2.2  100   -2.2  9     0     987.7    NA       0.0000   9999     6200  0     0    
2019/06/17  15:22:00  BASE  7.63812  304  9.70788  300  -2.2  100   -2.2  9     0     987.7    NA       0.0000   9999     6270  0     0    
2019/06/17  15:23:00  BASE  7.83804  305  9.70788  300  -2.2  100   -2.2  9     0     987.7    NA       0.0000   9999     6370  0     0    
2019/06/17  15:24:01  BASE  7.60872  304  9.70788  300  -2.2  100   -2.2  9     0     987.7    NA       0.0000   9999     6330  0     0    
2019/06/17  15:25:00  BASE  7.47936  303  9.70788  300  -2.2  100   -2.2  10    0     987.7    NA       0.0000   9999     6330  0     0    
2019/06/17  15:26:00  BASE  7.60872  305  8.98464  302  -2.2  100   -2.2  10    0     987.7    NA       0.0000   9999     6330  0     0    
2019/06/17  15:27:00  BASE  7.47936  308  8.92584  303  -2.2  100   -2.2  10    0     987.8    NA       0.0000   9999     1350  0     0    
2019/06/17  15:28:00  BASE  7.29708  310  8.92584  303  -2.2  100   -2.2  11    0     987.7    NA       0.0000   9999     4200  6460  0    
2019/06/17  15:29:00  BASE  7.49112  310  8.92584  303  -2.1  100   -2.1  11    0     987.7    NA       0.0000   9999     6560  7780  0    
2019/06/17  15:30:00  BASE  7.644    308  9.3786   307  -2.1  100   -2.1  12    0     987.7    NA       0.0000   9999     7840  0     0    
2019/06/17  15:31:00  BASE  7.86156  304  9.3786   307  -2.1  100   -2.1  12    0     987.7    NA       0.0000   9999     7780  0     0    
2019/06/17  15:32:00  BASE  8.09676  303  9.3786   307  -2.1  100   -2.1  11    0     987.7    NA       0.0000   9999     7780  0     0    
2019/06/17  15:33:01  BASE  7.91448  303  9.3786   307  -2.1  100   -2.1  11    0     987.7    NA       0.0000   9999     1280  7810  0    
2019/06/17  15:34:00  BASE  7.41468  302  9.3786   307  -2.1  100   -2.1  10    0     987.8    NA       0.0000   9999     7780  0     0    
2019/06/17  15:35:00  BASE  6.4386   300  9.3786   307  -2.1  100   -2.1  10    0     987.8    NA       0.0000   9999     1640  7780  0    
2019/06/17  15:36:01  BASE  6.52092  301  9.3786   307  -2.1  100   -2.1  9     0     987.8    NA       0.0000   9999     1610  7910  0    
2019/06/17  15:37:00  BASE  6.92076  300  9.3786   307  -2.1  100   -2.1  10    0     987.8    NA       0.0000   9999     1410  0     0    
2019/06/17  15:38:00  BASE  6.97956  296  9.3786   307  -2.0  100   -2.0  10    0     987.8    NA       0.0000   9999     1840  0     0    
2019/06/17  15:39:00  BASE  7.86156  294  9.77256  296  -2.0  100   -2.0  11    0     987.7    NA       0.0000   9999     1480  0     0    
2019/06/17  15:40:01  BASE  7.96152  295  9.77256  296  -2.0  100   -2.0  12    0     987.8    NA       0.0000   9999     1210  1740  0    
2019/06/17  15:41:00  BASE  8.00268  295  9.77256  296  -2.0  100   -2.0  12    0     987.7    NA       0.0000   9999     1610  2720  0    
2019/06/17  15:42:00  BASE  8.71416  293  9.77256  289  -2.0  100   -2.0  11    0     987.7    NA       0.0000   9999     2990  0     0    
2019/06/17  15:43:00  BASE  8.8494   290  10.1665  291  -2.0  100   -2.0  12    0     987.8    NA       0.0000   9999     3940  0     0    
2019/06/17  15:44:00  BASE  8.63184  291  10.3135  293  -2.0  100   -2.0  12    0     987.8    NA       0.0000   9999     1800  3020  0    
2019/06/17  15:45:00  BASE  8.72004  292  10.3135  293  -2.0  100   -2.0  12    0     987.8    NA       0.0000   9999     3640  7810  0    
2019/06/17  15:46:00  BASE  8.94348  292  10.3135  293  -2.0  100   -2.0  12    0     987.8    NA       0.0000   9999     7710  0     0    
2019/06/17  15:47:00  BASE  8.92584  289  10.3135  293  -2.0  100   -2.0  13    0     987.8    NA       0.0000   9999     7640  0     0    
2019/06/17  15:48:00  BASE  9.15516  283  10.5252  285  -2.0  100   -2.0  14    0     987.8    NA       0.0000   9999     7510  0     0    
2019/06/17  15:49:00  BASE  8.54952  285  10.5252  285  -2.0  100   -2.0  14    0     987.9    NA       0.0000   9999     7450  8010  0    
2019/06/17  15:50:01  BASE  8.00268  285  10.5252  285  -2.0  100   -2.0  15    0     987.9    NA       0.0000   9999     7810  0     0    
2019/06/17  15:51:00  BASE  7.7028   284  10.5252  285  -2.0  100   -2.0  15    0     987.9    NA       0.0000   9999     7780  0     0    
2019/06/17  15:52:00  BASE  7.72632  282  10.5252  285  -2.0  100   -2.0  16    0     987.9    NA       0.0000   9999     7780  0     0    
2019/06/17  15:53:01  BASE  9.09636  278  10.5252  285  -2.0  100   -2.0  16    0     987.9    NA       0.0000   9999     7680  0     0    
2019/06/17  15:54:01  BASE  9.30804  277  10.5252  285  -2.0  100   -2.0  16    0     987.9    NA       0.0000   9999     7740  0     0    
2019/06/17  15:55:00  BASE  8.85528  278  10.5252  285  -2.0  100   -2.0  16    0     987.9    NA       0.0000   9999     7810  0     0    
2019/06/17  15:56:00  BASE  8.9964   280  10.5252  285  -2.0  100   -2.0  15    0     987.9    NA       0.0000   9999     7870  0     0    
2019/06/17  15:57:00  BASE  8.46132  278  10.5252  285  -2.0  100   -2.0  16    0     988.0    NA       0.0000   9999     1970  7940  0    
2019/06/17  15:58:00  BASE  7.7322   275  10.3782  283  -1.9  100   -1.9  16    0     988.0    NA       0.0000   9999     7940  0     0    
2019/06/17  15:59:00  BASE  7.31472  277  10.3782  283  -1.9  100   -1.9  15    0     988.0    NA       0.0000   9999     1900  0     0    
2019/06/17  16:00:01  BASE  6.75612  283  10.3782  283  -1.9  100   -1.9  15    0     988.1    NA       0.0000   9999     1940  8010  0    
2019/06/17  16:01:00  BASE  7.10892  289  10.3782  283  -1.8  100   -1.8  14    0     988.1    NA       0.0000   9999     7940  0     0    
2019/06/17  16:02:00  BASE  7.36764  290  10.3782  283  -1.8  100   -1.8  15    0     988.1    NA       0.0000   9999     7910  0     0    
2019/06/17  16:03:00  BASE  7.63224  290  9.91956  289  -1.7  100   -1.8  14    0     988.0    NA       0.0000   9999     1800  0     0    
2019/06/17  16:04:00  BASE  8.12028  290  9.91956  289  -1.7  100   -1.8  13    0     988.1    NA       0.0000   9999     1840  7840  0    
2019/06/17  16:05:01  BASE  7.94388  290  9.91956  289  -1.7  99    -1.8  13    0     988.2    NA       0.0000   9999     1970  7970  0    
2019/06/17  16:06:01  BASE  8.19672  290  9.86076  262  -1.7  99    -1.8  12    0     988.1    NA       0.0000   9999     1900  0     0    
2019/06/17  16:07:00  BASE  8.7318   289  9.86076  262  -1.7  99    -1.9  12    0     988.1    NA       0.0000   9999     1970  7740  0    
2019/06/17  16:08:00  BASE  8.12028  285  9.59028  292  -1.7  99    -1.9  12    0     988.2    NA       0.0000   9999     1970  7740  0    
2019/06/17  16:09:00  BASE  7.74984  280  9.59028  292  -1.8  99    -1.9  12    0     988.2    NA       0.0000   9999     2530  7680  0    
2019/06/17  16:10:01  BASE  8.27904  279  9.67848  276  -1.8  99    -1.9  12    0     988.2    NA       0.0000   9999     2200  0     0    
2019/06/17  16:11:00  BASE  8.27904  282  9.89016  289  -1.8  99    -2.0  12    0     988.2    NA       0.0000   9999     2200  7710  0    
2019/06/17  16:12:00  BASE  8.12616  282  9.89016  289  -1.8  98    -2.0  12    0     988.2    NA       0.0000   9999     2000  0     0    
2019/06/17  16:13:01  BASE  7.9674   284  9.89016  289  -1.8  98    -2.1  12    0     988.2    NA       0.0000   9999     1940  7280  0    
2019/06/17  16:14:01  BASE  7.51464  284  9.89016  289  -1.8  98    -2.1  12    0     988.2    NA       0.0000   9999     1870  0     0    
2019/06/17  16:15:01  BASE  7.2618   282  9.89016  289  -1.7  97    -2.1  11    0     988.2    NA       0.0000   9999     1800  0     0    
2019/06/17  16:16:00  BASE  7.02072  280  9.89016  289  -1.7  97    -2.1  11    0     988.2    NA       0.0000   9999     1840  0     0    
2019/06/17  16:17:00  BASE  7.21476  276  9.89016  289  -1.7  97    -2.1  12    0     988.2    NA       0.0000   9999     1740  2660  0    
2019/06/17  16:18:00  BASE  7.66164  280  9.89016  289  -1.7  97    -2.1  12    0     988.2    NA       0.0000   9999     1870  0     0    
2019/06/17  16:19:00  BASE  8.31432  284  10.831   285  -1.7  97    -2.1  12    0     988.1    NA       0.0000   9999     1840  0     0    
2019/06/17  16:20:01  BASE  8.93172  282  10.831   285  -1.7  97    -2.1  13    0     988.2    NA       0.0000   9999     1900  0     0    
2019/06/17  16:21:01  BASE  8.91996  282  10.831   285  -1.7  97    -2.1  13    0     988.2    NA       0.0000   9999     2000  0     0    
2019/06/17  16:22:00  BASE  9.00228  283  10.831   285  -1.8  97    -2.2  13    0     988.2    NA       0.0000   9999     1870  0     0    
2019/06/17  16:23:00  BASE  8.6142   281  10.831   285  -1.8  97    -2.2  13    0     988.2    NA       0.0000   9999     1940  0     0    
2019/06/17  16:24:00  BASE  8.57892  281  10.831   285  -1.8  97    -2.2  14    0     988.2    NA       0.0000   9999     1800  7740  0    
2019/06/17  16:25:01  BASE  8.31432  280  10.831   285  -1.8  97    -2.3  14    0     988.2    NA       0.0000   9999     1940  0     0    
2019/06/17  16:26:00  BASE  7.60872  278  10.831   285  -1.8  96    -2.3  14    0     988.3    NA       0.0000   9999     2170  7640  0    
2019/06/17  16:27:00  BASE  7.9968   279  10.831   285  -1.8  96    -2.3  15    0     988.3    NA       0.0000   9999     7680  0     0    
2019/06/17  16:28:00  BASE  7.86744  279  10.831   285  -1.8  96    -2.3  15    0     988.3    NA       0.0000   9999     2030  7840  0    
2019/06/17  16:29:00  BASE  7.17948  279  10.3135  282  -1.8  96    -2.3  15    0     988.4    NA       0.0000   9999     2100  7810  0    
2019/06/17  16:30:01  BASE  7.15008  282  10.2841  279  -1.8  96    -2.3  14    0     988.3    NA       0.0000   9999     2030  7970  0    
2019/06/17  16:31:00  BASE  6.9678   284  10.2841  279  -1.7  96    -2.3  14    0     988.4    NA       0.0000   9999     2100  7280  0    
2019/06/17  16:32:00  BASE  6.8796   286  10.0724  276  -1.7  96    -2.3  14    0     988.4    NA       0.0000   9999     2030  7320  7840 
2019/06/17  16:33:00  BASE  7.25004  283  10.0724  276  -1.7  96    -2.3  13    0     988.4    NA       0.0000   9999     1900  0     0    
2019/06/17  16:34:00  BASE  8.30844  280  10.1959  281  -1.7  96    -2.3  12    0     988.3    NA       0.0000   9999     1840  7280  0    
2019/06/17  16:35:01  BASE  8.56716  281  10.1959  281  -1.7  96    -2.3  12    0     988.4    NA       0.0000   9999     1970  0     0    
2019/06/17  16:36:00  BASE  7.97916  281  10.1959  281  -1.8  96    -2.3  12    0     988.4    NA       0.0000   9999     2400  0     0    
2019/06/17  16:37:01  BASE  7.88508  282  10.1959  281  -1.8  96    -2.3  13    0     988.4    NA       0.0000   9999     7220  0     0    
2019/06/17  16:38:00  BASE  8.19672  282  10.1959  281  -1.8  96    -2.3  13    0     988.4    NA       0.0000   9999     1970  0     0    
2019/06/17  16:39:00  BASE  8.7612   281  10.1959  281  -1.8  96    -2.3  14    0     988.4    NA       0.0000   9999     1840  0     0    
2019/06/17  16:40:00  BASE  8.4378   280  10.1959  281  -1.8  96    -2.3  14    0     988.4    NA       0.0000   9999     1970  0     0    
2019/06/17  16:41:00  BASE  8.14968  281  10.1959  281  -1.8  96    -2.3  14    0     988.4    NA       0.0000   9999     1870  0     0    
2019/06/17  16:42:01  BASE  8.232    280  10.1959  281  -1.7  96    -2.4  15    0     988.5    NA       0.0000   9999     2530  0     0    
2019/06/17  16:43:00  BASE  7.83216  274  10.1959  281  -1.7  95    -2.4  15    0     988.5    NA       0.0000   9999     2460  0     0    
2019/06/17  16:44:00  BASE  7.60284  274  9.91956  282  -1.7  95    -2.4  14    0     988.5    NA       0.0000   9999     2400  0     0    
2019/06/17  16:45:00  BASE  7.72632  277  9.91956  282  -1.8  95    -2.5  14    0     988.5    NA       0.0000   9999     2460  0     0    
2019/06/17  16:46:01  BASE  8.16732  278  9.91956  282  -1.8  95    -2.5  13    0     988.5    NA       0.0000   9999     2400  0     0    
2019/06/17  16:47:00  BASE  8.4084   277  9.91956  282  -1.8  95    -2.5  12    0     988.5    NA       0.0000   9999     2030  2790  0    
2019/06/17  16:48:00  BASE  8.01444  275  9.91956  282  -1.8  95    -2.5  12    0     988.5    NA       0.0000   9999     2620  0     0    
2019/06/17  16:49:00  BASE  7.2618   277  9.86076  268  -1.8  95    -2.5  11    0     988.6    NA       0.0000   9999     2530  0     0    
2019/06/17  16:50:00  BASE  6.62088  280  9.86076  268  -1.7  95    -2.5  11    0     988.6    NA       0.0000   9999     2230  0     0    
2019/06/17  16:51:00  BASE  6.99132  282  9.86076  268  -1.7  95    -2.4  10    0     988.5    NA       0.0000   9999     2100  2490  0    
2019/06/17  16:52:00  BASE  7.72632  280  9.86076  268  -1.7  95    -2.4  10    0     988.6    NA       0.0000   9999     2000  0     0    
2019/06/17  16:53:00  BASE  8.28492  278  10.043   279  -1.7  95    -2.4  10    0     988.5    NA       0.0000   9999     1940  0     0    
2019/06/17  16:54:01  BASE  8.31432  280  10.043   279  -1.7  95    -2.4  10    0     988.5    NA       0.0000   9999     1900  0     0    
2019/06/17  16:55:00  BASE  8.1144   283  10.043   279  -1.7  95    -2.4  10    0     988.6    NA       0.0000   9999     1900  2660  0    
2019/06/17  16:56:00  BASE  8.21436  281  10.043   279  -1.7  95    -2.4  9     0     988.6    NA       0.0000   9999     1940  2530  0    
2019/06/17  16:57:00  BASE  7.72044  278  10.043   279  -1.7  94    -2.5  9     0     988.6    NA       0.0000   9999     1970  0     0    
2019/06/17  16:58:00  BASE  7.13832  278  10.043   279  -1.6  94    -2.4  9     0     988.7    NA       0.0000   9999     1940  0     0    
2019/06/17  16:59:00  BASE  7.13832  278  10.043   279  -1.6  94    -2.4  9     0     988.6    NA       0.0000   9999     1940  2430  0    
2019/06/17  17:00:00  BASE  7.21476  277  10.043   279  -1.6  95    -2.4  9     0     988.7    NA       0.0000   9999     1970  2590  0    
2019/06/17  17:01:00  BASE  7.31472  279  10.043   279  -1.6  95    -2.3  9     0     988.7    NA       0.0000   9999     2300  0     0    
2019/06/17  17:02:00  BASE  7.33824  274  10.043   279  -1.6  95    -2.3  8     0     988.7    NA       0.0000   9999     2560  0     0    
2019/06/17  17:03:01  BASE  7.15596  270  9.56088  286  -1.6  95    -2.3  8     0     988.7    NA       0.0000   9999     1940  0     0    
2019/06/17  17:04:00  BASE  7.05012  270  9.56088  286  -1.6  95    -2.3  7     0     988.7    NA       0.0000   9999     1870  0     0    
2019/06/17  17:05:00  BASE  6.4974   276  9.3492   272  -1.7  95    -2.3  6     0     988.7    NA       0.0000   9999     1640  2560  0    
2019/06/17  17:06:00  BASE  6.19752  283  8.71416  271  -1.7  96    -2.3  6     0     988.7    NA       0.0000   9999     1670  0     0    
2019/06/17  17:07:00  BASE  7.2618   283  9.4374   279  -1.6  96    -2.2  6     0     988.7    NA       0.0000   9999     1670  0     0    
2019/06/17  17:08:00  BASE  8.13204  279  9.4374   279  -1.6  96    -2.1  6     0     988.7    NA       0.0000   9999     2000  2590  0    
2019/06/17  17:09:00  BASE  8.43192  277  11.072   277  -1.6  97    -2.1  6     0     988.7    NA       0.0000   9999     2460  0     0    
2019/06/17  17:10:00  BASE  8.83176  275  11.072   277  -1.6  97    -2.0  5     0     988.8    NA       0.0000   9999     2430  0     0    
2019/06/17  17:11:01  BASE  8.73768  273  11.072   277  -1.6  97    -2.1  5     0     988.8    NA       0.0000   9999     2820  0     0    
2019/06/17  17:12:00  BASE  8.673    275  11.072   277  -1.7  97    -2.1  6     0     988.9    NA       0.0000   9999     2920  0     0    
2019/06/17  17:13:00  BASE  9.01992  278  11.072   277  -1.7  97    -2.1  6     0     988.8    NA       0.0000   9999     2990  0     0    
2019/06/17  17:14:00  BASE  8.66124  278  11.072   277  -1.8  98    -2.1  6     0     988.9    NA       0.0000   9999     3120  0     0    
2019/06/17  17:15:01  BASE  7.90272  278  11.072   277  -1.8  98    -2.1  6     0     988.9    NA       0.0000   9999     3350  0     0    
2019/06/17  17:16:00  BASE  7.47936  278  11.072   277  -1.8  98    -2.1  6     0     989.0    NA       0.0000   9999     3350  0     0    
2019/06/17  17:17:00  BASE  7.644    279  11.072   277  -1.8  98    -2.0  5     0     988.9    NA       0.0000   9999     3640  0     0    
2019/06/17  17:18:00  BASE  8.35548  279  11.072   277  -1.8  98    -2.0  5     0     989.0    NA       0.0000   9999     3350  6430  0    
2019/06/17  17:19:00  BASE  8.23788  275  10.3429  276  -1.8  98    -2.0  5     0     989.0    NA       0.0000   9999     3450  3900  6400 
2019/06/17  17:20:00  BASE  7.99092  276  10.3429  276  -1.8  98    -2.0  5     0     989.0    NA       0.0000   9999     3450  0     0    
2019/06/17  17:21:00  BASE  8.50248  279  10.3429  276  -1.8  98    -2.0  5     0     989.0    NA       0.0000   9999     3540  0     0    
2019/06/17  17:22:00  BASE  8.31432  281  10.3429  276  -1.8  99    -2.0  5     0     989.0    NA       0.0000   9999     3810  0     0    
2019/06/17  17:23:00  BASE  8.13792  283  9.98424  277  -1.9  99    -2.0  5     0     989.0    NA       0.0000   9999     3770  0     0    
2019/06/17  17:24:00  BASE  8.26728  282  9.98424  277  -1.9  99    -2.0  5     0     989.1    NA       0.0000   9999     2070  3710  0    
2019/06/17  17:25:00  BASE  8.10852  281  9.98424  277  -1.9  99    -2.0  5     0     989.1    NA       0.0000   9999     3710  0     0    
2019/06/17  17:26:00  BASE  7.92624  279  9.98424  277  -1.9  99    -2.0  5     0     989.1    NA       0.0000   9999     3670  0     0    
2019/06/17  17:27:00  BASE  7.71456  280  9.98424  277  -1.9  100   -2.0  5     0     989.1    NA       0.0000   9999     7250  0     0    
2019/06/17  17:28:00  BASE  7.9968   284  9.98424  277  -1.9  100   -1.9  5     0     989.1    NA       0.0000   9999     3840  7250  0    
2019/06/17  17:29:00  BASE  7.47348  285  9.98424  277  -1.9  100   -1.9  5     0     989.2    NA       0.0000   9999     3940  0     0    
2019/06/17  17:30:01  BASE  6.88548  284  9.98424  277  -1.9  100   -1.9  5     0     989.1    NA       0.0000   9999     1840  0     0    
2019/06/17  17:31:00  BASE  7.16772  286  9.98424  277  -1.9  100   -1.9  5     0     989.2    NA       0.0000   9999     1670  0     0    
2019/06/17  17:32:00  BASE  7.3794   289  9.98424  277  -1.9  100   -1.9  5     0     989.1    NA       0.0000   9999     7020  0     0    
2019/06/17  17:33:01  BASE  6.83256  288  9.64908  281  -2.0  100   -2.0  5     0     989.2    NA       0.0000   9999     2200  4760  0    
2019/06/17  17:34:00  BASE  6.26808  289  9.64908  281  -2.0  100   -2.0  5     0     989.2    NA       0.0000   9999     2030  4430  0    
2019/06/17  17:35:00  BASE  6.20928  294  9.64908  281  -2.0  100   -2.0  6     0     989.2    NA       0.0000   9999     2130  3120  4560 
2019/06/17  17:36:00  BASE  5.83296  296  9.64908  281  -2.0  100   -2.0  6     0     989.2    NA       0.0000   9999     2070  0     0    
2019/06/17  17:37:01  BASE  5.9976   298  9.64908  281  -2.1  100   -2.1  6     0     989.2    NA       0.0000   9999     2460  4000  0    
2019/06/17  17:38:00  BASE  5.96232  297  8.92584  289  -2.1  100   -2.1  6     0     989.2    NA       0.0000   9999     2100  0     0    
2019/06/17  17:39:00  BASE  5.80944  298  8.92584  289  -2.1  100   -2.1  6     0     989.2    NA       0.0000   9999     1800  0     0    
2019/06/17  17:40:00  BASE  6.29748  299  8.92584  289  -2.2  100   -2.2  6     0     989.2    NA       0.0000   9999     1870  0     0    
2019/06/17  17:41:00  BASE  6.34452  298  8.92584  289  -2.2  100   -2.2  6     0     989.2    NA       0.0000   9999     1840  0     0    
2019/06/17  17:42:00  BASE  6.24456  298  7.3794   298  -2.2  100   -2.2  6     0     989.2    NA       0.0000   9999     1670  0     0    
2019/06/17  17:43:00  BASE  6.09756  299  7.3794   298  -2.2  100   -2.2  6     0     989.4    NA       0.0000   9999     1670  0     0    
2019/06/17  17:44:00  BASE  5.86824  296  7.3794   298  -2.2  100   -2.2  5     0     989.3    NA       0.0000   9999     1610  0     0    
2019/06/17  17:45:00  BASE  5.8506   292  7.3794   298  -2.2  100   -2.2  5     0     989.4    NA       0.0000   9999     1840  7020  8040 
2019/06/17  17:46:00  BASE  5.95056  290  7.3794   298  -2.2  100   -2.2  5     0     989.4    NA       0.0000   9999     6960  0     0    
2019/06/17  17:47:01  BASE  6.27396  284  7.3794   298  -2.1  100   -2.1  5     0     989.4    NA       0.0000   9999     6960  0     0    
2019/06/17  17:48:00  BASE  5.98584  276  7.3794   298  -2.1  100   -2.1  5     0     989.5    NA       0.0000   9999     6790  0     0    
2019/06/17  17:49:00  BASE  5.87412  265  7.3794   298  -2.1  100   -2.1  5     0     989.5    NA       0.0000   9999     6820  0     0    
2019/06/17  17:50:00  BASE  6.01524  263  7.07952  285  -2.1  100   -2.1  5     0     989.6    NA       0.0000   9999     4720  6790  0    
2019/06/17  17:51:00  BASE  5.77416  265  7.07952  285  -2.1  100   -2.1  5     0     989.6    NA       0.0000   9999     4790  0     0    
2019/06/17  17:52:00  BASE  5.43312  264  7.07952  285  -2.2  100   -2.2  5     0     989.6    NA       0.0000   9999     4070  4760  0    
2019/06/17  17:53:00  BASE  5.22144  266  7.07952  285  -2.2  100   -2.2  4     0     989.6    NA       0.0000   9999     4720  6660  0    
2019/06/17  17:54:00  BASE  5.53896  271  7.07952  285  -2.2  100   -2.2  4     0     989.5    NA       0.0000   9999     4890  6590  0    
2019/06/17  17:55:00  BASE  5.7624   273  7.07952  285  -2.2  100   -2.2  4     0     989.6    NA       0.0000   9999     4920  0     0    
2019/06/17  17:56:00  BASE  5.76828  271  6.98544  281  -2.1  100   -2.1  4     0     989.6    NA       0.0000   9999     2460  4950  6660 
2019/06/17  17:57:00  BASE  5.4684   273  6.92664  268  -2.1  100   -2.1  4     0     989.6    NA       0.0000   9999     2170  0     0    
2019/06/17  17:58:01  BASE  5.68008  275  7.53228  269  -2.1  100   -2.1  3     0     989.5    NA       0.0000   9999     2460  4990  0    
2019/06/17  17:59:00  BASE  5.7918   276  7.53228  269  -2.0  100   -2.0  3     0     989.6    NA       0.0000   9999     4950  0     0    
2019/06/17  18:00:00  BASE  5.26848  271  7.53228  269  -2.0  100   -2.0  3     0     989.6    NA       0.0000   9999     4990  0     0    
2019/06/17  18:01:00  BASE  5.12148  269  7.53228  269  -2.0  100   -2.0  3     0     989.6    NA       0.0000   9999     5020  0     0    
2019/06/17  18:02:00  BASE  5.10384  273  7.53228  269  -2.0  100   -2.0  3     0     989.6    NA       0.0000   9999     5050  0     0    
2019/06/17  18:03:00  BASE  5.45076  275  8.16732  280  -2.0  100   -2.0  3     0     989.5    NA       0.0000   9999     5020  7150  0    
2019/06/17  18:04:00  BASE  6.13872  274  8.16732  280  -2.0  100   -2.0  3     0     989.6    NA       0.0000   9999     2330  5120  6990 
2019/06/17  18:05:00  BASE  6.7032   274  8.22612  272  -2.0  100   -2.0  3     0     989.5    NA       0.0000   9999     5120  6860  0    
2019/06/17  18:06:00  BASE  6.56208  272  8.22612  272  -2.0  100   -2.0  3     0     989.6    NA       0.0000   9999     2230  0     0    
2019/06/17  18:07:00  BASE  5.92116  267  8.22612  272  -2.0  100   -2.0  3     0     989.6    NA       0.0000   9999     2560  4920  0    
2019/06/17  18:08:00  BASE  5.9388   268  8.22612  272  -2.0  100   -2.0  3     0     989.6    NA       0.0000   9999     2560  4760  6590 
2019/06/17  18:09:00  BASE  6.59736  271  8.22612  272  -1.9  100   -1.9  3     0     989.6    NA       0.0000   9999     1840  4400  0    
2019/06/17  18:10:00  BASE  6.71496  273  8.22612  272  -1.9  100   -1.9  2     0     989.6    NA       0.0000   9999     1940  2590  0    
2019/06/17  18:11:00  BASE  6.36216  272  8.22612  272  -1.9  100   -1.9  3     0     989.6    NA       0.0000   9999     1800  0     0    
2019/06/17  18:12:00  BASE  6.32688  270  8.22612  272  -1.9  100   -1.9  3     0     989.6    NA       0.0000   9999     2720  3540  0    
2019/06/17  18:13:00  BASE  6.33864  269  8.22612  272  -1.9  100   -1.9  3     0     989.6    NA       0.0000   9999     1970  2490  3120 
2019/06/17  18:14:00  BASE  6.44448  267  8.22612  272  -1.9  100   -1.9  3     0     989.6    NA       0.0000   9999     1670  0     0    
2019/06/17  18:15:00  BASE  6.8796   271  8.3496   270  -1.9  100   -1.9  3     0     989.6    NA       0.0000   9999     1710  0     0    
2019/06/17  18:16:00  BASE  6.54444  271  8.3496   270  -1.8  100   -1.8  2     0     989.7    NA       0.0000   9999     1800  0     0    
2019/06/17  18:17:00  BASE  6.5268   273  9.4374   272  -1.8  100   -1.8  2     0     989.6    NA       0.0000   9999     1570  0     0    
2019/06/17  18:18:00  BASE  7.73808  279  9.4374   283  -1.8  100   -1.8  2     0     989.6    NA       0.0000   9999     2030  0     0    
2019/06/17  18:19:00  BASE  8.673    280  9.64908  278  -1.8  100   -1.8  2     0     989.6    NA       0.0000   9999     1670  2260  0    
2019/06/17  18:20:00  BASE  8.5554   279  9.64908  278  -1.8  100   -1.8  2     0     989.6    NA       0.0000   9999     1610  0     0    
2019/06/17  18:21:00  BASE  8.13204  275  10.0136  274  -1.8  100   -1.8  2     0     989.6    NA       0.0000   9999     2070  2920  0    
2019/06/17  18:22:00  BASE  8.00856  270  10.0136  274  -1.8  100   -1.8  2     0     989.7    NA       0.0000   9999     3050  4100  0    
2019/06/17  18:23:00  BASE  7.74984  269  10.0136  274  -1.9  100   -1.9  2     0     989.7    NA       0.0000   9999     4820  5250  0    
2019/06/17  18:24:00  BASE  7.7616   272  10.0136  274  -1.9  100   -1.9  2     0     989.7    NA       0.0000   9999     2330  5710  0    
2019/06/17  18:25:00  BASE  7.83804  273  10.0136  274  -1.9  100   -1.9  2     0     989.7    NA       0.0000   9999     5680  0     0    
2019/06/17  18:26:00  BASE  7.66752  271  10.0136  274  -1.9  100   -1.9  2     0     989.7    NA       0.0000   9999     1640  5870  0    
2019/06/17  18:27:00  BASE  7.16184  274  10.0136  274  -1.8  100   -1.8  2     0     989.7    NA       0.0000   9999     1740  0     0    
2019/06/17  18:28:00  BASE  7.3794   275  10.5899  271  -1.8  100   -1.8  2     0     989.7    NA       0.0000   9999     2400  3280  0    
2019/06/17  18:29:00  BASE  8.54364  273  10.5899  271  -1.8  100   -1.9  2     0     989.7    NA       0.0000   9999     1670  0     0    
2019/06/17  18:30:00  BASE  9.04932  272  10.5899  271  -1.9  100   -1.9  2     0     989.7    NA       0.0000   9999     1840  5740  0    
2019/06/17  18:31:00  BASE  8.82     269  10.5899  271  -1.9  99    -2.0  2     0     989.7    NA       0.0000   9999     5640  0     0    
2019/06/17  18:32:00  BASE  8.085    268  10.5899  271  -2.0  99    -2.1  2     0     989.8    NA       0.0000   9999     5710  0     0    
2019/06/17  18:33:00  BASE  7.72044  269  10.5899  271  -2.0  99    -2.2  2     0     989.8    NA       0.0000   9999     5480  0     0    
2019/06/17  18:34:00  BASE  8.2614   267  10.5899  271  -2.1  99    -2.3  2     0     989.8    NA       0.0000   9999     5280  0     0    
2019/06/17  18:35:00  BASE  8.31432  265  10.5899  271  -2.1  98    -2.4  2     0     989.8    NA       0.0000   9999     5380  0     0    
2019/06/17  18:36:00  BASE  7.92624  264  10.5899  271  -2.2  98    -2.5  2     0     989.8    NA       0.0000   9999     5580  0     0    
2019/06/17  18:37:00  BASE  7.938    262  10.5899  271  -2.2  97    -2.5  2     0     989.9    NA       0.0000   9999     5680  0     0    
2019/06/17  18:38:00  BASE  7.2324   266  10.4958  285  -2.2  97    -2.5  2     0     989.9    NA       0.0000   9999     5640  0     0    
2019/06/17  18:39:00  BASE  6.35628  264  10.3782  277  -2.1  97    -2.5  2     0     989.9    NA       0.0000   9999     5410  0     0    
2019/06/17  18:40:00  BASE  6.65028  264  10.3782  277  -2.1  97    -2.5  1     0     990.0    NA       0.0000   9999     5320  0     0    
2019/06/17  18:41:00  BASE  7.23828  271  10.3782  277  -2.1  97    -2.4  1     0     989.9    NA       0.0000   9999     5910  0     0    
2019/06/17  18:42:00  BASE  7.69692  273  10.3782  284  -2.1  98    -2.4  1     0     989.9    NA       0.0000   9999     5810  0     0    
2019/06/17  18:43:00  BASE  7.2324   267  10.3782  284  -2.1  98    -2.4  1     0     990.0    NA       0.0000   9999     5740  0     0    
2019/06/17  18:44:00  BASE  7.00896  261  10.3782  284  -2.1  98    -2.4  1     0     990.0    NA       0.0000   9999     5710  0     0    
2019/06/17  18:45:00  BASE  6.89136  266  10.3782  284  -2.1  98    -2.4  1     0     990.0    NA       0.0000   9999     5770  0     0    
2019/06/17  18:46:00  BASE  6.34452  272  10.3782  284  -2.1  98    -2.3  1     0     990.0    NA       0.0000   9999     1710  5870  0    
2019/06/17  18:47:00  BASE  6.92076  268  10.3782  284  -2.1  98    -2.3  1     0     990.0    NA       0.0000   9999     1670  5710  0    
2019/06/17  18:48:00  BASE  7.59696  263  10.3782  284  -2.1  99    -2.3  1     0     990.0    NA       0.0000   9999     1640  0     0    
2019/06/17  18:49:00  BASE  7.39116  262  10.3782  284  -2.1  99    -2.3  1     0     990.0    NA       0.0000   9999     1640  0     0    
2019/06/17  18:50:00  BASE  7.35     259  10.3782  284  -2.1  99    -2.2  1     0     990.1    NA       0.0000   9999     1770  5910  0    
2019/06/17  18:51:00  BASE  7.30296  260  10.3782  284  -2.1  99    -2.2  1     0     990.1    NA       0.0000   9999     1670  0     0    
2019/06/17  18:52:00  BASE  7.17948  263  9.19632  261  -2.1  99    -2.2  1     0     990.1    NA       0.0000   9999     1640  0     0    
2019/06/17  18:53:00  BASE  7.07952  262  9.19632  261  -2.1  99    -2.2  1     0     990.1    NA       0.0000   9999     1710  0     0    
2019/06/17  18:54:00  BASE  6.69144  267  9.19632  261  -2.1  100   -2.1  0     0     990.1    NA       0.0000   9999     1440  6660  0    
2019/06/17  18:55:00  BASE  6.82668  271  9.19632  261  -2.1  100   -2.1  0     0     990.1    NA       0.0000   9999     1670  6560  0    
2019/06/17  18:56:00  BASE  6.50916  268  9.19632  261  -2.1  100   -2.1  0     0     990.2    NA       0.0000   9999     1670  6500  0    
2019/06/17  18:57:00  BASE  5.82708  263  8.98464  258  -2.1  100   -2.1  0     0     990.2    NA       0.0000   9999     1570  6630  0    
2019/06/17  18:58:00  BASE  6.27396  261  8.83176  257  -2.1  100   -2.1  0     0     990.2    NA       0.0000   9999     1570  6370  0    
2019/06/17  18:59:00  BASE  7.28532  261  8.77296  260  -2.1  100   -2.1  0     0     990.2    NA       0.0000   9999     6460  0     0    
2019/06/17  19:00:00  BASE  7.4382   257  8.77296  260  -2.1  100   -2.1  0     0     990.2    NA       0.0000   9999     6460  0     0    
2019/06/17  19:01:00  BASE  7.22652  254  8.77296  260  -2.1  100   -2.1  0     0     990.2    NA       0.0000   9999     6460  0     0    
2019/06/17  19:02:00  BASE  7.29708  255  8.77296  260  -2.1  100   -2.1  0     0     990.3    NA       0.0000   9999     6460  0     0    
2019/06/17  19:03:00  BASE  6.321    262  8.77296  260  -2.2  100   -2.2  0     0     990.3    NA       0.0000   9999     1570  0     0    
2019/06/17  19:04:00  BASE  5.31552  265  8.77296  260  -2.1  100   -2.1  0     0     990.3    NA       0.0000   9999     1670  0     0    
2019/06/17  19:05:00  BASE  5.72712  268  8.77296  260  -2.1  100   -2.1  0     0     990.3    NA       0.0000   9999     6460  0     0    
2019/06/17  19:06:00  BASE  5.66832  271  8.77296  260  -2.1  100   -2.1  0     0     990.3    NA       0.0000   9999     1670  6560  0    
2019/06/17  19:07:00  BASE  4.83336  275  8.77296  260  -2.1  100   -2.1  0     0     990.3    NA       0.0000   9999     1540  6590  0    
2019/06/17  19:08:00  BASE  4.7922   281  8.77296  260  -2.1  100   -2.1  0     0     990.3    NA       0.0000   9999     1800  2460  0    
2019/06/17  19:09:00  BASE  5.25084  282  8.64948  248  -2.0  100   -2.0  0     0     990.2    NA       0.0000   9999     1350  6530  0    
2019/06/17  19:10:00  BASE  5.32728  283  8.19672  254  -2.0  100   -2.0  0     0     990.3    NA       0.0000   9999     2660  6530  0    
2019/06/17  19:11:00  BASE  5.51544  283  8.19672  254  -2.0  100   -2.0  0     0     990.3    NA       0.0000   9999     1480  0     0    
2019/06/17  19:12:00  BASE  5.38608  282  7.3206   260  -2.0  100   -2.0  0     0     990.2    NA       0.0000   9999     1710  6460  0    
2019/06/17  19:13:00  BASE  4.9686   283  7.3206   260  -2.0  100   -2.0  0     0     990.3    NA       0.0000   9999     1150  0     0    
2019/06/17  19:14:00  BASE  5.35668  282  7.16772  270  -2.0  100   -2.0  0     0     990.3    NA       0.0000   9999     1350  0     0    
2019/06/17  19:15:00  BASE  5.74476  281  6.68556  279  -2.0  100   -2.0  0     0     990.3    NA       0.0000   9999     1210  1870  0    
2019/06/17  19:16:00  BASE  5.79768  285  6.68556  279  -2.0  100   -2.0  0     0     990.3    NA       0.0000   9999     1380  0     0    
2019/06/17  19:17:00  BASE  5.9094   287  6.68556  279  -2.1  100   -2.1  0     0     990.3    NA       0.0000   9999     1280  0     0    
2019/06/17  19:18:00  BASE  5.733    285  6.68556  279  -2.1  100   -2.1  0     0     990.3    NA       0.0000   9999     1710  6500  0    
2019/06/17  19:19:00  BASE  5.439    287  6.68556  279  -2.1  100   -2.1  0     0     990.2    NA       0.0000   9999     1440  6230  0    
2019/06/17  19:20:00  BASE  5.292    286  6.68556  279  -2.0  100   -2.0  0     0     990.4    NA       0.0000   9999     1280  6370  0    
2019/06/17  19:21:00  BASE  5.52132  279  6.68556  279  -2.0  100   -2.0  0     0     990.4    NA       0.0000   9999     1410  2330  0    
2019/06/17  19:22:00  BASE  5.95056  276  7.35     267  -2.0  100   -2.0  0     0     990.4    NA       0.0000   9999     1280  0     0    
2019/06/17  19:23:00  BASE  6.5268   278  8.04384  282  -2.0  100   -2.0  0     0     990.3    NA       0.0000   9999     1210  0     0    
2019/06/17  19:24:00  BASE  7.20888  278  8.13792  275  -2.0  100   -2.0  0     0     990.3    NA       0.0000   9999     1120  0     0    
2019/06/17  19:25:00  BASE  7.57344  276  8.379    273  -2.0  100   -2.0  0     0     990.3    NA       0.0000   9999     1210  1770  0    
2019/06/17  19:26:00  BASE  7.31472  278  8.379    273  -2.0  100   -2.0  0     0     990.3    NA       0.0000   9999     1350  2660  0    
2019/06/17  19:27:00  BASE  7.07364  276  8.379    273  -2.0  100   -2.0  0     0     990.3    NA       0.0000   9999     2360  0     0    
2019/06/17  19:28:00  BASE  7.2324   274  8.4378   276  -2.0  100   -2.0  0     0     990.3    NA       0.0000   9999     2360  0     0    
2019/06/17  19:29:00  BASE  6.57972  278  8.4378   276  -2.0  100   -2.0  0     0     990.4    NA       0.0000   9999     2230  2950  0    
2019/06/17  19:30:00  BASE  5.99172  282  8.4378   276  -2.0  100   -2.0  0     0     990.4    NA       0.0000   9999     6400  0     0    
2019/06/17  19:31:00  BASE  6.50328  278  8.4378   276  -2.1  100   -2.1  0     0     990.4    NA       0.0000   9999     5940  6560  0    
2019/06/17  19:32:00  BASE  6.92664  274  8.4378   276  -2.1  100   -2.1  0     0     990.4    NA       0.0000   9999     5810  6530  0    
2019/06/17  19:33:00  BASE  6.77376  272  8.4378   276  -2.2  100   -2.2  0     0     990.4    NA       0.0000   9999     5810  0     0    
2019/06/17  19:34:00  BASE  6.48564  269  8.4378   276  -2.2  100   -2.2  0     0     990.5    NA       0.0000   9999     3180  5540  0    
2019/06/17  19:35:00  BASE  6.7326   272  8.4378   276  -2.3  100   -2.3  0     0     990.5    NA       0.0000   9999     3380  5090  0    
2019/06/17  19:36:00  BASE  7.22064  271  8.4378   276  -2.3  100   -2.3  0     0     990.4    NA       0.0000   9999     2170  4890  0    
2019/06/17  19:37:00  BASE  7.25592  271  9.01404  277  -2.3  100   -2.3  0     0     990.4    NA       0.0000   9999     2130  0     0    
2019/06/17  19:38:00  BASE  7.79688  276  9.04344  277  -2.2  100   -2.2  0     0     990.4    NA       0.0000   9999     890   0     0    
2019/06/17  19:39:00  BASE  7.77924  276  9.04344  277  -2.2  100   -2.2  0     0     990.5    NA       0.0000   9000     1740  0     0    
2019/06/17  19:40:00  BASE  7.66752  280  9.04344  286  -2.3  100   -2.3  0     0     990.5    NA       0.0000   UP       7000  330   2260 
2019/06/17  19:41:00  BASE  7.8792   280  9.19632  280  -2.3  100   -2.3  0     0     990.5    NA       0.0000   UP       8000  0     0    
2019/06/17  19:42:00  BASE  7.6146   282  9.19632  280  -2.4  100   -2.4  0     0     990.5    NA       0.0000   UP       9000  2330  0    
2019/06/17  19:43:00  BASE  7.33236  284  9.19632  280  -2.5  100   -2.5  0     0     990.5    NA       0.0000   UP       9000  2460  0    
2019/06/17  19:44:00  BASE  7.32648  286  9.19632  280  -2.5  100   -2.5  0     0     990.5    NA       0.0000   UP       9999  0     0    
2019/06/17  19:45:00  BASE  7.84392  291  9.19632  280  -2.6  100   -2.6  0     0     990.5    NA       0.0000   UP       9999  1380  0    
2019/06/17  19:46:00  BASE  7.75572  291  9.19632  280  -2.7  100   -2.7  0     0     990.5    NA       0.0000   UP       9999  2000  0    
2019/06/17  19:47:00  BASE  7.07952  291  9.19632  280  -2.8  100   -2.8  0     0     990.5    NA       0.0000   UP       9999  3540  0    
2019/06/17  19:48:00  BASE  6.75024  289  9.19632  280  -2.8  100   -2.8  0     0     990.5    NA       0.0000   UP       9999  1840  0    
2019/06/17  19:49:00  BASE  7.16184  288  9.19632  280  -2.8  100   -2.8  0     0     990.5    NA       0.0000   UP       9999  3900  0    
2019/06/17  19:50:00  BASE  6.97368  288  9.19632  280  -2.7  100   -2.7  0     0     990.5    NA       0.0000   UP       9999  3310  0    
2019/06/17  19:51:00  BASE  6.98544  287  8.80236  289  -2.7  100   -2.7  0     0     990.5    NA       0.0000   UP       9999  5050  0    
2019/06/17  19:52:00  BASE  7.27356  284  8.80236  289  -2.6  100   -2.6  0     0     990.5    NA       0.0000   9999     4070  5580  0    
2019/06/17  19:53:00  BASE  7.27356  282  8.80236  289  -2.6  100   -2.6  0     0     990.5    NA       0.0000   9999     3770  5610  0    
2019/06/17  19:54:00  BASE  6.94428  279  8.62008  287  -2.5  100   -2.5  0     0     990.6    NA       0.0000   9999     3120  0     0    
2019/06/17  19:55:00  BASE  6.54444  280  8.62008  287  -2.5  100   -2.5  0     0     990.6    NA       0.0000   9999     3350  5610  0    
2019/06/17  19:56:00  BASE  6.50328  280  8.62008  287  -2.4  100   -2.4  0     0     990.7    NA       0.0000   9999     3610  5640  0    
2019/06/17  19:57:00  BASE  6.06816  277  8.62008  287  -2.4  100   -2.4  0     0     990.7    NA       0.0000   9999     3410  5710  0    
2019/06/17  19:58:00  BASE  5.59776  277  8.62008  287  -2.4  100   -2.4  0     0     990.7    NA       0.0000   9999     1310  3610  5740 
2019/06/17  19:59:00  BASE  5.43312  278  8.3202   278  -2.4  100   -2.4  0     0     990.7    NA       0.0000   9999     5740  0     0    
2019/06/17  20:00:00  BASE  5.29788  279  8.3202   278  -2.4  100   -2.4  0     0     990.7    NA       0.0000   9999     3870  5770  0    
2019/06/17  20:01:00  BASE  5.36256  276  8.3202   278  -2.4  100   -2.4  0     0     990.7    NA       0.0000   9999     5840  0     0    
2019/06/17  20:02:00  BASE  5.13912  273  7.98504  276  -2.4  100   -2.4  0     0     990.8    NA       0.0000   9999     1800  0     0    
2019/06/17  20:03:00  BASE  4.65108  274  7.4088   275  -2.3  100   -2.3  0     0     990.8    NA       0.0000   9999     1800  0     0    
2019/06/17  20:04:00  BASE  4.9392   271  6.98544  287  -2.3  100   -2.3  0     0     990.8    NA       0.0000   9999     1770  0     0    
2019/06/17  20:05:00  BASE  5.16264  269  6.95604  275  -2.3  100   -2.3  0     0     990.8    NA       0.0000   9999     1770  0     0    
2019/06/17  20:06:00  BASE  5.40372  270  6.83844  270  -2.3  100   -2.3  0     0     990.8    NA       0.0000   9999     1770  0     0    
2019/06/17  20:07:00  BASE  5.08032  269  6.62676  268  -2.4  100   -2.4  0     0     990.8    NA       0.0000   9999     1670  0     0    
2019/06/17  20:08:00  BASE  4.19832  269  6.62676  268  -2.4  100   -2.4  0     0     990.8    NA       0.0000   9999     1940  0     0    
2019/06/17  20:09:00  BASE  4.21008  268  6.62676  268  -2.4  100   -2.4  0     0     990.8    NA       0.0000   9999     1840  0     0    
2019/06/17  20:10:00  BASE  4.66872  271  6.62676  268  -2.3  100   -2.3  0     0     990.8    NA       0.0000   9999     1710  2300  0    
2019/06/17  20:11:00  BASE  4.851    269  6.62676  268  -2.3  100   -2.3  0     0     990.8    NA       0.0000   9999     1640  2330  0    
2019/06/17  20:12:00  BASE  5.10972  262  7.35     261  -2.3  100   -2.3  0     0     990.8    NA       0.0000   9999     1540  0     0    
2019/06/17  20:13:00  BASE  5.73888  262  7.35     261  -2.3  100   -2.3  0     0     990.8    NA       0.0000   9999     2260  0     0    
2019/06/17  20:14:00  BASE  5.8212   261  7.35     261  -2.3  100   -2.3  0     0     990.8    NA       0.0000   9999     2030  0     0    
2019/06/17  20:15:00  BASE  5.53308  259  7.35     261  -2.3  100   -2.3  0     0     990.7    NA       0.0000   9999     1570  0     0    
2019/06/17  20:16:00  BASE  5.12148  262  7.35     261  -2.3  100   -2.3  0     0     990.8    NA       0.0000   9999     2790  3870  0    
2019/06/17  20:17:00  BASE  4.9392   265  7.35     261  -2.3  100   -2.3  0     0     990.8    NA       0.0000   9999     5910  0     0    
2019/06/17  20:18:00  BASE  5.145    266  7.35     261  -2.3  100   -2.3  0     0     990.8    NA       0.0000   9999     1800  5940  0    
2019/06/17  20:19:00  BASE  5.39784  270  7.35     261  -2.2  100   -2.2  0     0     990.8    NA       0.0000   9999     1480  0     0    
2019/06/17  20:20:00  BASE  6.26808  271  8.01444  267  -2.2  100   -2.2  0     0     990.8    NA       0.0000   9999     1250  0     0    
2019/06/17  20:21:00  BASE  7.06776  267  8.19672  265  -2.1  100   -2.1  0     0     990.7    NA       0.0000   9999     1280  0     0    
2019/06/17  20:22:00  BASE  7.73808  268  9.59028  259  -2.1  100   -2.1  0     0     990.7    NA       0.0000   9999     1540  0     0    
2019/06/17  20:23:00  BASE  8.24376  272  9.59028  259  -2.1  100   -2.1  0     0     990.7    NA       0.0000   9999     1410  0     0    
2019/06/17  20:24:00  BASE  7.62048  269  9.59028  259  -2.0  100   -2.0  0     0     990.8    NA       0.0000   9999     1210  0     0    
2019/06/17  20:25:00  BASE  7.1736   270  9.59028  259  -2.1  100   -2.1  0     0     990.8    NA       0.0000   9999     1050  1770  0    
2019/06/17  20:26:00  BASE  7.16184  274  9.59028  259  -2.1  100   -2.1  0     0     990.7    NA       0.0000   9999     2260  0     0    
2019/06/17  20:27:00  BASE  7.056    271  9.59028  259  -2.1  100   -2.1  0     0     990.8    NA       0.0000   9999     2660  4000  0    
2019/06/17  20:28:00  BASE  6.97956  267  9.59028  259  -2.1  100   -2.1  0     0     990.8    NA       0.0000   9999     4330  0     0    
2019/06/17  20:29:00  BASE  7.42056  262  9.59028  259  -2.2  100   -2.2  0     0     990.8    NA       0.0000   9999     3840  0     0    
2019/06/17  20:30:00  BASE  7.49112  261  9.59028  259  -2.2  100   -2.2  0     0     990.8    NA       0.0000   9999     4400  0     0    
2019/06/17  20:31:00  BASE  7.10304  260  9.59028  259  -2.3  100   -2.3  0     0     990.8    NA       0.0000   9999     4690  0     0    
2019/06/17  20:32:00  BASE  7.48524  257  9.4374   269  -2.3  100   -2.3  0     0     990.8    NA       0.0000   9999     4790  0     0    
2019/06/17  20:33:00  BASE  7.33824  257  8.77296  270  -2.3  100   -2.3  0     0     990.9    NA       0.0000   9999     5020  0     0    
2019/06/17  20:34:00  BASE  7.06188  261  8.77296  270  -2.4  100   -2.4  0     0     990.9    NA       0.0000   9999     3380  5090  0    
2019/06/17  20:35:00  BASE  7.31472  264  8.77296  270  -2.4  100   -2.4  0     0     990.9    NA       0.0000   9999     3410  0     0    
2019/06/17  20:36:00  BASE  6.70908  265  8.74356  267  -2.4  100   -2.4  0     0     990.9    NA       0.0000   9999     2360  0     0    
2019/06/17  20:37:00  BASE  5.8506   265  8.74356  267  -2.4  100   -2.4  0     0     991.0    NA       0.0000   9999     0     0     0    
2019/06/17  20:38:00  BASE  6.22104  262  8.74356  267  -2.4  100   -2.4  0     0     990.9    NA       0.0000   9999     0     0     0    
2019/06/17  20:39:00  BASE  6.29748  263  8.59068  266  -2.4  100   -2.4  0     0     991.0    NA       0.0000   9999     0     0     0    
2019/06/17  20:40:00  BASE  5.6742   266  8.59068  266  -2.4  100   -2.4  0     0     991.0    NA       0.0000   9999     0     0     0    
2019/06/17  20:41:00  BASE  5.85648  266  8.59068  266  -2.4  100   -2.4  0     0     991.0    NA       0.0000   9999     0     0     0    
2019/06/17  20:42:00  BASE  6.49152  262  8.59068  266  -2.4  100   -2.4  0     0     991.0    NA       0.0000   9999     0     0     0    
2019/06/17  20:43:00  BASE  6.39744  260  8.59068  266  -2.4  100   -2.4  0     0     991.0    NA       0.0000   9999     0     0     0    
2019/06/17  20:44:00  BASE  5.78592  261  8.59068  266  -2.4  100   -2.4  0     0     991.0    NA       0.0000   9999     0     0     0    
2019/06/17  20:45:00  BASE  5.92704  262  8.16732  266  -2.4  100   -2.4  0     0     991.0    NA       0.0000   9999     0     0     0    
2019/06/17  20:46:00  BASE  6.60912  257  8.16732  266  -2.4  100   -2.4  0     0     991.0    NA       0.0000   9999     0     0     0    
2019/06/17  20:47:00  BASE  7.09716  254  8.3202   257  -2.4  100   -2.4  0     0     991.0    NA       0.0000   9999     0     0     0    
2019/06/17  20:48:00  BASE  6.73848  258  8.3202   257  -2.5  100   -2.5  0     0     991.0    NA       0.0000   9999     0     0     0    
2019/06/17  20:49:00  BASE  5.95056  263  8.3202   257  -2.5  100   -2.5  0     0     991.0    NA       0.0000   9999     0     0     0    
2019/06/17  20:50:00  BASE  5.2038   266  8.3202   257  -2.5  100   -2.5  0     0     991.0    NA       0.0000   9999     4460  0     0    
2019/06/17  20:51:00  BASE  5.02152  265  8.3202   257  -2.5  100   -2.5  0     0     991.0    NA       0.0000   9999     4460  0     0    
2019/06/17  20:52:00  BASE  5.43312  264  8.3202   257  -2.5  100   -2.5  0     0     991.0    NA       0.0000   9999     4590  0     0    
2019/06/17  20:53:00  BASE  5.4978   268  8.3202   257  -2.5  100   -2.5  0     0     991.0    NA       0.0000   9999     1480  4590  0    
2019/06/17  20:54:00  BASE  5.69772  271  8.3202   257  -2.5  100   -2.5  0     0     991.0    NA       0.0000   9999     1380  0     0    
2019/06/17  20:55:00  BASE  6.03876  273  8.3202   257  -2.5  100   -2.5  0     0     991.0    NA       0.0000   9999     1380  0     0    
2019/06/17  20:56:00  BASE  6.13872  276  8.3202   257  -2.5  100   -2.5  0     0     991.0    NA       0.0000   9999     1350  0     0    
2019/06/17  20:57:00  BASE  5.9094   276  7.13832  255  -2.4  100   -2.4  0     0     991.0    NA       0.0000   9999     1540  0     0    
2019/06/17  20:58:00  BASE  5.31552  277  6.92664  274  -2.4  100   -2.4  0     0     991.1    NA       0.0000   9999     1510  0     0    
2019/06/17  20:59:00  BASE  5.25084  279  6.92664  274  -2.3  100   -2.3  0     0     991.1    NA       0.0000   9999     1480  0     0    
2019/06/17  21:00:00  BASE  5.86824  279  6.92664  274  -2.3  100   -2.3  0     0     991.1    NA       0.0000   9999     1180  0     0    
2019/06/17  21:01:00  BASE  5.8506   276  6.92664  274  -2.3  100   -2.3  0     0     991.1    NA       0.0000   9999     1180  2130  0    
2019/06/17  21:02:00  BASE  5.68008  266  6.92664  274  -2.3  100   -2.3  0     0     991.1    NA       0.0000   9999     1120  1610  0    
2019/06/17  21:03:00  BASE  5.69184  259  7.2618   253  -2.3  100   -2.3  0     0     991.1    NA       0.0000   9999     1080  0     0    
2019/06/17  21:04:00  BASE  5.5272   265  7.2618   253  -2.3  100   -2.3  0     0     991.2    NA       0.0000   9999     1440  1940  0    
2019/06/17  21:05:00  BASE  5.31552  268  7.2618   253  -2.3  100   -2.3  0     0     991.2    NA       0.0000   9999     1050  1540  0    
2019/06/17  21:06:00  BASE  5.52132  268  7.2618   253  -2.3  100   -2.3  0     0     991.1    NA       0.0000   9999     1540  0     0    
2019/06/17  21:07:00  BASE  5.43312  270  7.2618   253  -2.4  100   -2.4  0     0     991.2    NA       0.0000   9999     1480  0     0    
2019/06/17  21:08:00  BASE  5.65068  272  7.3206   281  -2.4  100   -2.4  0     0     991.2    NA       0.0000   9999     1570  2300  4530 
2019/06/17  21:09:00  BASE  5.95644  270  7.3206   281  -2.4  100   -2.4  0     0     991.2    NA       0.0000   9999     1640  4560  0    
2019/06/17  21:10:00  BASE  5.1744   268  7.3206   281  -2.4  100   -2.4  0     0     991.2    NA       0.0000   9999     1640  4330  0    
2019/06/17  21:11:00  BASE  5.07444  268  7.3206   281  -2.4  100   -2.4  0     0     991.2    NA       0.0000   9999     1570  4430  0    
2019/06/17  21:12:00  BASE  5.33904  272  7.3206   281  -2.4  100   -2.4  0     0     991.3    NA       0.0000   9999     1410  2230  4560 
2019/06/17  21:13:00  BASE  5.28024  269  7.3206   281  -2.4  100   -2.4  0     0     991.3    NA       0.0000   9999     1840  4430  0    
2019/06/17  21:14:00  BASE  5.27436  266  7.3206   281  -2.3  100   -2.3  0     0     991.3    NA       0.0000   9999     4430  0     0    
2019/06/17  21:15:00  BASE  5.28612  273  7.3206   281  -2.3  100   -2.3  0     0     991.2    NA       0.0000   9999     1410  4590  0    
2019/06/17  21:16:00  BASE  5.51544  275  7.3206   281  -2.3  100   -2.3  0     0     991.3    NA       0.0000   9999     1380  4630  0    
2019/06/17  21:17:00  BASE  5.6742   277  7.3206   281  -2.2  100   -2.2  0     0     991.3    NA       0.0000   9999     4590  0     0    
2019/06/17  21:18:00  BASE  5.63892  278  6.89724  267  -2.2  100   -2.2  0     0     991.3    NA       0.0000   9999     1610  4630  0    
2019/06/17  21:19:00  BASE  5.50956  273  6.89724  267  -2.2  100   -2.2  0     0     991.3    NA       0.0000   9999     1410  4560  0    
2019/06/17  21:20:00  BASE  5.1744   267  6.89724  267  -2.3  100   -2.3  0     0     991.4    NA       0.0000   9999     5910  0     0    
2019/06/17  21:21:00  BASE  4.83336  266  6.89724  267  -2.3  100   -2.3  0     0     991.4    NA       0.0000   9999     5910  0     0    
2019/06/17  21:22:00  BASE  4.53348  267  6.89724  267  -2.4  100   -2.4  0     0     991.4    NA       0.0000   9999     5770  0     0    
2019/06/17  21:23:00  BASE  4.1748   272  6.59148  276  -2.4  100   -2.4  0     0     991.4    NA       0.0000   9999     3640  0     0    
2019/06/17  21:24:00  BASE  4.40412  274  6.59148  276  -2.4  100   -2.4  0     0     991.4    NA       0.0000   9999     3050  0     0    
2019/06/17  21:25:00  BASE  4.62168  271  6.59148  276  -2.4  100   -2.4  0     0     991.4    NA       0.0000   9999     2030  2850  0    
2019/06/17  21:26:00  BASE  4.55112  275  6.59148  276  -2.4  100   -2.4  0     0     991.4    NA       0.0000   9999     2460  3280  0    
2019/06/17  21:27:00  BASE  4.85688  279  6.59148  276  -2.3  100   -2.3  0     0     991.4    NA       0.0000   9999     2170  2820  0    
2019/06/17  21:28:00  BASE  5.16264  278  6.50328  251  -2.3  100   -2.3  0     0     991.4    NA       0.0000   9999     2230  0     0    
2019/06/17  21:29:00  BASE  5.19792  278  6.56208  270  -2.3  100   -2.3  0     0     991.4    NA       0.0000   9999     1900  0     0    
2019/06/17  21:30:00  BASE  5.54484  268  6.92664  266  -2.3  100   -2.3  0     0     991.4    NA       0.0000   9999     2070  0     0    
2019/06/17  21:31:00  BASE  7.07952  259  9.31392  259  -2.3  100   -2.3  0     0     991.3    NA       0.0000   9999     1440  2130  0    
2019/06/17  21:32:00  BASE  7.9674   257  9.31392  259  -2.3  100   -2.3  0     0     991.3    NA       0.0000   9999     390   1410  0    
2019/06/17  21:33:00  BASE  7.62636  255  9.31392  259  -2.4  100   -2.4  0     0     991.4    NA       0.0000   UP       6000  980   0    
2019/06/17  21:34:00  BASE  8.04384  254  9.31392  259  -2.4  100   -2.4  0     0     991.3    NA       0.0000   UP       BR    2600  0    
2019/06/17  21:35:00  BASE  8.60832  255  9.95484  256  -2.5  100   -2.5  0     0     991.3    NA       0.0000   -SN      BR    2200  0    
2019/06/17  21:36:00  BASE  8.6436   253  9.95484  256  -2.6  100   -2.6  0     0     991.3    NA       0.0000   -SN      BR    3300  0    
2019/06/17  21:37:00  BASE  8.63772  255  9.95484  256  -2.7  100   -2.7  0     0     991.4    NA       0.0000   -SN      BR    2900  0    
2019/06/17  21:38:00  BASE  8.07324  261  9.95484  256  -2.8  100   -2.8  0     0     991.4    NA       0.0000   -SN      BR    2200  0    
2019/06/17  21:39:00  BASE  7.16184  266  9.95484  256  -2.9  100   -2.9  0     0     991.5    NA       0.0000   -SN      BR    1600  0    
2019/06/17  21:40:00  BASE  6.37392  270  9.95484  256  -2.9  100   -2.9  0     0     991.5    NA       0.0000   -SN      BR    1300  0    
2019/06/17  21:41:00  BASE  5.77416  277  9.95484  256  -3.0  100   -3.0  0     0     991.5    NA       0.0000   -SN      BR    1900  0    
2019/06/17  21:42:00  BASE  5.72124  280  9.95484  256  -3.0  100   -3.0  0     0     991.5    NA       0.0000   -SN      BR    2900  0    
2019/06/17  21:43:00  BASE  5.18616  275  9.95484  256  -3.0  100   -3.0  0     0     991.5    NA       0.0000   -SN      BR    2500  0    
2019/06/17  21:44:00  BASE  4.48056  273  9.95484  256  -3.0  100   -3.0  0     0     991.5    NA       0.0000   -SN      BR    2700  0    
2019/06/17  21:45:01  BASE  4.33356  274  9.89016  257  -3.0  100   -3.0  0     0     991.5    NA       0.0000   -SN      BR    3200  0    
2019/06/17  21:46:00  BASE  4.03368  272  9.89016  257  -3.0  100   -3.0  0     0     991.5    NA       0.0000   -SN      BR    3600  0    
2019/06/17  21:47:00  BASE  3.83376  272  9.19632  262  -3.0  100   -3.0  0     0     991.6    NA       0.0000   -SN      BR    3000  0    
2019/06/17  21:48:00  BASE  3.7632   272  7.53228  279  -2.9  100   -2.9  0     0     991.5    NA       0.0000   -SN      BR    2300  0    
2019/06/17  21:49:00  BASE  3.62208  269  7.02072  279  -2.9  100   -2.9  0     0     991.6    NA       0.0000   -SN      BR    2100  0    
2019/06/17  21:50:00  BASE  3.43392  270  6.86784  275  -2.9  100   -2.9  0     0     991.6    NA       0.0000   -SN      BR    2100  0    
2019/06/17  21:51:00  BASE  3.381    272  6.77376  273  -2.9  100   -2.9  0     0     991.5    NA       0.0000   -SN      BR    2400  0    
2019/06/17  21:52:00  BASE  3.13404  272  5.44488  273  -2.9  100   -2.9  0     0     991.6    NA       0.0000   -SN      BR    3000  0    
2019/06/17  21:53:00  BASE  2.87532  275  4.99212  278  -2.9  100   -2.9  0     0     991.6    NA       0.0000   -SN      BR    3400  0    
2019/06/17  21:54:00  BASE  3.13992  278  4.99212  278  -2.9  100   -2.9  0     0     991.6    NA       0.0000   -SN      BR    4500  0    
2019/06/17  21:55:00  BASE  3.36924  280  4.68636  272  -2.9  100   -2.9  0     0     991.6    NA       0.0000   -SN      BR    7000  0    
2019/06/17  21:56:00  BASE  3.234    276  4.68636  272  -2.9  100   -2.9  0     0     991.6    NA       0.0000   -SN      BR    7000  0    
2019/06/17  21:57:00  BASE  2.79888  273  4.35708  273  -2.9  100   -2.9  0     0     991.6    NA       0.0000   -SN      BR    7000  0    
2019/06/17  21:58:00  BASE  2.94     275  4.35708  273  -2.9  100   -2.9  0     0     991.6    NA       0.0000   -SN      BR    7000  0    
2019/06/17  21:59:00  BASE  3.35748  276  4.35708  273  -2.9  100   -2.9  0     0     991.6    NA       0.0000   -SN      BR    9999  0    
2019/06/17  22:00:00  BASE  3.1752   279  4.35708  273  -2.9  100   -2.9  0     0     991.6    NA       0.0000   -SN      BR    9999  0    
2019/06/17  22:01:00  BASE  2.95176  277  4.32768  273  -2.9  100   -2.9  0     0     991.6    NA       0.0000   -SN      BR    9999  0    
2019/06/17  22:02:00  BASE  2.75772  280  4.32768  273  -2.9  100   -2.9  0     0     991.6    NA       0.0000   -SN      BR    9999  4530 
2019/06/17  22:03:00  BASE  2.6754   288  4.32768  273  -2.9  100   -2.9  0     0     991.6    NA       0.0000   -SN      BR    9999  4330 
2019/06/17  22:04:00  BASE  2.7048   290  4.1454   277  -2.9  100   -2.9  0     0     991.6    NA       0.0000   -SN      9999  4400  0    
2019/06/17  22:05:00  BASE  2.72244  287  4.05132  274  -2.9  100   -2.9  0     0     991.6    NA       0.0000   -SN      9999  4430  0    
2019/06/17  22:06:00  BASE  2.56956  281  4.05132  274  -2.9  100   -2.9  0     0     991.6    NA       0.0000   -SN      9999  4360  0    
2019/06/17  22:07:00  BASE  2.28144  281  4.05132  274  -2.9  100   -2.9  0     0     991.6    NA       0.0000   -SN      9999  4490  0    
2019/06/17  22:08:00  BASE  2.12268  286  3.96312  271  -2.8  100   -2.8  0     0     991.6    NA       0.0000   -SN      9999  4460  0    
2019/06/17  22:09:00  BASE  2.12268  286  3.65736  270  -2.8  100   -2.8  0     0     991.6    NA       0.0000   -SN      9999  4430  0    
2019/06/17  22:10:00  BASE  2.2638   287  3.65736  270  -2.8  100   -2.8  0     0     991.6    NA       0.0000   9999     3380  0     0    
2019/06/17  22:11:00  BASE  2.16384  290  3.234    270  -2.8  100   -2.8  0     0     991.6    NA       0.0000   9999     4460  0     0    
2019/06/17  22:12:00  BASE  1.89336  288  3.234    270  -2.7  100   -2.7  0     0     991.6    NA       0.0000   9999     4460  0     0    
2019/06/17  22:13:00  BASE  2.09328  285  3.234    270  -2.7  100   -2.7  0     0     991.6    NA       0.0000   9999     4460  0     0    
2019/06/17  22:14:00  BASE  2.38728  282  3.234    270  -2.7  100   -2.7  0     0     991.6    NA       0.0000   9999     4530  0     0    
2019/06/17  22:15:00  BASE  2.1462   285  2.84592  272  -2.6  100   -2.6  0     0     991.6    NA       0.0000   9999     4560  0     0    
2019/06/17  22:16:00  BASE  1.9698   279  2.84592  272  -2.6  100   -2.6  0     0     991.6    NA       0.0000   9999     4590  0     0    
2019/06/17  22:17:00  BASE  2.11092  274  2.84592  272  -2.6  100   -2.6  0     0     991.6    NA       0.0000   9999     4560  0     0    
2019/06/17  22:18:00  BASE  2.5284   273  3.234    267  -2.6  100   -2.6  0     0     991.6    NA       0.0000   9999     4630  0     0    
2019/06/17  22:19:00  BASE  3.15168  271  4.2336   275  -2.5  100   -2.5  0     0     991.6    NA       0.0000   9999     4690  0     0    
2019/06/17  22:20:00  BASE  3.36336  271  4.68636  268  -2.6  100   -2.6  0     0     991.6    NA       0.0000   9999     4660  0     0    
2019/06/17  22:21:00  BASE  3.50448  271  4.93332  273  -2.6  100   -2.6  0     0     991.6    NA       0.0000   9999     4690  0     0    
2019/06/17  22:22:00  BASE  3.78084  273  4.93332  273  -2.6  100   -2.6  0     0     991.6    NA       0.0000   9999     4630  0     0    
2019/06/17  22:23:00  BASE  3.7926   273  4.93332  273  -2.6  100   -2.6  0     0     991.6    NA       0.0000   9999     4530  0     0    
2019/06/17  22:24:00  BASE  4.01604  271  4.93332  273  -2.6  100   -2.6  0     0     991.6    NA       0.0000   9999     4590  0     0    
2019/06/17  22:25:00  BASE  3.8808   271  4.93332  273  -2.5  100   -2.5  0     0     991.6    NA       0.0000   9999     4560  0     0    
2019/06/17  22:26:00  BASE  3.49272  274  4.93332  273  -2.5  100   -2.5  0     0     991.6    NA       0.0000   9999     4530  0     0    
2019/06/17  22:27:00  BASE  3.92196  274  5.35668  271  -2.5  100   -2.5  0     0     991.6    NA       0.0000   9999     4530  0     0    
2019/06/17  22:28:00  BASE  4.43352  275  5.44488  274  -2.5  100   -2.5  0     0     991.5    NA       0.0000   9999     4490  0     0    
2019/06/17  22:29:00  BASE  4.68636  279  5.44488  274  -2.5  100   -2.5  0     0     991.5    NA       0.0000   9999     4530  0     0    
2019/06/17  22:30:00  BASE  5.05092  278  5.74476  271  -2.4  100   -2.4  0     0     991.5    NA       0.0000   9999     4560  0     0    
2019/06/17  22:31:00  BASE  4.998    274  5.74476  271  -2.4  100   -2.4  0     0     991.5    NA       0.0000   9999     4490  0     0    
2019/06/17  22:32:00  BASE  4.72752  275  5.74476  271  -2.4  100   -2.4  0     0     991.5    NA       0.0000   9999     4460  0     0    
2019/06/17  22:33:00  BASE  4.77456  277  5.74476  271  -2.4  100   -2.4  0     0     991.5    NA       0.0000   9999     4400  0     0    
2019/06/17  22:34:00  BASE  4.88628  276  5.74476  271  -2.4  100   -2.4  0     0     991.5    NA       0.0000   9999     4490  0     0    
2019/06/17  22:35:00  BASE  4.89216  275  5.74476  271  -2.4  100   -2.4  0     0     991.5    NA       0.0000   9999     4490  0     0    
2019/06/17  22:36:00  BASE  4.77456  275  5.74476  271  -2.4  100   -2.4  0     0     991.5    NA       0.0000   9999     4690  0     0    
2019/06/17  22:37:00  BASE  4.57464  276  5.74476  271  -2.4  100   -2.4  0     0     991.5    NA       0.0000   9999     4860  0     0    
2019/06/17  22:38:00  BASE  4.68636  278  5.74476  271  -2.3  100   -2.3  0     0     991.5    NA       0.0000   9999     4860  0     0    
2019/06/17  22:39:00  BASE  4.75104  278  5.74476  271  -2.3  100   -2.3  0     0     991.5    NA       0.0000   9999     3640  4760  0    
2019/06/17  22:40:00  BASE  4.54524  280  5.53308  273  -2.3  100   -2.3  0     0     991.6    NA       0.0000   9999     3510  4860  0    
2019/06/17  22:41:00  BASE  4.25712  283  5.53308  273  -2.3  100   -2.3  0     0     991.6    NA       0.0000   9999     3450  4820  0    
2019/06/17  22:42:00  BASE  4.48056  284  5.53308  281  -2.2  100   -2.2  0     0     991.6    NA       0.0000   9999     3310  0     0    
2019/06/17  22:43:00  BASE  4.80984  285  5.53308  281  -2.2  100   -2.2  0     0     991.6    NA       0.0000   9999     1640  0     0    
2019/06/17  22:44:00  BASE  5.18028  284  6.16812  272  -2.2  100   -2.2  0     0     991.6    NA       0.0000   9999     1350  1940  0    
2019/06/17  22:45:00  BASE  5.95056  273  7.3206   259  -2.2  100   -2.2  0     0     991.6    NA       0.0000   9999     1380  0     0    
2019/06/17  22:46:00  BASE  6.76788  262  8.07912  255  -2.2  100   -2.2  0     0     991.6    NA       0.0000   9999     1670  0     0    
2019/06/17  22:47:00  BASE  7.22652  258  8.07912  255  -2.2  100   -2.3  0     0     991.6    NA       0.0000   9999     1610  2920  0    
2019/06/17  22:48:00  BASE  6.6738   257  8.07912  255  -2.3  100   -2.3  0     0     991.6    NA       0.0000   9999     1840  2530  0    
2019/06/17  22:49:00  BASE  6.1446   258  8.13792  255  -2.4  100   -2.4  0     0     991.6    NA       0.0000   9999     1900  0     0    
2019/06/17  22:50:00  BASE  6.83844  258  8.13792  255  -2.4  100   -2.4  0     0     991.6    NA       0.0000   9999     1840  0     0    
2019/06/17  22:51:00  BASE  7.25004  256  8.13792  255  -2.5  100   -2.5  0     0     991.6    NA       0.0000   9999     1840  0     0    
2019/06/17  22:52:00  BASE  6.86784  255  8.13792  255  -2.5  100   -2.5  0     0     991.7    NA       0.0000   9999     2230  2990  0    
2019/06/17  22:53:00  BASE  6.92076  257  8.13792  255  -2.6  100   -2.6  0     0     991.7    NA       0.0000   9999     2460  0     0    
2019/06/17  22:54:00  BASE  6.9678   261  8.13792  255  -2.7  100   -2.7  0     0     991.7    NA       0.0000   9999     2560  0     0    
2019/06/17  22:55:00  BASE  6.87372  259  8.16732  257  -2.7  100   -2.7  0     0     991.7    NA       0.0000   9999     2850  0     0    
2019/06/17  22:56:00  BASE  7.12656  254  8.16732  257  -2.8  100   -2.8  0     0     991.7    NA       0.0000   9999     2920  0     0    
2019/06/17  22:57:00  BASE  7.19712  250  8.16732  257  -2.8  100   -2.8  0     0     991.7    NA       0.0000   9999     3220  0     0    
2019/06/17  22:58:00  BASE  6.84432  249  8.16732  257  -2.8  100   -2.8  0     0     991.8    NA       0.0000   9999     3120  0     0    
2019/06/17  22:59:00  BASE  6.07404  251  8.16732  257  -2.9  100   -2.9  0     0     991.8    NA       0.0000   9999     3050  0     0    
2019/06/17  23:00:00  BASE  6.09168  250  8.16732  257  -2.9  100   -2.9  0     0     991.8    NA       0.0000   9999     2950  0     0    
2019/06/17  23:01:00  BASE  6.52092  246  8.16732  257  -2.9  100   -2.9  0     0     991.8    NA       0.0000   9999     2330  0     0    
2019/06/17  23:02:00  BASE  6.09168  241  8.16732  257  -2.8  100   -2.8  0     0     991.8    NA       0.0000   9999     2400  0     0    
2019/06/17  23:03:00  BASE  5.8506   238  8.16732  257  -2.8  100   -2.8  0     0     991.8    NA       0.0000   9999     3280  0     0    
2019/06/17  23:04:00  BASE  5.73888  238  8.16732  257  -2.8  100   -2.8  0     0     991.8    NA       0.0000   9999     3310  0     0    
2019/06/17  23:05:00  BASE  5.48604  237  7.98504  259  -2.8  100   -2.8  0     0     991.8    NA       0.0000   9999     2560  3380  0    
2019/06/17  23:06:00  BASE  5.41548  237  7.80276  248  -2.8  100   -2.8  0     0     991.8    NA       0.0000   9999     2660  3280  0    
2019/06/17  23:07:00  BASE  5.53896  239  7.4088   249  -2.8  100   -2.8  0     0     991.8    NA       0.0000   9999     2690  3350  0    
2019/06/17  23:08:00  BASE  5.45664  239  7.4088   249  -2.8  100   -2.8  0     0     991.8    NA       0.0000   9999     2820  3510  0    
2019/06/17  23:09:00  BASE  5.19792  240  7.4088   249  -2.8  100   -2.8  0     0     991.9    NA       0.0000   UP       9999  2950  3610 
2019/06/17  23:10:00  BASE  5.1156   241  6.98544  238  -2.9  100   -2.9  0     0     991.9    NA       0.0000   UP       9999  3480  0    
2019/06/17  23:11:00  BASE  4.69812  241  6.95604  233  -2.9  100   -2.9  0     0     991.9    NA       0.0000   UP       9999  3710  0    
2019/06/17  23:12:00  BASE  4.71576  238  6.95604  233  -2.9  100   -2.9  0     0     991.9    NA       0.0000   UP       9000  2070  0    
2019/06/17  23:13:00  BASE  4.93332  238  6.47388  242  -2.9  100   -2.9  0     0     992.0    NA       0.0000   UP       8000  2620  3540 
2019/06/17  23:14:00  BASE  4.95684  239  6.47388  242  -2.9  100   -2.9  0     0     992.0    NA       0.0000   UP       8000  0     0    
2019/06/17  23:15:00  BASE  4.8216   245  6.47388  242  -2.9  100   -2.9  0     0     992.0    NA       0.0000   UP       6000  360   0    
2019/06/17  23:16:00  BASE  4.0572   245  6.47388  242  -2.9  100   -2.9  0     0     992.0    NA       0.0000   -SN      BR    6000  590  
2019/06/17  23:17:00  BASE  3.5868   238  6.02112  245  -3.0  100   -3.0  0     0     992.0    NA       0.0000   -SN      BR    8000  490  
2019/06/17  23:18:00  BASE  3.528    234  6.02112  245  -3.0  100   -3.0  0     0     992.0    NA       0.0000   -SN      BR    7000  2100 
2019/06/17  23:19:00  BASE  3.36924  233  5.83884  237  -2.9  100   -2.9  0     0     992.0    NA       0.0000   -SN      BR    7000  2200 
2019/06/17  23:20:00  BASE  3.52212  233  5.83884  237  -2.9  100   -2.9  0     0     992.0    NA       0.0000   -SN      BR    7000  2260 
2019/06/17  23:21:00  BASE  3.59268  231  5.83884  237  -2.9  100   -2.9  0     0     992.0    NA       0.0000   -SN      BR    9000  2100 
2019/06/17  23:22:00  BASE  3.66912  228  5.83884  237  -2.9  100   -2.9  0     0     992.0    NA       0.0000   -SN      BR    9999  2170 
2019/06/17  23:23:00  BASE  3.86904  226  5.83884  237  -2.9  100   -2.9  0     0     992.1    NA       0.0000   -SN      BR    9999  2100 
2019/06/17  23:24:00  BASE  3.98664  227  5.2038   245  -2.9  100   -2.9  0     0     992.0    NA       0.0000   -SN      BR    9999  2690 
2019/06/17  23:25:00  BASE  4.13952  229  4.59816  231  -2.9  100   -2.9  0     0     992.1    NA       0.0000   -SN      BR    9999  2170 
2019/06/17  23:26:00  BASE  3.95136  233  4.59816  231  -2.9  100   -2.9  0     0     992.1    NA       0.0000   -SN      9999  2620  0    
2019/06/17  23:27:00  BASE  3.65148  238  4.59816  231  -2.9  100   -2.9  0     0     992.1    NA       0.0000   -SN      9999  1670  2790 
2019/06/17  23:28:00  BASE  3.42804  240  4.59816  231  -2.9  100   -2.9  0     0     992.1    NA       0.0000   -SN      9999  1710  2950 
2019/06/17  23:29:00  BASE  3.1164   244  4.59816  231  -2.9  100   -2.9  0     0     992.1    NA       0.0000   -SN      9999  2070  2920 
2019/06/17  23:30:00  BASE  3.04584  247  4.59816  231  -2.9  100   -2.9  0     0     992.1    NA       0.0000   -SN      9999  890   0    
2019/06/17  23:31:00  BASE  3.01056  247  4.59816  231  -2.9  100   -2.9  0     0     992.1    NA       0.0000   -SN      9999  750   2170 
2019/06/17  23:32:00  BASE  2.99292  248  4.59816  231  -2.9  100   -2.9  0     0     992.1    NA       0.0000   -SN      9999  1350  2360 
2019/06/17  23:33:00  BASE  3.37512  252  4.59816  231  -2.9  100   -2.9  0     0     992.1    NA       0.0000   9999     750   2330  0    
2019/06/17  23:34:00  BASE  3.48684  255  4.50996  226  -2.9  100   -2.9  0     0     992.2    NA       0.0000   9999     2100  0     0    
2019/06/17  23:35:00  BASE  3.65148  263  4.47468  266  -2.9  100   -2.9  0     0     992.1    NA       0.0000   9999     2170  0     0    
2019/06/17  23:36:00  BASE  3.42216  271  4.47468  266  -2.8  100   -2.8  0     0     992.1    NA       0.0000   9999     2400  0     0    
2019/06/17  23:37:00  BASE  3.3222   273  4.47468  266  -2.8  100   -2.8  0     0     992.1    NA       0.0000   9999     2590  0     0    
2019/06/17  23:38:00  BASE  3.9984   282  5.68596  286  -2.7  100   -2.7  0     0     992.1    NA       0.0000   9999     2590  0     0    
2019/06/17  23:39:00  BASE  5.05092  291  6.16812  294  -2.7  100   -2.7  0     0     992.0    NA       0.0000   9999     2530  0     0    
2019/06/17  23:40:00  BASE  5.63892  292  6.2622   288  -2.7  100   -2.7  0     0     992.0    NA       0.0000   9999     1870  2590  0    
2019/06/17  23:41:00  BASE  5.41548  290  6.2622   288  -2.7  100   -2.7  0     0     992.1    NA       0.0000   9999     2200  0     0    
2019/06/17  23:42:00  BASE  5.15676  285  6.2622   288  -2.7  100   -2.7  0     0     992.1    NA       0.0000   9999     2460  0     0    
2019/06/17  23:43:00  BASE  4.83924  280  6.2622   288  -2.8  100   -2.8  0     0     992.1    NA       0.0000   9999     2560  0     0    
2019/06/17  23:44:00  BASE  4.66872  284  6.2622   288  -2.8  100   -2.8  0     0     992.1    NA       0.0000   9999     1350  0     0    
2019/06/17  23:45:00  BASE  4.53936  281  6.2622   288  -2.7  100   -2.7  0     0     992.1    NA       0.0000   9999     2660  0     0    
2019/06/17  23:46:00  BASE  4.12188  262  6.2622   288  -2.6  100   -2.6  0     0     992.2    NA       0.0000   9999     2660  0     0    
2019/06/17  23:47:00  BASE  3.78084  249  6.2622   288  -2.6  100   -2.6  0     0     992.1    NA       0.0000   9999     980   2660  0    
2019/06/17  23:48:00  BASE  3.92784  250  6.2622   288  -2.6  100   -2.6  0     0     992.2    NA       0.0000   9999     2690  0     0    
2019/06/17  23:49:00  BASE  3.6162   256  6.2622   288  -2.6  100   -2.6  0     0     992.2    NA       0.0000   9999     2000  0     0    
2019/06/17  23:50:00  BASE  3.05172  262  5.92704  288  -2.6  100   -2.6  0     0     992.2    NA       0.0000   9999     2070  0     0    
2019/06/17  23:51:00  BASE  3.2634   268  5.65656  290  -2.6  100   -2.6  0     0     992.2    NA       0.0000   9999     2400  0     0    
2019/06/17  23:52:00  BASE  3.91608  269  5.44488  278  -2.6  100   -2.6  0     0     992.2    NA       0.0000   9999     2430  0     0    
2019/06/17  23:53:00  BASE  4.55112  268  5.71536  259  -2.7  100   -2.7  0     0     992.2    NA       0.0000   9999     2620  0     0    
2019/06/17  23:54:00  BASE  4.40412  271  5.71536  259  -2.8  100   -2.8  0     0     992.2    NA       0.0000   9999     3250  4000  0    
2019/06/17  23:55:00  BASE  3.98664  272  5.71536  259  -2.8  100   -2.8  0     0     992.2    NA       0.0000   9999     3900  0     0    
2019/06/17  23:56:00  BASE  4.12188  272  5.71536  267  -2.9  100   -2.9  0     0     992.2    NA       0.0000   9999     3640  0     0    
2019/06/17  23:57:00  BASE  4.66284  270  5.86824  279  -2.9  100   -2.9  0     0     992.2    NA       0.0000   9999     3380  0     0    
2019/06/17  23:58:00  BASE  4.62168  265  5.86824  279  -2.9  100   -2.9  0     0     992.2    NA       0.0000   9999     3640  0     0    
2019/06/17  23:59:00  BASE  4.51584  262  5.86824  279  -2.9  100   -2.9  0     0     992.2    NA       0.0000   9999     3020  3610  0